<?xml version="1.0" encoding="UTF-8" standalone="no" ?>
<gpx xmlns="http://www.topografix.com/GPX/1/1" xmlns:xsi="http://www.w3.org/2001/XMLSchema-instance" xsi:schemaLocation="http://www.topografix.com/GPX/1/1 http://www.topografix.com/GPX/1/1/gpx.xsd" version="1.1" creator="VisuGPX - https://www.visugpx.com">
  <metadata>
    <name>Autour de Lalley (Trièves)</name>
    <desc><![CDATA[Un long circuit pour profiter des splendeurs du Sud-Trièves.]]></desc>
  </metadata>
  <trk>
    <name><![CDATA[23-AOU-26 15:43:14]]></name>
    <trkseg>
      <trkpt lat="44.75772" lon="5.67853">
        <ele>831.2</ele>
        <time>2026-08-23T06:36:23Z</time>
      </trkpt>
      <trkpt lat="44.75772" lon="5.67853">
        <ele>834.08</ele>
        <time>2026-08-23T06:36:25Z</time>
      </trkpt>
      <trkpt lat="44.75772" lon="5.67853">
        <ele>830.72</ele>
        <time>2026-08-23T06:36:27Z</time>
      </trkpt>
      <trkpt lat="44.75772" lon="5.67853">
        <ele>834.56</ele>
        <time>2026-08-23T06:36:32Z</time>
      </trkpt>
      <trkpt lat="44.75772" lon="5.67853">
        <ele>831.2</ele>
        <time>2026-08-23T06:36:34Z</time>
      </trkpt>
      <trkpt lat="44.75772" lon="5.67853">
        <ele>835.04</ele>
        <time>2026-08-23T06:36:49Z</time>
      </trkpt>
      <trkpt lat="44.75772" lon="5.67853">
        <ele>830.72</ele>
        <time>2026-08-23T06:36:53Z</time>
      </trkpt>
      <trkpt lat="44.75772" lon="5.67853">
        <ele>833.6</ele>
        <time>2026-08-23T06:36:54Z</time>
      </trkpt>
      <trkpt lat="44.75771" lon="5.67853">
        <ele>828.31</ele>
        <time>2026-08-23T06:36:58Z</time>
      </trkpt>
      <trkpt lat="44.75772" lon="5.67853">
        <ele>836.96</ele>
        <time>2026-08-23T06:36:59Z</time>
      </trkpt>
      <trkpt lat="44.75772" lon="5.67852">
        <ele>832.64</ele>
        <time>2026-08-23T06:37:00Z</time>
      </trkpt>
      <trkpt lat="44.75771" lon="5.67853">
        <ele>832.64</ele>
        <time>2026-08-23T06:37:27Z</time>
      </trkpt>
      <trkpt lat="44.7577" lon="5.67853">
        <ele>833.12</ele>
        <time>2026-08-23T06:37:59Z</time>
      </trkpt>
      <trkpt lat="44.75769" lon="5.67854">
        <ele>833.12</ele>
        <time>2026-08-23T06:38:00Z</time>
      </trkpt>
      <trkpt lat="44.75759" lon="5.67875">
        <ele>832.16</ele>
        <time>2026-08-23T06:38:16Z</time>
      </trkpt>
      <trkpt lat="44.75752" lon="5.67893">
        <ele>831.2</ele>
        <time>2026-08-23T06:38:28Z</time>
      </trkpt>
      <trkpt lat="44.75742" lon="5.67909">
        <ele>830.72</ele>
        <time>2026-08-23T06:38:41Z</time>
      </trkpt>
      <trkpt lat="44.75731" lon="5.6793">
        <ele>830.24</ele>
        <time>2026-08-23T06:38:58Z</time>
      </trkpt>
      <trkpt lat="44.75721" lon="5.67952">
        <ele>829.27</ele>
        <time>2026-08-23T06:39:13Z</time>
      </trkpt>
      <trkpt lat="44.75712" lon="5.6797">
        <ele>829.27</ele>
        <time>2026-08-23T06:39:26Z</time>
      </trkpt>
      <trkpt lat="44.7571" lon="5.67979">
        <ele>829.27</ele>
        <time>2026-08-23T06:39:32Z</time>
      </trkpt>
      <trkpt lat="44.75705" lon="5.67987">
        <ele>828.79</ele>
        <time>2026-08-23T06:39:39Z</time>
      </trkpt>
      <trkpt lat="44.75703" lon="5.67988">
        <ele>828.79</ele>
        <time>2026-08-23T06:39:41Z</time>
      </trkpt>
      <trkpt lat="44.75699" lon="5.67987">
        <ele>828.79</ele>
        <time>2026-08-23T06:39:45Z</time>
      </trkpt>
      <trkpt lat="44.75684" lon="5.67977">
        <ele>829.76</ele>
        <time>2026-08-23T06:40:00Z</time>
      </trkpt>
      <trkpt lat="44.75682" lon="5.67976">
        <ele>829.76</ele>
        <time>2026-08-23T06:40:02Z</time>
      </trkpt>
      <trkpt lat="44.75669" lon="5.67968">
        <ele>830.72</ele>
        <time>2026-08-23T06:40:16Z</time>
      </trkpt>
      <trkpt lat="44.75653" lon="5.67963">
        <ele>831.2</ele>
        <time>2026-08-23T06:40:30Z</time>
      </trkpt>
      <trkpt lat="44.75639" lon="5.67964">
        <ele>831.68</ele>
        <time>2026-08-23T06:40:42Z</time>
      </trkpt>
      <trkpt lat="44.75624" lon="5.67967">
        <ele>832.16</ele>
        <time>2026-08-23T06:40:55Z</time>
      </trkpt>
      <trkpt lat="44.75609" lon="5.67972">
        <ele>832.64</ele>
        <time>2026-08-23T06:41:09Z</time>
      </trkpt>
      <trkpt lat="44.75599" lon="5.67973">
        <ele>833.12</ele>
        <time>2026-08-23T06:41:21Z</time>
      </trkpt>
      <trkpt lat="44.75599" lon="5.67973">
        <ele>833.12</ele>
        <time>2026-08-23T06:41:22Z</time>
      </trkpt>
      <trkpt lat="44.7558" lon="5.67976">
        <ele>833.6</ele>
        <time>2026-08-23T06:41:38Z</time>
      </trkpt>
      <trkpt lat="44.75574" lon="5.67974">
        <ele>834.08</ele>
        <time>2026-08-23T06:41:47Z</time>
      </trkpt>
      <trkpt lat="44.75562" lon="5.67973">
        <ele>834.56</ele>
        <time>2026-08-23T06:41:58Z</time>
      </trkpt>
      <trkpt lat="44.75543" lon="5.67968">
        <ele>835.52</ele>
        <time>2026-08-23T06:42:16Z</time>
      </trkpt>
      <trkpt lat="44.75541" lon="5.67967">
        <ele>835.52</ele>
        <time>2026-08-23T06:42:18Z</time>
      </trkpt>
      <trkpt lat="44.75525" lon="5.67963">
        <ele>836.48</ele>
        <time>2026-08-23T06:42:34Z</time>
      </trkpt>
      <trkpt lat="44.75517" lon="5.67956">
        <ele>836.96</ele>
        <time>2026-08-23T06:42:46Z</time>
      </trkpt>
      <trkpt lat="44.75512" lon="5.67948">
        <ele>837.45</ele>
        <time>2026-08-23T06:42:54Z</time>
      </trkpt>
      <trkpt lat="44.75504" lon="5.67932">
        <ele>838.89</ele>
        <time>2026-08-23T06:43:11Z</time>
      </trkpt>
      <trkpt lat="44.75505" lon="5.67933">
        <ele>838.89</ele>
        <time>2026-08-23T06:43:18Z</time>
      </trkpt>
      <trkpt lat="44.75506" lon="5.67941">
        <ele>837.93</ele>
        <time>2026-08-23T06:43:24Z</time>
      </trkpt>
      <trkpt lat="44.75504" lon="5.67944">
        <ele>837.45</ele>
        <time>2026-08-23T06:43:26Z</time>
      </trkpt>
      <trkpt lat="44.75497" lon="5.67939">
        <ele>837.93</ele>
        <time>2026-08-23T06:43:34Z</time>
      </trkpt>
      <trkpt lat="44.75483" lon="5.67933">
        <ele>838.41</ele>
        <time>2026-08-23T06:43:47Z</time>
      </trkpt>
      <trkpt lat="44.75471" lon="5.67929">
        <ele>838.89</ele>
        <time>2026-08-23T06:44:00Z</time>
      </trkpt>
      <trkpt lat="44.75453" lon="5.67925">
        <ele>839.85</ele>
        <time>2026-08-23T06:44:15Z</time>
      </trkpt>
      <trkpt lat="44.75444" lon="5.67921">
        <ele>840.33</ele>
        <time>2026-08-23T06:44:23Z</time>
      </trkpt>
      <trkpt lat="44.75436" lon="5.67918">
        <ele>840.81</ele>
        <time>2026-08-23T06:44:31Z</time>
      </trkpt>
      <trkpt lat="44.75433" lon="5.67915">
        <ele>840.81</ele>
        <time>2026-08-23T06:44:35Z</time>
      </trkpt>
      <trkpt lat="44.75428" lon="5.67914">
        <ele>840.81</ele>
        <time>2026-08-23T06:44:39Z</time>
      </trkpt>
      <trkpt lat="44.75413" lon="5.6791">
        <ele>841.77</ele>
        <time>2026-08-23T06:44:51Z</time>
      </trkpt>
      <trkpt lat="44.7541" lon="5.6791">
        <ele>841.77</ele>
        <time>2026-08-23T06:44:54Z</time>
      </trkpt>
      <trkpt lat="44.75404" lon="5.67912">
        <ele>841.77</ele>
        <time>2026-08-23T06:44:59Z</time>
      </trkpt>
      <trkpt lat="44.7539" lon="5.67914">
        <ele>841.77</ele>
        <time>2026-08-23T06:45:11Z</time>
      </trkpt>
      <trkpt lat="44.75375" lon="5.67919">
        <ele>842.25</ele>
        <time>2026-08-23T06:45:25Z</time>
      </trkpt>
      <trkpt lat="44.75358" lon="5.67921">
        <ele>842.73</ele>
        <time>2026-08-23T06:45:41Z</time>
      </trkpt>
      <trkpt lat="44.75344" lon="5.67917">
        <ele>843.21</ele>
        <time>2026-08-23T06:45:55Z</time>
      </trkpt>
      <trkpt lat="44.75335" lon="5.67913">
        <ele>843.69</ele>
        <time>2026-08-23T06:46:04Z</time>
      </trkpt>
      <trkpt lat="44.75329" lon="5.67911">
        <ele>843.69</ele>
        <time>2026-08-23T06:46:09Z</time>
      </trkpt>
      <trkpt lat="44.75323" lon="5.67906">
        <ele>843.69</ele>
        <time>2026-08-23T06:46:22Z</time>
      </trkpt>
      <trkpt lat="44.75318" lon="5.67905">
        <ele>843.69</ele>
        <time>2026-08-23T06:46:26Z</time>
      </trkpt>
      <trkpt lat="44.75315" lon="5.67902">
        <ele>844.18</ele>
        <time>2026-08-23T06:46:29Z</time>
      </trkpt>
      <trkpt lat="44.75312" lon="5.67901">
        <ele>844.18</ele>
        <time>2026-08-23T06:46:46Z</time>
      </trkpt>
      <trkpt lat="44.75297" lon="5.67898">
        <ele>844.18</ele>
        <time>2026-08-23T06:47:00Z</time>
      </trkpt>
      <trkpt lat="44.7528" lon="5.679">
        <ele>842.73</ele>
        <time>2026-08-23T06:47:16Z</time>
      </trkpt>
      <trkpt lat="44.75263" lon="5.67906">
        <ele>840.81</ele>
        <time>2026-08-23T06:47:34Z</time>
      </trkpt>
      <trkpt lat="44.75244" lon="5.6791">
        <ele>838.89</ele>
        <time>2026-08-23T06:47:52Z</time>
      </trkpt>
      <trkpt lat="44.75227" lon="5.67908">
        <ele>837.45</ele>
        <time>2026-08-23T06:48:08Z</time>
      </trkpt>
      <trkpt lat="44.75211" lon="5.6791">
        <ele>836</ele>
        <time>2026-08-23T06:48:23Z</time>
      </trkpt>
      <trkpt lat="44.75198" lon="5.67913">
        <ele>834.56</ele>
        <time>2026-08-23T06:48:39Z</time>
      </trkpt>
      <trkpt lat="44.75177" lon="5.67931">
        <ele>833.6</ele>
        <time>2026-08-23T06:48:56Z</time>
      </trkpt>
      <trkpt lat="44.75174" lon="5.67933">
        <ele>833.6</ele>
        <time>2026-08-23T06:49:00Z</time>
      </trkpt>
      <trkpt lat="44.75153" lon="5.67954">
        <ele>833.12</ele>
        <time>2026-08-23T06:49:19Z</time>
      </trkpt>
      <trkpt lat="44.75138" lon="5.6797">
        <ele>834.08</ele>
        <time>2026-08-23T06:49:37Z</time>
      </trkpt>
      <trkpt lat="44.75123" lon="5.67978">
        <ele>834.08</ele>
        <time>2026-08-23T06:49:54Z</time>
      </trkpt>
      <trkpt lat="44.75101" lon="5.67998">
        <ele>835.04</ele>
        <time>2026-08-23T06:50:14Z</time>
      </trkpt>
      <trkpt lat="44.75088" lon="5.68008">
        <ele>834.08</ele>
        <time>2026-08-23T06:50:28Z</time>
      </trkpt>
      <trkpt lat="44.75076" lon="5.68025">
        <ele>833.6</ele>
        <time>2026-08-23T06:50:44Z</time>
      </trkpt>
      <trkpt lat="44.75059" lon="5.68044">
        <ele>834.08</ele>
        <time>2026-08-23T06:51:02Z</time>
      </trkpt>
      <trkpt lat="44.75043" lon="5.68062">
        <ele>834.56</ele>
        <time>2026-08-23T06:51:18Z</time>
      </trkpt>
      <trkpt lat="44.75024" lon="5.68078">
        <ele>833.6</ele>
        <time>2026-08-23T06:51:37Z</time>
      </trkpt>
      <trkpt lat="44.75018" lon="5.68087">
        <ele>833.6</ele>
        <time>2026-08-23T06:51:44Z</time>
      </trkpt>
      <trkpt lat="44.75011" lon="5.68109">
        <ele>833.6</ele>
        <time>2026-08-23T06:51:59Z</time>
      </trkpt>
      <trkpt lat="44.75007" lon="5.68131">
        <ele>833.6</ele>
        <time>2026-08-23T06:52:10Z</time>
      </trkpt>
      <trkpt lat="44.75" lon="5.68157">
        <ele>834.08</ele>
        <time>2026-08-23T06:52:27Z</time>
      </trkpt>
      <trkpt lat="44.74991" lon="5.68179">
        <ele>835.52</ele>
        <time>2026-08-23T06:52:43Z</time>
      </trkpt>
      <trkpt lat="44.74983" lon="5.68198">
        <ele>836.48</ele>
        <time>2026-08-23T06:53:00Z</time>
      </trkpt>
      <trkpt lat="44.74977" lon="5.68214">
        <ele>837.93</ele>
        <time>2026-08-23T06:53:15Z</time>
      </trkpt>
      <trkpt lat="44.7496" lon="5.68224">
        <ele>838.89</ele>
        <time>2026-08-23T06:53:30Z</time>
      </trkpt>
      <trkpt lat="44.74959" lon="5.68225">
        <ele>838.89</ele>
        <time>2026-08-23T06:53:31Z</time>
      </trkpt>
      <trkpt lat="44.74944" lon="5.68231">
        <ele>838.89</ele>
        <time>2026-08-23T06:53:46Z</time>
      </trkpt>
      <trkpt lat="44.74939" lon="5.68236">
        <ele>839.37</ele>
        <time>2026-08-23T06:53:52Z</time>
      </trkpt>
      <trkpt lat="44.74916" lon="5.6825">
        <ele>839.37</ele>
        <time>2026-08-23T06:54:10Z</time>
      </trkpt>
      <trkpt lat="44.74903" lon="5.68262">
        <ele>838.41</ele>
        <time>2026-08-23T06:54:24Z</time>
      </trkpt>
      <trkpt lat="44.7489" lon="5.68281">
        <ele>836.48</ele>
        <time>2026-08-23T06:54:40Z</time>
      </trkpt>
      <trkpt lat="44.74882" lon="5.68301">
        <ele>836</ele>
        <time>2026-08-23T06:54:54Z</time>
      </trkpt>
      <trkpt lat="44.74882" lon="5.68323">
        <ele>836.48</ele>
        <time>2026-08-23T06:55:07Z</time>
      </trkpt>
      <trkpt lat="44.74882" lon="5.68324">
        <ele>836.48</ele>
        <time>2026-08-23T06:55:08Z</time>
      </trkpt>
      <trkpt lat="44.74883" lon="5.68328">
        <ele>836.48</ele>
        <time>2026-08-23T06:55:11Z</time>
      </trkpt>
      <trkpt lat="44.74885" lon="5.68339">
        <ele>836.48</ele>
        <time>2026-08-23T06:55:24Z</time>
      </trkpt>
      <trkpt lat="44.74884" lon="5.68339">
        <ele>836.96</ele>
        <time>2026-08-23T06:55:35Z</time>
      </trkpt>
      <trkpt lat="44.74882" lon="5.6834">
        <ele>836.48</ele>
        <time>2026-08-23T06:55:38Z</time>
      </trkpt>
      <trkpt lat="44.74874" lon="5.68344">
        <ele>836.96</ele>
        <time>2026-08-23T06:55:52Z</time>
      </trkpt>
      <trkpt lat="44.74875" lon="5.68345">
        <ele>836.96</ele>
        <time>2026-08-23T06:56:22Z</time>
      </trkpt>
      <trkpt lat="44.74876" lon="5.68348">
        <ele>836.96</ele>
        <time>2026-08-23T06:56:40Z</time>
      </trkpt>
      <trkpt lat="44.74864" lon="5.68346">
        <ele>836.96</ele>
        <time>2026-08-23T06:56:54Z</time>
      </trkpt>
      <trkpt lat="44.74857" lon="5.68343">
        <ele>836.48</ele>
        <time>2026-08-23T06:57:09Z</time>
      </trkpt>
      <trkpt lat="44.74859" lon="5.68344">
        <ele>836.96</ele>
        <time>2026-08-23T06:57:11Z</time>
      </trkpt>
      <trkpt lat="44.74862" lon="5.68345">
        <ele>836.96</ele>
        <time>2026-08-23T06:57:14Z</time>
      </trkpt>
      <trkpt lat="44.74879" lon="5.68348">
        <ele>836.96</ele>
        <time>2026-08-23T06:57:30Z</time>
      </trkpt>
      <trkpt lat="44.7489" lon="5.68343">
        <ele>836.96</ele>
        <time>2026-08-23T06:57:39Z</time>
      </trkpt>
      <trkpt lat="44.7491" lon="5.6833">
        <ele>836.48</ele>
        <time>2026-08-23T06:57:56Z</time>
      </trkpt>
      <trkpt lat="44.74923" lon="5.68326">
        <ele>836.48</ele>
        <time>2026-08-23T06:58:09Z</time>
      </trkpt>
      <trkpt lat="44.7494" lon="5.68322">
        <ele>836</ele>
        <time>2026-08-23T06:58:26Z</time>
      </trkpt>
      <trkpt lat="44.74956" lon="5.68314">
        <ele>836</ele>
        <time>2026-08-23T06:58:40Z</time>
      </trkpt>
      <trkpt lat="44.74971" lon="5.68308">
        <ele>836.48</ele>
        <time>2026-08-23T06:58:58Z</time>
      </trkpt>
      <trkpt lat="44.74988" lon="5.68301">
        <ele>836.48</ele>
        <time>2026-08-23T06:59:11Z</time>
      </trkpt>
      <trkpt lat="44.75002" lon="5.68291">
        <ele>836.48</ele>
        <time>2026-08-23T06:59:26Z</time>
      </trkpt>
      <trkpt lat="44.75016" lon="5.68279">
        <ele>836.96</ele>
        <time>2026-08-23T06:59:37Z</time>
      </trkpt>
      <trkpt lat="44.75034" lon="5.68266">
        <ele>837.45</ele>
        <time>2026-08-23T06:59:54Z</time>
      </trkpt>
      <trkpt lat="44.75049" lon="5.68258">
        <ele>838.89</ele>
        <time>2026-08-23T07:00:08Z</time>
      </trkpt>
      <trkpt lat="44.75066" lon="5.6825">
        <ele>838.41</ele>
        <time>2026-08-23T07:00:25Z</time>
      </trkpt>
      <trkpt lat="44.75085" lon="5.68249">
        <ele>837.93</ele>
        <time>2026-08-23T07:00:42Z</time>
      </trkpt>
      <trkpt lat="44.75095" lon="5.68245">
        <ele>837.93</ele>
        <time>2026-08-23T07:00:52Z</time>
      </trkpt>
      <trkpt lat="44.75117" lon="5.68239">
        <ele>836.96</ele>
        <time>2026-08-23T07:01:10Z</time>
      </trkpt>
      <trkpt lat="44.75121" lon="5.68241">
        <ele>836.48</ele>
        <time>2026-08-23T07:01:13Z</time>
      </trkpt>
      <trkpt lat="44.75133" lon="5.68244">
        <ele>835.04</ele>
        <time>2026-08-23T07:01:24Z</time>
      </trkpt>
      <trkpt lat="44.75152" lon="5.6824">
        <ele>834.56</ele>
        <time>2026-08-23T07:01:39Z</time>
      </trkpt>
      <trkpt lat="44.75152" lon="5.68241">
        <ele>834.56</ele>
        <time>2026-08-23T07:01:40Z</time>
      </trkpt>
      <trkpt lat="44.7516" lon="5.68244">
        <ele>834.56</ele>
        <time>2026-08-23T07:01:55Z</time>
      </trkpt>
      <trkpt lat="44.75161" lon="5.68244">
        <ele>834.56</ele>
        <time>2026-08-23T07:01:58Z</time>
      </trkpt>
      <trkpt lat="44.75168" lon="5.68258">
        <ele>835.52</ele>
        <time>2026-08-23T07:02:15Z</time>
      </trkpt>
      <trkpt lat="44.7517" lon="5.68261">
        <ele>835.52</ele>
        <time>2026-08-23T07:02:17Z</time>
      </trkpt>
      <trkpt lat="44.75179" lon="5.68269">
        <ele>836</ele>
        <time>2026-08-23T07:02:25Z</time>
      </trkpt>
      <trkpt lat="44.75188" lon="5.6827">
        <ele>836</ele>
        <time>2026-08-23T07:02:33Z</time>
      </trkpt>
      <trkpt lat="44.75191" lon="5.6827">
        <ele>836</ele>
        <time>2026-08-23T07:02:35Z</time>
      </trkpt>
      <trkpt lat="44.75206" lon="5.68263">
        <ele>836.96</ele>
        <time>2026-08-23T07:02:49Z</time>
      </trkpt>
      <trkpt lat="44.75224" lon="5.68251">
        <ele>837.93</ele>
        <time>2026-08-23T07:03:07Z</time>
      </trkpt>
      <trkpt lat="44.75227" lon="5.68249">
        <ele>837.93</ele>
        <time>2026-08-23T07:03:09Z</time>
      </trkpt>
      <trkpt lat="44.7523" lon="5.68242">
        <ele>838.41</ele>
        <time>2026-08-23T07:03:13Z</time>
      </trkpt>
      <trkpt lat="44.75239" lon="5.68235">
        <ele>839.37</ele>
        <time>2026-08-23T07:03:28Z</time>
      </trkpt>
      <trkpt lat="44.75244" lon="5.68229">
        <ele>839.85</ele>
        <time>2026-08-23T07:03:34Z</time>
      </trkpt>
      <trkpt lat="44.75258" lon="5.68224">
        <ele>840.81</ele>
        <time>2026-08-23T07:03:49Z</time>
      </trkpt>
      <trkpt lat="44.75264" lon="5.68221">
        <ele>841.77</ele>
        <time>2026-08-23T07:03:57Z</time>
      </trkpt>
      <trkpt lat="44.75279" lon="5.68205">
        <ele>842.73</ele>
        <time>2026-08-23T07:04:14Z</time>
      </trkpt>
      <trkpt lat="44.75293" lon="5.68193">
        <ele>844.18</ele>
        <time>2026-08-23T07:04:31Z</time>
      </trkpt>
      <trkpt lat="44.75296" lon="5.68192">
        <ele>844.18</ele>
        <time>2026-08-23T07:04:34Z</time>
      </trkpt>
      <trkpt lat="44.7531" lon="5.68179">
        <ele>845.62</ele>
        <time>2026-08-23T07:04:50Z</time>
      </trkpt>
      <trkpt lat="44.75315" lon="5.68176">
        <ele>846.1</ele>
        <time>2026-08-23T07:04:57Z</time>
      </trkpt>
      <trkpt lat="44.7533" lon="5.6817">
        <ele>851.87</ele>
        <time>2026-08-23T07:05:09Z</time>
      </trkpt>
      <trkpt lat="44.75331" lon="5.6817">
        <ele>847.06</ele>
        <time>2026-08-23T07:05:10Z</time>
      </trkpt>
      <trkpt lat="44.75334" lon="5.68171">
        <ele>847.06</ele>
        <time>2026-08-23T07:05:15Z</time>
      </trkpt>
      <trkpt lat="44.75348" lon="5.68174">
        <ele>848.02</ele>
        <time>2026-08-23T07:05:30Z</time>
      </trkpt>
      <trkpt lat="44.75358" lon="5.68178">
        <ele>848.98</ele>
        <time>2026-08-23T07:05:42Z</time>
      </trkpt>
      <trkpt lat="44.75377" lon="5.68186">
        <ele>849.94</ele>
        <time>2026-08-23T07:05:58Z</time>
      </trkpt>
      <trkpt lat="44.7539" lon="5.68188">
        <ele>851.38</ele>
        <time>2026-08-23T07:06:14Z</time>
      </trkpt>
      <trkpt lat="44.75402" lon="5.68199">
        <ele>852.35</ele>
        <time>2026-08-23T07:06:29Z</time>
      </trkpt>
      <trkpt lat="44.75406" lon="5.68202">
        <ele>852.83</ele>
        <time>2026-08-23T07:06:35Z</time>
      </trkpt>
      <trkpt lat="44.75417" lon="5.68214">
        <ele>853.79</ele>
        <time>2026-08-23T07:06:49Z</time>
      </trkpt>
      <trkpt lat="44.75434" lon="5.6823">
        <ele>854.75</ele>
        <time>2026-08-23T07:07:06Z</time>
      </trkpt>
      <trkpt lat="44.7545" lon="5.68247">
        <ele>856.19</ele>
        <time>2026-08-23T07:07:24Z</time>
      </trkpt>
      <trkpt lat="44.75457" lon="5.68249">
        <ele>857.15</ele>
        <time>2026-08-23T07:07:34Z</time>
      </trkpt>
      <trkpt lat="44.75466" lon="5.68256">
        <ele>857.63</ele>
        <time>2026-08-23T07:07:51Z</time>
      </trkpt>
      <trkpt lat="44.75468" lon="5.6826">
        <ele>858.11</ele>
        <time>2026-08-23T07:08:20Z</time>
      </trkpt>
      <trkpt lat="44.75471" lon="5.68271">
        <ele>860.52</ele>
        <time>2026-08-23T07:08:35Z</time>
      </trkpt>
      <trkpt lat="44.75465" lon="5.68277">
        <ele>862.44</ele>
        <time>2026-08-23T07:08:50Z</time>
      </trkpt>
      <trkpt lat="44.75456" lon="5.68283">
        <ele>864.36</ele>
        <time>2026-08-23T07:09:05Z</time>
      </trkpt>
      <trkpt lat="44.7545" lon="5.68284">
        <ele>867.25</ele>
        <time>2026-08-23T07:09:22Z</time>
      </trkpt>
      <trkpt lat="44.75437" lon="5.68286">
        <ele>869.65</ele>
        <time>2026-08-23T07:09:37Z</time>
      </trkpt>
      <trkpt lat="44.75423" lon="5.68294">
        <ele>872.05</ele>
        <time>2026-08-23T07:09:55Z</time>
      </trkpt>
      <trkpt lat="44.75411" lon="5.68299">
        <ele>874.46</ele>
        <time>2026-08-23T07:10:11Z</time>
      </trkpt>
      <trkpt lat="44.75403" lon="5.68307">
        <ele>875.9</ele>
        <time>2026-08-23T07:10:31Z</time>
      </trkpt>
      <trkpt lat="44.75398" lon="5.68313">
        <ele>877.82</ele>
        <time>2026-08-23T07:10:48Z</time>
      </trkpt>
      <trkpt lat="44.75387" lon="5.68327">
        <ele>880.71</ele>
        <time>2026-08-23T07:11:06Z</time>
      </trkpt>
      <trkpt lat="44.75379" lon="5.68335">
        <ele>883.11</ele>
        <time>2026-08-23T07:11:22Z</time>
      </trkpt>
      <trkpt lat="44.75372" lon="5.68343">
        <ele>885.03</ele>
        <time>2026-08-23T07:11:37Z</time>
      </trkpt>
      <trkpt lat="44.75361" lon="5.6835">
        <ele>887.43</ele>
        <time>2026-08-23T07:11:53Z</time>
      </trkpt>
      <trkpt lat="44.75354" lon="5.68358">
        <ele>888.88</ele>
        <time>2026-08-23T07:12:07Z</time>
      </trkpt>
      <trkpt lat="44.75342" lon="5.6837">
        <ele>890.8</ele>
        <time>2026-08-23T07:12:24Z</time>
      </trkpt>
      <trkpt lat="44.75332" lon="5.68381">
        <ele>892.72</ele>
        <time>2026-08-23T07:12:39Z</time>
      </trkpt>
      <trkpt lat="44.7532" lon="5.68394">
        <ele>894.64</ele>
        <time>2026-08-23T07:12:55Z</time>
      </trkpt>
      <trkpt lat="44.75314" lon="5.68401">
        <ele>896.09</ele>
        <time>2026-08-23T07:13:10Z</time>
      </trkpt>
      <trkpt lat="44.75307" lon="5.68409">
        <ele>897.53</ele>
        <time>2026-08-23T07:13:24Z</time>
      </trkpt>
      <trkpt lat="44.75303" lon="5.68414">
        <ele>898.97</ele>
        <time>2026-08-23T07:13:39Z</time>
      </trkpt>
      <trkpt lat="44.75303" lon="5.68425">
        <ele>899.93</ele>
        <time>2026-08-23T07:13:57Z</time>
      </trkpt>
      <trkpt lat="44.75302" lon="5.68432">
        <ele>900.89</ele>
        <time>2026-08-23T07:14:10Z</time>
      </trkpt>
      <trkpt lat="44.75297" lon="5.6843">
        <ele>899.45</ele>
        <time>2026-08-23T07:14:26Z</time>
      </trkpt>
      <trkpt lat="44.7529" lon="5.68439">
        <ele>899.93</ele>
        <time>2026-08-23T07:14:40Z</time>
      </trkpt>
      <trkpt lat="44.75279" lon="5.6845">
        <ele>901.85</ele>
        <time>2026-08-23T07:14:56Z</time>
      </trkpt>
      <trkpt lat="44.7527" lon="5.68468">
        <ele>903.3</ele>
        <time>2026-08-23T07:15:12Z</time>
      </trkpt>
      <trkpt lat="44.75263" lon="5.68483">
        <ele>904.74</ele>
        <time>2026-08-23T07:15:28Z</time>
      </trkpt>
      <trkpt lat="44.75252" lon="5.68499">
        <ele>906.18</ele>
        <time>2026-08-23T07:15:44Z</time>
      </trkpt>
      <trkpt lat="44.75242" lon="5.68514">
        <ele>907.62</ele>
        <time>2026-08-23T07:16:00Z</time>
      </trkpt>
      <trkpt lat="44.75239" lon="5.68531">
        <ele>908.58</ele>
        <time>2026-08-23T07:16:14Z</time>
      </trkpt>
      <trkpt lat="44.75234" lon="5.68553">
        <ele>910.03</ele>
        <time>2026-08-23T07:16:30Z</time>
      </trkpt>
      <trkpt lat="44.75228" lon="5.68568">
        <ele>911.47</ele>
        <time>2026-08-23T07:16:45Z</time>
      </trkpt>
      <trkpt lat="44.75224" lon="5.68588">
        <ele>912.91</ele>
        <time>2026-08-23T07:17:02Z</time>
      </trkpt>
      <trkpt lat="44.7522" lon="5.68604">
        <ele>914.83</ele>
        <time>2026-08-23T07:17:17Z</time>
      </trkpt>
      <trkpt lat="44.75214" lon="5.68616">
        <ele>915.79</ele>
        <time>2026-08-23T07:17:30Z</time>
      </trkpt>
      <trkpt lat="44.75207" lon="5.68634">
        <ele>917.72</ele>
        <time>2026-08-23T07:17:45Z</time>
      </trkpt>
      <trkpt lat="44.752" lon="5.68656">
        <ele>919.64</ele>
        <time>2026-08-23T07:18:05Z</time>
      </trkpt>
      <trkpt lat="44.75193" lon="5.68669">
        <ele>921.56</ele>
        <time>2026-08-23T07:18:20Z</time>
      </trkpt>
      <trkpt lat="44.7519" lon="5.68692">
        <ele>923.96</ele>
        <time>2026-08-23T07:18:38Z</time>
      </trkpt>
      <trkpt lat="44.75188" lon="5.68705">
        <ele>926.37</ele>
        <time>2026-08-23T07:18:55Z</time>
      </trkpt>
      <trkpt lat="44.75185" lon="5.6872">
        <ele>928.29</ele>
        <time>2026-08-23T07:19:10Z</time>
      </trkpt>
      <trkpt lat="44.75181" lon="5.68738">
        <ele>929.73</ele>
        <time>2026-08-23T07:19:28Z</time>
      </trkpt>
      <trkpt lat="44.75187" lon="5.68737">
        <ele>929.73</ele>
        <time>2026-08-23T07:19:45Z</time>
      </trkpt>
      <trkpt lat="44.75195" lon="5.68741">
        <ele>929.73</ele>
        <time>2026-08-23T07:19:56Z</time>
      </trkpt>
      <trkpt lat="44.75202" lon="5.68745">
        <ele>929.73</ele>
        <time>2026-08-23T07:20:00Z</time>
      </trkpt>
      <trkpt lat="44.75219" lon="5.6876">
        <ele>930.21</ele>
        <time>2026-08-23T07:20:16Z</time>
      </trkpt>
      <trkpt lat="44.75232" lon="5.68769">
        <ele>931.17</ele>
        <time>2026-08-23T07:20:29Z</time>
      </trkpt>
      <trkpt lat="44.75235" lon="5.68771">
        <ele>931.17</ele>
        <time>2026-08-23T07:20:33Z</time>
      </trkpt>
      <trkpt lat="44.75239" lon="5.68772">
        <ele>931.65</ele>
        <time>2026-08-23T07:20:36Z</time>
      </trkpt>
      <trkpt lat="44.75244" lon="5.68778">
        <ele>932.14</ele>
        <time>2026-08-23T07:20:49Z</time>
      </trkpt>
      <trkpt lat="44.75245" lon="5.68778">
        <ele>932.14</ele>
        <time>2026-08-23T07:21:08Z</time>
      </trkpt>
      <trkpt lat="44.75245" lon="5.68783">
        <ele>932.62</ele>
        <time>2026-08-23T07:21:14Z</time>
      </trkpt>
      <trkpt lat="44.75245" lon="5.68786">
        <ele>933.1</ele>
        <time>2026-08-23T07:21:16Z</time>
      </trkpt>
      <trkpt lat="44.7525" lon="5.68802">
        <ele>934.06</ele>
        <time>2026-08-23T07:21:29Z</time>
      </trkpt>
      <trkpt lat="44.75249" lon="5.68804">
        <ele>934.06</ele>
        <time>2026-08-23T07:21:32Z</time>
      </trkpt>
      <trkpt lat="44.7526" lon="5.68823">
        <ele>935.5</ele>
        <time>2026-08-23T07:21:47Z</time>
      </trkpt>
      <trkpt lat="44.75267" lon="5.68839">
        <ele>936.46</ele>
        <time>2026-08-23T07:22:01Z</time>
      </trkpt>
      <trkpt lat="44.75273" lon="5.68856">
        <ele>937.9</ele>
        <time>2026-08-23T07:22:16Z</time>
      </trkpt>
      <trkpt lat="44.75282" lon="5.68873">
        <ele>938.86</ele>
        <time>2026-08-23T07:22:31Z</time>
      </trkpt>
      <trkpt lat="44.75287" lon="5.68893">
        <ele>939.83</ele>
        <time>2026-08-23T07:22:47Z</time>
      </trkpt>
      <trkpt lat="44.75287" lon="5.68892">
        <ele>939.83</ele>
        <time>2026-08-23T07:23:11Z</time>
      </trkpt>
      <trkpt lat="44.75289" lon="5.68898">
        <ele>940.79</ele>
        <time>2026-08-23T07:23:32Z</time>
      </trkpt>
      <trkpt lat="44.75294" lon="5.68916">
        <ele>941.75</ele>
        <time>2026-08-23T07:23:47Z</time>
      </trkpt>
      <trkpt lat="44.75299" lon="5.68933">
        <ele>943.19</ele>
        <time>2026-08-23T07:24:03Z</time>
      </trkpt>
      <trkpt lat="44.75301" lon="5.6896">
        <ele>944.63</ele>
        <time>2026-08-23T07:24:19Z</time>
      </trkpt>
      <trkpt lat="44.75306" lon="5.68977">
        <ele>945.59</ele>
        <time>2026-08-23T07:24:35Z</time>
      </trkpt>
      <trkpt lat="44.75312" lon="5.68992">
        <ele>947.04</ele>
        <time>2026-08-23T07:24:51Z</time>
      </trkpt>
      <trkpt lat="44.75315" lon="5.69004">
        <ele>948.48</ele>
        <time>2026-08-23T07:25:07Z</time>
      </trkpt>
      <trkpt lat="44.75327" lon="5.69031">
        <ele>949.92</ele>
        <time>2026-08-23T07:25:25Z</time>
      </trkpt>
      <trkpt lat="44.75335" lon="5.69056">
        <ele>951.36</ele>
        <time>2026-08-23T07:25:44Z</time>
      </trkpt>
      <trkpt lat="44.75345" lon="5.69077">
        <ele>952.32</ele>
        <time>2026-08-23T07:25:59Z</time>
      </trkpt>
      <trkpt lat="44.75349" lon="5.69094">
        <ele>953.77</ele>
        <time>2026-08-23T07:26:13Z</time>
      </trkpt>
      <trkpt lat="44.75356" lon="5.69108">
        <ele>954.73</ele>
        <time>2026-08-23T07:26:29Z</time>
      </trkpt>
      <trkpt lat="44.75364" lon="5.69128">
        <ele>956.17</ele>
        <time>2026-08-23T07:26:44Z</time>
      </trkpt>
      <trkpt lat="44.75368" lon="5.69146">
        <ele>957.61</ele>
        <time>2026-08-23T07:27:01Z</time>
      </trkpt>
      <trkpt lat="44.75375" lon="5.69166">
        <ele>958.57</ele>
        <time>2026-08-23T07:27:18Z</time>
      </trkpt>
      <trkpt lat="44.75377" lon="5.69186">
        <ele>960.49</ele>
        <time>2026-08-23T07:27:36Z</time>
      </trkpt>
      <trkpt lat="44.75381" lon="5.69204">
        <ele>961.94</ele>
        <time>2026-08-23T07:27:53Z</time>
      </trkpt>
      <trkpt lat="44.75385" lon="5.69225">
        <ele>963.38</ele>
        <time>2026-08-23T07:28:12Z</time>
      </trkpt>
      <trkpt lat="44.75399" lon="5.69251">
        <ele>964.82</ele>
        <time>2026-08-23T07:28:30Z</time>
      </trkpt>
      <trkpt lat="44.754" lon="5.69271">
        <ele>966.26</ele>
        <time>2026-08-23T07:28:47Z</time>
      </trkpt>
      <trkpt lat="44.75393" lon="5.69289">
        <ele>967.22</ele>
        <time>2026-08-23T07:29:05Z</time>
      </trkpt>
      <trkpt lat="44.75391" lon="5.69291">
        <ele>968.18</ele>
        <time>2026-08-23T07:29:21Z</time>
      </trkpt>
      <trkpt lat="44.75391" lon="5.69291">
        <ele>968.18</ele>
        <time>2026-08-23T07:29:22Z</time>
      </trkpt>
      <trkpt lat="44.75391" lon="5.69298">
        <ele>968.67</ele>
        <time>2026-08-23T07:29:36Z</time>
      </trkpt>
      <trkpt lat="44.75395" lon="5.69311">
        <ele>969.63</ele>
        <time>2026-08-23T07:29:51Z</time>
      </trkpt>
      <trkpt lat="44.754" lon="5.69336">
        <ele>971.07</ele>
        <time>2026-08-23T07:30:08Z</time>
      </trkpt>
      <trkpt lat="44.75407" lon="5.69344">
        <ele>971.07</ele>
        <time>2026-08-23T07:30:12Z</time>
      </trkpt>
      <trkpt lat="44.75413" lon="5.69351">
        <ele>971.55</ele>
        <time>2026-08-23T07:30:15Z</time>
      </trkpt>
      <trkpt lat="44.75422" lon="5.69358">
        <ele>972.03</ele>
        <time>2026-08-23T07:30:19Z</time>
      </trkpt>
      <trkpt lat="44.75435" lon="5.69364">
        <ele>972.51</ele>
        <time>2026-08-23T07:30:27Z</time>
      </trkpt>
      <trkpt lat="44.75453" lon="5.69367">
        <ele>973.95</ele>
        <time>2026-08-23T07:30:41Z</time>
      </trkpt>
      <trkpt lat="44.75461" lon="5.69368">
        <ele>974.91</ele>
        <time>2026-08-23T07:30:47Z</time>
      </trkpt>
      <trkpt lat="44.75474" lon="5.69364">
        <ele>976.36</ele>
        <time>2026-08-23T07:31:02Z</time>
      </trkpt>
      <trkpt lat="44.7547" lon="5.69352">
        <ele>976.36</ele>
        <time>2026-08-23T07:31:24Z</time>
      </trkpt>
      <trkpt lat="44.75475" lon="5.69358">
        <ele>978.28</ele>
        <time>2026-08-23T07:31:43Z</time>
      </trkpt>
      <trkpt lat="44.75484" lon="5.69369">
        <ele>979.72</ele>
        <time>2026-08-23T07:32:01Z</time>
      </trkpt>
      <trkpt lat="44.75496" lon="5.69381">
        <ele>980.2</ele>
        <time>2026-08-23T07:32:08Z</time>
      </trkpt>
      <trkpt lat="44.75513" lon="5.69394">
        <ele>982.6</ele>
        <time>2026-08-23T07:32:28Z</time>
      </trkpt>
      <trkpt lat="44.75522" lon="5.69408">
        <ele>984.05</ele>
        <time>2026-08-23T07:32:44Z</time>
      </trkpt>
      <trkpt lat="44.75531" lon="5.6942">
        <ele>986.45</ele>
        <time>2026-08-23T07:33:02Z</time>
      </trkpt>
      <trkpt lat="44.7554" lon="5.69434">
        <ele>988.37</ele>
        <time>2026-08-23T07:33:21Z</time>
      </trkpt>
      <trkpt lat="44.75551" lon="5.69452">
        <ele>990.78</ele>
        <time>2026-08-23T07:33:41Z</time>
      </trkpt>
      <trkpt lat="44.75559" lon="5.69473">
        <ele>992.7</ele>
        <time>2026-08-23T07:33:59Z</time>
      </trkpt>
      <trkpt lat="44.7556" lon="5.69491">
        <ele>994.62</ele>
        <time>2026-08-23T07:34:17Z</time>
      </trkpt>
      <trkpt lat="44.75564" lon="5.69509">
        <ele>996.54</ele>
        <time>2026-08-23T07:34:35Z</time>
      </trkpt>
      <trkpt lat="44.75561" lon="5.69525">
        <ele>996.54</ele>
        <time>2026-08-23T07:34:49Z</time>
      </trkpt>
      <trkpt lat="44.75549" lon="5.69544">
        <ele>997.51</ele>
        <time>2026-08-23T07:35:07Z</time>
      </trkpt>
      <trkpt lat="44.7554" lon="5.69564">
        <ele>998.95</ele>
        <time>2026-08-23T07:35:24Z</time>
      </trkpt>
      <trkpt lat="44.75539" lon="5.69578">
        <ele>999.91</ele>
        <time>2026-08-23T07:35:36Z</time>
      </trkpt>
      <trkpt lat="44.7554" lon="5.69601">
        <ele>1001.83</ele>
        <time>2026-08-23T07:35:54Z</time>
      </trkpt>
      <trkpt lat="44.7554" lon="5.69603">
        <ele>1002.31</ele>
        <time>2026-08-23T07:35:56Z</time>
      </trkpt>
      <trkpt lat="44.7554" lon="5.69607">
        <ele>1002.31</ele>
        <time>2026-08-23T07:35:58Z</time>
      </trkpt>
      <trkpt lat="44.7554" lon="5.69632">
        <ele>1003.75</ele>
        <time>2026-08-23T07:36:16Z</time>
      </trkpt>
      <trkpt lat="44.75545" lon="5.69654">
        <ele>1005.68</ele>
        <time>2026-08-23T07:36:33Z</time>
      </trkpt>
      <trkpt lat="44.75544" lon="5.6968">
        <ele>1007.6</ele>
        <time>2026-08-23T07:36:52Z</time>
      </trkpt>
      <trkpt lat="44.75542" lon="5.69699">
        <ele>1010</ele>
        <time>2026-08-23T07:37:10Z</time>
      </trkpt>
      <trkpt lat="44.75546" lon="5.69721">
        <ele>1011.44</ele>
        <time>2026-08-23T07:37:28Z</time>
      </trkpt>
      <trkpt lat="44.75561" lon="5.69748">
        <ele>1012.89</ele>
        <time>2026-08-23T07:37:46Z</time>
      </trkpt>
      <trkpt lat="44.75566" lon="5.69762">
        <ele>1013.85</ele>
        <time>2026-08-23T07:37:56Z</time>
      </trkpt>
      <trkpt lat="44.75587" lon="5.6979">
        <ele>1015.77</ele>
        <time>2026-08-23T07:38:16Z</time>
      </trkpt>
      <trkpt lat="44.75601" lon="5.69802">
        <ele>1017.69</ele>
        <time>2026-08-23T07:38:32Z</time>
      </trkpt>
      <trkpt lat="44.75607" lon="5.69804">
        <ele>1018.17</ele>
        <time>2026-08-23T07:38:39Z</time>
      </trkpt>
      <trkpt lat="44.7561" lon="5.69807">
        <ele>1018.17</ele>
        <time>2026-08-23T07:38:42Z</time>
      </trkpt>
      <trkpt lat="44.75629" lon="5.69823">
        <ele>1020.1</ele>
        <time>2026-08-23T07:39:01Z</time>
      </trkpt>
      <trkpt lat="44.75642" lon="5.69832">
        <ele>1021.54</ele>
        <time>2026-08-23T07:39:17Z</time>
      </trkpt>
      <trkpt lat="44.75658" lon="5.69842">
        <ele>1023.46</ele>
        <time>2026-08-23T07:39:34Z</time>
      </trkpt>
      <trkpt lat="44.75661" lon="5.69846">
        <ele>1023.94</ele>
        <time>2026-08-23T07:39:40Z</time>
      </trkpt>
      <trkpt lat="44.7567" lon="5.69855">
        <ele>1024.9</ele>
        <time>2026-08-23T07:39:53Z</time>
      </trkpt>
      <trkpt lat="44.75674" lon="5.69855">
        <ele>1025.38</ele>
        <time>2026-08-23T07:39:57Z</time>
      </trkpt>
      <trkpt lat="44.75681" lon="5.69861">
        <ele>1026.34</ele>
        <time>2026-08-23T07:40:06Z</time>
      </trkpt>
      <trkpt lat="44.75689" lon="5.69876">
        <ele>1027.79</ele>
        <time>2026-08-23T07:40:23Z</time>
      </trkpt>
      <trkpt lat="44.75697" lon="5.69887">
        <ele>1029.23</ele>
        <time>2026-08-23T07:40:40Z</time>
      </trkpt>
      <trkpt lat="44.757" lon="5.699">
        <ele>1030.67</ele>
        <time>2026-08-23T07:40:52Z</time>
      </trkpt>
      <trkpt lat="44.75706" lon="5.69912">
        <ele>1031.63</ele>
        <time>2026-08-23T07:41:06Z</time>
      </trkpt>
      <trkpt lat="44.75713" lon="5.69933">
        <ele>1033.55</ele>
        <time>2026-08-23T07:41:25Z</time>
      </trkpt>
      <trkpt lat="44.7572" lon="5.69953">
        <ele>1034.52</ele>
        <time>2026-08-23T07:41:40Z</time>
      </trkpt>
      <trkpt lat="44.75722" lon="5.69962">
        <ele>1035.48</ele>
        <time>2026-08-23T07:41:47Z</time>
      </trkpt>
      <trkpt lat="44.75727" lon="5.69978">
        <ele>1036.92</ele>
        <time>2026-08-23T07:42:01Z</time>
      </trkpt>
      <trkpt lat="44.7573" lon="5.69994">
        <ele>1037.88</ele>
        <time>2026-08-23T07:42:14Z</time>
      </trkpt>
      <trkpt lat="44.75734" lon="5.70012">
        <ele>1039.8</ele>
        <time>2026-08-23T07:42:31Z</time>
      </trkpt>
      <trkpt lat="44.75738" lon="5.7003">
        <ele>1041.25</ele>
        <time>2026-08-23T07:42:48Z</time>
      </trkpt>
      <trkpt lat="44.75739" lon="5.70046">
        <ele>1042.69</ele>
        <time>2026-08-23T07:43:03Z</time>
      </trkpt>
      <trkpt lat="44.75737" lon="5.70064">
        <ele>1044.61</ele>
        <time>2026-08-23T07:43:18Z</time>
      </trkpt>
      <trkpt lat="44.75736" lon="5.70079">
        <ele>1046.05</ele>
        <time>2026-08-23T07:43:32Z</time>
      </trkpt>
      <trkpt lat="44.75735" lon="5.70081">
        <ele>1046.05</ele>
        <time>2026-08-23T07:43:34Z</time>
      </trkpt>
      <trkpt lat="44.75734" lon="5.70091">
        <ele>1047.01</ele>
        <time>2026-08-23T07:43:45Z</time>
      </trkpt>
      <trkpt lat="44.75728" lon="5.701">
        <ele>1047.97</ele>
        <time>2026-08-23T07:43:55Z</time>
      </trkpt>
      <trkpt lat="44.75722" lon="5.70107">
        <ele>1048.94</ele>
        <time>2026-08-23T07:44:04Z</time>
      </trkpt>
      <trkpt lat="44.75713" lon="5.70119">
        <ele>1049.9</ele>
        <time>2026-08-23T07:44:17Z</time>
      </trkpt>
      <trkpt lat="44.75703" lon="5.70133">
        <ele>1051.34</ele>
        <time>2026-08-23T07:44:33Z</time>
      </trkpt>
      <trkpt lat="44.75694" lon="5.70147">
        <ele>1053.26</ele>
        <time>2026-08-23T07:44:50Z</time>
      </trkpt>
      <trkpt lat="44.75687" lon="5.70163">
        <ele>1054.22</ele>
        <time>2026-08-23T07:45:05Z</time>
      </trkpt>
      <trkpt lat="44.75677" lon="5.70179">
        <ele>1056.15</ele>
        <time>2026-08-23T07:45:22Z</time>
      </trkpt>
      <trkpt lat="44.75669" lon="5.70199">
        <ele>1058.07</ele>
        <time>2026-08-23T07:45:40Z</time>
      </trkpt>
      <trkpt lat="44.75659" lon="5.70215">
        <ele>1059.51</ele>
        <time>2026-08-23T07:45:56Z</time>
      </trkpt>
      <trkpt lat="44.75657" lon="5.7022">
        <ele>1059.99</ele>
        <time>2026-08-23T07:46:01Z</time>
      </trkpt>
      <trkpt lat="44.75642" lon="5.70236">
        <ele>1061.91</ele>
        <time>2026-08-23T07:46:18Z</time>
      </trkpt>
      <trkpt lat="44.75634" lon="5.70254">
        <ele>1063.84</ele>
        <time>2026-08-23T07:46:34Z</time>
      </trkpt>
      <trkpt lat="44.75628" lon="5.70275">
        <ele>1065.76</ele>
        <time>2026-08-23T07:46:53Z</time>
      </trkpt>
      <trkpt lat="44.75626" lon="5.70278">
        <ele>1066.24</ele>
        <time>2026-08-23T07:46:57Z</time>
      </trkpt>
      <trkpt lat="44.75617" lon="5.70297">
        <ele>1068.16</ele>
        <time>2026-08-23T07:47:15Z</time>
      </trkpt>
      <trkpt lat="44.75615" lon="5.70304">
        <ele>1069.12</ele>
        <time>2026-08-23T07:47:21Z</time>
      </trkpt>
      <trkpt lat="44.75606" lon="5.70322">
        <ele>1071.05</ele>
        <time>2026-08-23T07:47:37Z</time>
      </trkpt>
      <trkpt lat="44.75597" lon="5.70335">
        <ele>1072.49</ele>
        <time>2026-08-23T07:47:52Z</time>
      </trkpt>
      <trkpt lat="44.75586" lon="5.70347">
        <ele>1074.41</ele>
        <time>2026-08-23T07:48:09Z</time>
      </trkpt>
      <trkpt lat="44.7558" lon="5.70369">
        <ele>1075.85</ele>
        <time>2026-08-23T07:48:26Z</time>
      </trkpt>
      <trkpt lat="44.75568" lon="5.70382">
        <ele>1077.78</ele>
        <time>2026-08-23T07:48:44Z</time>
      </trkpt>
      <trkpt lat="44.75552" lon="5.70393">
        <ele>1078.74</ele>
        <time>2026-08-23T07:49:00Z</time>
      </trkpt>
      <trkpt lat="44.75551" lon="5.70395">
        <ele>1079.22</ele>
        <time>2026-08-23T07:49:02Z</time>
      </trkpt>
      <trkpt lat="44.75542" lon="5.70412">
        <ele>1080.66</ele>
        <time>2026-08-23T07:49:16Z</time>
      </trkpt>
      <trkpt lat="44.75539" lon="5.70433">
        <ele>1082.58</ele>
        <time>2026-08-23T07:49:34Z</time>
      </trkpt>
      <trkpt lat="44.75525" lon="5.70449">
        <ele>1084.5</ele>
        <time>2026-08-23T07:49:51Z</time>
      </trkpt>
      <trkpt lat="44.75515" lon="5.70465">
        <ele>1086.43</ele>
        <time>2026-08-23T07:50:07Z</time>
      </trkpt>
      <trkpt lat="44.75515" lon="5.70473">
        <ele>1086.91</ele>
        <time>2026-08-23T07:50:13Z</time>
      </trkpt>
      <trkpt lat="44.75512" lon="5.70499">
        <ele>1088.35</ele>
        <time>2026-08-23T07:50:31Z</time>
      </trkpt>
      <trkpt lat="44.75512" lon="5.70502">
        <ele>1088.83</ele>
        <time>2026-08-23T07:50:33Z</time>
      </trkpt>
      <trkpt lat="44.75512" lon="5.70525">
        <ele>1090.27</ele>
        <time>2026-08-23T07:50:49Z</time>
      </trkpt>
      <trkpt lat="44.75508" lon="5.70546">
        <ele>1091.23</ele>
        <time>2026-08-23T07:51:08Z</time>
      </trkpt>
      <trkpt lat="44.75506" lon="5.70567">
        <ele>1092.68</ele>
        <time>2026-08-23T07:51:26Z</time>
      </trkpt>
      <trkpt lat="44.75497" lon="5.70587">
        <ele>1094.12</ele>
        <time>2026-08-23T07:51:42Z</time>
      </trkpt>
      <trkpt lat="44.75499" lon="5.70603">
        <ele>1094.6</ele>
        <time>2026-08-23T07:52:00Z</time>
      </trkpt>
      <trkpt lat="44.755" lon="5.70606">
        <ele>1095.08</ele>
        <time>2026-08-23T07:52:03Z</time>
      </trkpt>
      <trkpt lat="44.75514" lon="5.7062">
        <ele>1097</ele>
        <time>2026-08-23T07:52:19Z</time>
      </trkpt>
      <trkpt lat="44.75542" lon="5.70629">
        <ele>1098.44</ele>
        <time>2026-08-23T07:52:34Z</time>
      </trkpt>
      <trkpt lat="44.75548" lon="5.70637">
        <ele>1100.37</ele>
        <time>2026-08-23T07:52:51Z</time>
      </trkpt>
      <trkpt lat="44.7556" lon="5.70647">
        <ele>1100.37</ele>
        <time>2026-08-23T07:53:06Z</time>
      </trkpt>
      <trkpt lat="44.75554" lon="5.70639">
        <ele>1100.37</ele>
        <time>2026-08-23T07:53:33Z</time>
      </trkpt>
      <trkpt lat="44.75556" lon="5.70638">
        <ele>1099.89</ele>
        <time>2026-08-23T07:53:49Z</time>
      </trkpt>
      <trkpt lat="44.75566" lon="5.70635">
        <ele>1099.89</ele>
        <time>2026-08-23T07:54:15Z</time>
      </trkpt>
      <trkpt lat="44.75566" lon="5.70633">
        <ele>1100.37</ele>
        <time>2026-08-23T07:54:42Z</time>
      </trkpt>
      <trkpt lat="44.75566" lon="5.7063">
        <ele>1100.85</ele>
        <time>2026-08-23T07:55:13Z</time>
      </trkpt>
      <trkpt lat="44.75566" lon="5.7063">
        <ele>1100.85</ele>
        <time>2026-08-23T07:55:45Z</time>
      </trkpt>
      <trkpt lat="44.75566" lon="5.70631">
        <ele>1101.81</ele>
        <time>2026-08-23T07:56:03Z</time>
      </trkpt>
      <trkpt lat="44.75564" lon="5.7063">
        <ele>1100.85</ele>
        <time>2026-08-23T07:56:10Z</time>
      </trkpt>
      <trkpt lat="44.75558" lon="5.70627">
        <ele>1102.29</ele>
        <time>2026-08-23T07:56:17Z</time>
      </trkpt>
      <trkpt lat="44.75548" lon="5.70622">
        <ele>1100.37</ele>
        <time>2026-08-23T07:56:26Z</time>
      </trkpt>
      <trkpt lat="44.75536" lon="5.70617">
        <ele>1098.92</ele>
        <time>2026-08-23T07:56:41Z</time>
      </trkpt>
      <trkpt lat="44.75528" lon="5.70606">
        <ele>1097</ele>
        <time>2026-08-23T07:56:56Z</time>
      </trkpt>
      <trkpt lat="44.75527" lon="5.70605">
        <ele>1096.52</ele>
        <time>2026-08-23T07:56:58Z</time>
      </trkpt>
      <trkpt lat="44.75523" lon="5.706">
        <ele>1096.52</ele>
        <time>2026-08-23T07:57:06Z</time>
      </trkpt>
      <trkpt lat="44.7552" lon="5.70594">
        <ele>1096.04</ele>
        <time>2026-08-23T07:57:11Z</time>
      </trkpt>
      <trkpt lat="44.75525" lon="5.7059">
        <ele>1095.08</ele>
        <time>2026-08-23T07:57:22Z</time>
      </trkpt>
      <trkpt lat="44.75523" lon="5.70586">
        <ele>1094.6</ele>
        <time>2026-08-23T07:57:24Z</time>
      </trkpt>
      <trkpt lat="44.75523" lon="5.70579">
        <ele>1094.6</ele>
        <time>2026-08-23T07:57:28Z</time>
      </trkpt>
      <trkpt lat="44.75523" lon="5.70555">
        <ele>1092.68</ele>
        <time>2026-08-23T07:57:45Z</time>
      </trkpt>
      <trkpt lat="44.75517" lon="5.70545">
        <ele>1092.68</ele>
        <time>2026-08-23T07:58:04Z</time>
      </trkpt>
      <trkpt lat="44.75519" lon="5.70553">
        <ele>1091.71</ele>
        <time>2026-08-23T07:58:23Z</time>
      </trkpt>
      <trkpt lat="44.7552" lon="5.70555">
        <ele>1090.75</ele>
        <time>2026-08-23T07:58:46Z</time>
      </trkpt>
      <trkpt lat="44.75518" lon="5.7056">
        <ele>1087.87</ele>
        <time>2026-08-23T07:59:00Z</time>
      </trkpt>
      <trkpt lat="44.75523" lon="5.7057">
        <ele>1084.5</ele>
        <time>2026-08-23T07:59:13Z</time>
      </trkpt>
      <trkpt lat="44.75544" lon="5.7058">
        <ele>1081.62</ele>
        <time>2026-08-23T07:59:29Z</time>
      </trkpt>
      <trkpt lat="44.75568" lon="5.70579">
        <ele>1080.18</ele>
        <time>2026-08-23T07:59:49Z</time>
      </trkpt>
      <trkpt lat="44.75584" lon="5.70574">
        <ele>1077.29</ele>
        <time>2026-08-23T08:00:06Z</time>
      </trkpt>
      <trkpt lat="44.75605" lon="5.70569">
        <ele>1075.37</ele>
        <time>2026-08-23T08:00:24Z</time>
      </trkpt>
      <trkpt lat="44.75615" lon="5.70574">
        <ele>1072.49</ele>
        <time>2026-08-23T08:00:44Z</time>
      </trkpt>
      <trkpt lat="44.75619" lon="5.70575">
        <ele>1069.6</ele>
        <time>2026-08-23T08:01:00Z</time>
      </trkpt>
      <trkpt lat="44.75631" lon="5.70577">
        <ele>1066.72</ele>
        <time>2026-08-23T08:01:19Z</time>
      </trkpt>
      <trkpt lat="44.75642" lon="5.70573">
        <ele>1063.84</ele>
        <time>2026-08-23T08:01:39Z</time>
      </trkpt>
      <trkpt lat="44.7565" lon="5.70576">
        <ele>1060.95</ele>
        <time>2026-08-23T08:01:58Z</time>
      </trkpt>
      <trkpt lat="44.75664" lon="5.70578">
        <ele>1058.07</ele>
        <time>2026-08-23T08:02:16Z</time>
      </trkpt>
      <trkpt lat="44.75674" lon="5.7057">
        <ele>1055.67</ele>
        <time>2026-08-23T08:02:32Z</time>
      </trkpt>
      <trkpt lat="44.75678" lon="5.70566">
        <ele>1053.74</ele>
        <time>2026-08-23T08:02:49Z</time>
      </trkpt>
      <trkpt lat="44.75689" lon="5.70567">
        <ele>1050.38</ele>
        <time>2026-08-23T08:03:08Z</time>
      </trkpt>
      <trkpt lat="44.75697" lon="5.70559">
        <ele>1047.49</ele>
        <time>2026-08-23T08:03:27Z</time>
      </trkpt>
      <trkpt lat="44.75709" lon="5.70555">
        <ele>1044.61</ele>
        <time>2026-08-23T08:03:45Z</time>
      </trkpt>
      <trkpt lat="44.75714" lon="5.70546">
        <ele>1041.73</ele>
        <time>2026-08-23T08:04:03Z</time>
      </trkpt>
      <trkpt lat="44.75725" lon="5.70541">
        <ele>1038.36</ele>
        <time>2026-08-23T08:04:21Z</time>
      </trkpt>
      <trkpt lat="44.75739" lon="5.70532">
        <ele>1035.48</ele>
        <time>2026-08-23T08:04:40Z</time>
      </trkpt>
      <trkpt lat="44.75757" lon="5.70523">
        <ele>1032.11</ele>
        <time>2026-08-23T08:04:58Z</time>
      </trkpt>
      <trkpt lat="44.75772" lon="5.70517">
        <ele>1029.23</ele>
        <time>2026-08-23T08:05:15Z</time>
      </trkpt>
      <trkpt lat="44.75781" lon="5.70509">
        <ele>1026.83</ele>
        <time>2026-08-23T08:05:29Z</time>
      </trkpt>
      <trkpt lat="44.75789" lon="5.70495">
        <ele>1024.42</ele>
        <time>2026-08-23T08:05:45Z</time>
      </trkpt>
      <trkpt lat="44.75797" lon="5.70489">
        <ele>1022.98</ele>
        <time>2026-08-23T08:06:03Z</time>
      </trkpt>
      <trkpt lat="44.7581" lon="5.7048">
        <ele>1021.06</ele>
        <time>2026-08-23T08:06:18Z</time>
      </trkpt>
      <trkpt lat="44.75816" lon="5.70469">
        <ele>1018.65</ele>
        <time>2026-08-23T08:06:32Z</time>
      </trkpt>
      <trkpt lat="44.75822" lon="5.70461">
        <ele>1016.73</ele>
        <time>2026-08-23T08:06:41Z</time>
      </trkpt>
      <trkpt lat="44.75839" lon="5.70451">
        <ele>1014.33</ele>
        <time>2026-08-23T08:07:00Z</time>
      </trkpt>
      <trkpt lat="44.75851" lon="5.70434">
        <ele>1011.93</ele>
        <time>2026-08-23T08:07:16Z</time>
      </trkpt>
      <trkpt lat="44.75866" lon="5.7043">
        <ele>1009.52</ele>
        <time>2026-08-23T08:07:32Z</time>
      </trkpt>
      <trkpt lat="44.75886" lon="5.70429">
        <ele>1007.6</ele>
        <time>2026-08-23T08:07:50Z</time>
      </trkpt>
      <trkpt lat="44.75898" lon="5.70433">
        <ele>1004.72</ele>
        <time>2026-08-23T08:08:06Z</time>
      </trkpt>
      <trkpt lat="44.75906" lon="5.70433">
        <ele>1001.83</ele>
        <time>2026-08-23T08:08:24Z</time>
      </trkpt>
      <trkpt lat="44.75921" lon="5.7042">
        <ele>998.47</ele>
        <time>2026-08-23T08:08:40Z</time>
      </trkpt>
      <trkpt lat="44.75931" lon="5.7042">
        <ele>995.58</ele>
        <time>2026-08-23T08:08:58Z</time>
      </trkpt>
      <trkpt lat="44.75935" lon="5.70418">
        <ele>992.22</ele>
        <time>2026-08-23T08:09:17Z</time>
      </trkpt>
      <trkpt lat="44.7594" lon="5.70415">
        <ele>989.81</ele>
        <time>2026-08-23T08:09:34Z</time>
      </trkpt>
      <trkpt lat="44.75947" lon="5.70409">
        <ele>986.93</ele>
        <time>2026-08-23T08:09:51Z</time>
      </trkpt>
      <trkpt lat="44.75967" lon="5.704">
        <ele>984.05</ele>
        <time>2026-08-23T08:10:08Z</time>
      </trkpt>
      <trkpt lat="44.75975" lon="5.70391">
        <ele>982.12</ele>
        <time>2026-08-23T08:10:24Z</time>
      </trkpt>
      <trkpt lat="44.75976" lon="5.70383">
        <ele>980.2</ele>
        <time>2026-08-23T08:10:39Z</time>
      </trkpt>
      <trkpt lat="44.7598" lon="5.70368">
        <ele>977.32</ele>
        <time>2026-08-23T08:10:55Z</time>
      </trkpt>
      <trkpt lat="44.75982" lon="5.70357">
        <ele>974.43</ele>
        <time>2026-08-23T08:11:11Z</time>
      </trkpt>
      <trkpt lat="44.75987" lon="5.70338">
        <ele>971.55</ele>
        <time>2026-08-23T08:11:29Z</time>
      </trkpt>
      <trkpt lat="44.75984" lon="5.70323">
        <ele>969.15</ele>
        <time>2026-08-23T08:11:44Z</time>
      </trkpt>
      <trkpt lat="44.75988" lon="5.70312">
        <ele>966.74</ele>
        <time>2026-08-23T08:12:00Z</time>
      </trkpt>
      <trkpt lat="44.75992" lon="5.70297">
        <ele>964.34</ele>
        <time>2026-08-23T08:12:15Z</time>
      </trkpt>
      <trkpt lat="44.75993" lon="5.70285">
        <ele>961.46</ele>
        <time>2026-08-23T08:12:29Z</time>
      </trkpt>
      <trkpt lat="44.75994" lon="5.70272">
        <ele>958.09</ele>
        <time>2026-08-23T08:12:45Z</time>
      </trkpt>
      <trkpt lat="44.76002" lon="5.70259">
        <ele>955.21</ele>
        <time>2026-08-23T08:13:02Z</time>
      </trkpt>
      <trkpt lat="44.76012" lon="5.7025">
        <ele>953.28</ele>
        <time>2026-08-23T08:13:16Z</time>
      </trkpt>
      <trkpt lat="44.76026" lon="5.70256">
        <ele>951.84</ele>
        <time>2026-08-23T08:13:30Z</time>
      </trkpt>
      <trkpt lat="44.7603" lon="5.70259">
        <ele>951.36</ele>
        <time>2026-08-23T08:13:38Z</time>
      </trkpt>
      <trkpt lat="44.76035" lon="5.70267">
        <ele>948.96</ele>
        <time>2026-08-23T08:13:53Z</time>
      </trkpt>
      <trkpt lat="44.7605" lon="5.70276">
        <ele>946.07</ele>
        <time>2026-08-23T08:14:10Z</time>
      </trkpt>
      <trkpt lat="44.76064" lon="5.70273">
        <ele>943.67</ele>
        <time>2026-08-23T08:14:25Z</time>
      </trkpt>
      <trkpt lat="44.76081" lon="5.70269">
        <ele>940.31</ele>
        <time>2026-08-23T08:14:42Z</time>
      </trkpt>
      <trkpt lat="44.76092" lon="5.70259">
        <ele>937.9</ele>
        <time>2026-08-23T08:14:58Z</time>
      </trkpt>
      <trkpt lat="44.76108" lon="5.70255">
        <ele>934.54</ele>
        <time>2026-08-23T08:15:15Z</time>
      </trkpt>
      <trkpt lat="44.76123" lon="5.70241">
        <ele>931.65</ele>
        <time>2026-08-23T08:15:33Z</time>
      </trkpt>
      <trkpt lat="44.76133" lon="5.70236">
        <ele>929.25</ele>
        <time>2026-08-23T08:15:47Z</time>
      </trkpt>
      <trkpt lat="44.76147" lon="5.70232">
        <ele>926.37</ele>
        <time>2026-08-23T08:16:04Z</time>
      </trkpt>
      <trkpt lat="44.76158" lon="5.70227">
        <ele>923.48</ele>
        <time>2026-08-23T08:16:21Z</time>
      </trkpt>
      <trkpt lat="44.76175" lon="5.70222">
        <ele>920.6</ele>
        <time>2026-08-23T08:16:39Z</time>
      </trkpt>
      <trkpt lat="44.76195" lon="5.70228">
        <ele>918.2</ele>
        <time>2026-08-23T08:16:54Z</time>
      </trkpt>
      <trkpt lat="44.76215" lon="5.70226">
        <ele>915.31</ele>
        <time>2026-08-23T08:17:12Z</time>
      </trkpt>
      <trkpt lat="44.76231" lon="5.70225">
        <ele>912.91</ele>
        <time>2026-08-23T08:17:28Z</time>
      </trkpt>
      <trkpt lat="44.76245" lon="5.70225">
        <ele>910.51</ele>
        <time>2026-08-23T08:17:44Z</time>
      </trkpt>
      <trkpt lat="44.76263" lon="5.70236">
        <ele>908.58</ele>
        <time>2026-08-23T08:18:00Z</time>
      </trkpt>
      <trkpt lat="44.76272" lon="5.7024">
        <ele>907.62</ele>
        <time>2026-08-23T08:18:08Z</time>
      </trkpt>
      <trkpt lat="44.76285" lon="5.70244">
        <ele>905.22</ele>
        <time>2026-08-23T08:18:21Z</time>
      </trkpt>
      <trkpt lat="44.76292" lon="5.70245">
        <ele>904.26</ele>
        <time>2026-08-23T08:18:28Z</time>
      </trkpt>
      <trkpt lat="44.76308" lon="5.70243">
        <ele>902.33</ele>
        <time>2026-08-23T08:18:44Z</time>
      </trkpt>
      <trkpt lat="44.76319" lon="5.70241">
        <ele>899.93</ele>
        <time>2026-08-23T08:18:57Z</time>
      </trkpt>
      <trkpt lat="44.76339" lon="5.70238">
        <ele>897.05</ele>
        <time>2026-08-23T08:19:15Z</time>
      </trkpt>
      <trkpt lat="44.76356" lon="5.70239">
        <ele>894.64</ele>
        <time>2026-08-23T08:19:30Z</time>
      </trkpt>
      <trkpt lat="44.76374" lon="5.70237">
        <ele>891.76</ele>
        <time>2026-08-23T08:19:49Z</time>
      </trkpt>
      <trkpt lat="44.76387" lon="5.70242">
        <ele>890.32</ele>
        <time>2026-08-23T08:20:01Z</time>
      </trkpt>
      <trkpt lat="44.76395" lon="5.70244">
        <ele>889.36</ele>
        <time>2026-08-23T08:20:08Z</time>
      </trkpt>
      <trkpt lat="44.76402" lon="5.70243">
        <ele>888.4</ele>
        <time>2026-08-23T08:20:24Z</time>
      </trkpt>
      <trkpt lat="44.76406" lon="5.70247">
        <ele>887.91</ele>
        <time>2026-08-23T08:20:45Z</time>
      </trkpt>
      <trkpt lat="44.76408" lon="5.70248">
        <ele>887.43</ele>
        <time>2026-08-23T08:20:47Z</time>
      </trkpt>
      <trkpt lat="44.76414" lon="5.7025">
        <ele>886.47</ele>
        <time>2026-08-23T08:20:53Z</time>
      </trkpt>
      <trkpt lat="44.76428" lon="5.70255">
        <ele>885.03</ele>
        <time>2026-08-23T08:21:08Z</time>
      </trkpt>
      <trkpt lat="44.76429" lon="5.70255">
        <ele>885.03</ele>
        <time>2026-08-23T08:21:09Z</time>
      </trkpt>
      <trkpt lat="44.76445" lon="5.70272">
        <ele>883.11</ele>
        <time>2026-08-23T08:21:28Z</time>
      </trkpt>
      <trkpt lat="44.7645" lon="5.70278">
        <ele>882.63</ele>
        <time>2026-08-23T08:21:33Z</time>
      </trkpt>
      <trkpt lat="44.76467" lon="5.70293">
        <ele>880.22</ele>
        <time>2026-08-23T08:21:51Z</time>
      </trkpt>
      <trkpt lat="44.76486" lon="5.70307">
        <ele>877.82</ele>
        <time>2026-08-23T08:22:09Z</time>
      </trkpt>
      <trkpt lat="44.76498" lon="5.70317">
        <ele>875.9</ele>
        <time>2026-08-23T08:22:23Z</time>
      </trkpt>
      <trkpt lat="44.76508" lon="5.70324">
        <ele>874.94</ele>
        <time>2026-08-23T08:22:33Z</time>
      </trkpt>
      <trkpt lat="44.76516" lon="5.70332">
        <ele>873.5</ele>
        <time>2026-08-23T08:22:41Z</time>
      </trkpt>
      <trkpt lat="44.76519" lon="5.70334">
        <ele>873.5</ele>
        <time>2026-08-23T08:22:44Z</time>
      </trkpt>
      <trkpt lat="44.7653" lon="5.70341">
        <ele>872.05</ele>
        <time>2026-08-23T08:22:56Z</time>
      </trkpt>
      <trkpt lat="44.76535" lon="5.70342">
        <ele>871.09</ele>
        <time>2026-08-23T08:23:03Z</time>
      </trkpt>
      <trkpt lat="44.76551" lon="5.70345">
        <ele>868.69</ele>
        <time>2026-08-23T08:23:18Z</time>
      </trkpt>
      <trkpt lat="44.76561" lon="5.70347">
        <ele>866.77</ele>
        <time>2026-08-23T08:23:28Z</time>
      </trkpt>
      <trkpt lat="44.76575" lon="5.70355">
        <ele>863.88</ele>
        <time>2026-08-23T08:23:44Z</time>
      </trkpt>
      <trkpt lat="44.76589" lon="5.70361">
        <ele>861.96</ele>
        <time>2026-08-23T08:24:00Z</time>
      </trkpt>
      <trkpt lat="44.76597" lon="5.70366">
        <ele>860.04</ele>
        <time>2026-08-23T08:24:15Z</time>
      </trkpt>
      <trkpt lat="44.76597" lon="5.70366">
        <ele>859.56</ele>
        <time>2026-08-23T08:24:49Z</time>
      </trkpt>
      <trkpt lat="44.76597" lon="5.70367">
        <ele>859.56</ele>
        <time>2026-08-23T08:25:18Z</time>
      </trkpt>
      <trkpt lat="44.76596" lon="5.70367">
        <ele>859.08</ele>
        <time>2026-08-23T08:25:52Z</time>
      </trkpt>
      <trkpt lat="44.76598" lon="5.70366">
        <ele>860.04</ele>
        <time>2026-08-23T08:26:11Z</time>
      </trkpt>
      <trkpt lat="44.76609" lon="5.7037">
        <ele>858.11</ele>
        <time>2026-08-23T08:26:26Z</time>
      </trkpt>
      <trkpt lat="44.76623" lon="5.70375">
        <ele>856.19</ele>
        <time>2026-08-23T08:26:40Z</time>
      </trkpt>
      <trkpt lat="44.76631" lon="5.70379">
        <ele>854.75</ele>
        <time>2026-08-23T08:26:48Z</time>
      </trkpt>
      <trkpt lat="44.76649" lon="5.70389">
        <ele>852.35</ele>
        <time>2026-08-23T08:27:06Z</time>
      </trkpt>
      <trkpt lat="44.76665" lon="5.70402">
        <ele>850.42</ele>
        <time>2026-08-23T08:27:22Z</time>
      </trkpt>
      <trkpt lat="44.76679" lon="5.70403">
        <ele>848.5</ele>
        <time>2026-08-23T08:27:36Z</time>
      </trkpt>
      <trkpt lat="44.7668" lon="5.70408">
        <ele>848.5</ele>
        <time>2026-08-23T08:27:53Z</time>
      </trkpt>
      <trkpt lat="44.76686" lon="5.70416">
        <ele>847.54</ele>
        <time>2026-08-23T08:28:01Z</time>
      </trkpt>
      <trkpt lat="44.76702" lon="5.70431">
        <ele>845.14</ele>
        <time>2026-08-23T08:28:20Z</time>
      </trkpt>
      <trkpt lat="44.76718" lon="5.70446">
        <ele>842.25</ele>
        <time>2026-08-23T08:28:38Z</time>
      </trkpt>
      <trkpt lat="44.76731" lon="5.70458">
        <ele>840.33</ele>
        <time>2026-08-23T08:28:53Z</time>
      </trkpt>
      <trkpt lat="44.76736" lon="5.70465">
        <ele>839.85</ele>
        <time>2026-08-23T08:28:59Z</time>
      </trkpt>
      <trkpt lat="44.76745" lon="5.70472">
        <ele>837.93</ele>
        <time>2026-08-23T08:29:09Z</time>
      </trkpt>
      <trkpt lat="44.7676" lon="5.70481">
        <ele>835.52</ele>
        <time>2026-08-23T08:29:25Z</time>
      </trkpt>
      <trkpt lat="44.76776" lon="5.70483">
        <ele>833.12</ele>
        <time>2026-08-23T08:29:41Z</time>
      </trkpt>
      <trkpt lat="44.76797" lon="5.70481">
        <ele>830.72</ele>
        <time>2026-08-23T08:29:59Z</time>
      </trkpt>
      <trkpt lat="44.76815" lon="5.70477">
        <ele>828.31</ele>
        <time>2026-08-23T08:30:16Z</time>
      </trkpt>
      <trkpt lat="44.76817" lon="5.70477">
        <ele>828.31</ele>
        <time>2026-08-23T08:30:18Z</time>
      </trkpt>
      <trkpt lat="44.76833" lon="5.70479">
        <ele>825.91</ele>
        <time>2026-08-23T08:30:34Z</time>
      </trkpt>
      <trkpt lat="44.7685" lon="5.70483">
        <ele>823.99</ele>
        <time>2026-08-23T08:30:50Z</time>
      </trkpt>
      <trkpt lat="44.7687" lon="5.70483">
        <ele>822.06</ele>
        <time>2026-08-23T08:31:06Z</time>
      </trkpt>
      <trkpt lat="44.76886" lon="5.70482">
        <ele>820.14</ele>
        <time>2026-08-23T08:31:21Z</time>
      </trkpt>
      <trkpt lat="44.769" lon="5.70481">
        <ele>818.7</ele>
        <time>2026-08-23T08:31:35Z</time>
      </trkpt>
      <trkpt lat="44.7692" lon="5.70486">
        <ele>816.78</ele>
        <time>2026-08-23T08:31:56Z</time>
      </trkpt>
      <trkpt lat="44.76926" lon="5.70495">
        <ele>815.82</ele>
        <time>2026-08-23T08:32:07Z</time>
      </trkpt>
      <trkpt lat="44.76923" lon="5.70501">
        <ele>815.82</ele>
        <time>2026-08-23T08:32:13Z</time>
      </trkpt>
      <trkpt lat="44.76915" lon="5.70525">
        <ele>815.82</ele>
        <time>2026-08-23T08:32:32Z</time>
      </trkpt>
      <trkpt lat="44.76904" lon="5.70548">
        <ele>816.3</ele>
        <time>2026-08-23T08:32:50Z</time>
      </trkpt>
      <trkpt lat="44.76898" lon="5.70558">
        <ele>816.78</ele>
        <time>2026-08-23T08:33:00Z</time>
      </trkpt>
      <trkpt lat="44.76888" lon="5.70582">
        <ele>817.26</ele>
        <time>2026-08-23T08:33:15Z</time>
      </trkpt>
      <trkpt lat="44.76878" lon="5.70607">
        <ele>817.26</ele>
        <time>2026-08-23T08:33:33Z</time>
      </trkpt>
      <trkpt lat="44.76871" lon="5.70625">
        <ele>817.26</ele>
        <time>2026-08-23T08:33:49Z</time>
      </trkpt>
      <trkpt lat="44.76869" lon="5.7063">
        <ele>817.74</ele>
        <time>2026-08-23T08:34:07Z</time>
      </trkpt>
      <trkpt lat="44.76863" lon="5.70646">
        <ele>817.74</ele>
        <time>2026-08-23T08:34:24Z</time>
      </trkpt>
      <trkpt lat="44.76854" lon="5.70667">
        <ele>818.22</ele>
        <time>2026-08-23T08:34:40Z</time>
      </trkpt>
      <trkpt lat="44.76844" lon="5.7069">
        <ele>818.7</ele>
        <time>2026-08-23T08:34:58Z</time>
      </trkpt>
      <trkpt lat="44.7684" lon="5.70701">
        <ele>819.18</ele>
        <time>2026-08-23T08:35:06Z</time>
      </trkpt>
      <trkpt lat="44.76833" lon="5.70718">
        <ele>819.66</ele>
        <time>2026-08-23T08:35:21Z</time>
      </trkpt>
      <trkpt lat="44.76825" lon="5.70748">
        <ele>820.14</ele>
        <time>2026-08-23T08:35:42Z</time>
      </trkpt>
      <trkpt lat="44.76824" lon="5.7075">
        <ele>820.14</ele>
        <time>2026-08-23T08:35:43Z</time>
      </trkpt>
      <trkpt lat="44.76821" lon="5.70773">
        <ele>820.62</ele>
        <time>2026-08-23T08:35:58Z</time>
      </trkpt>
      <trkpt lat="44.76818" lon="5.70784">
        <ele>821.58</ele>
        <time>2026-08-23T08:36:10Z</time>
      </trkpt>
      <trkpt lat="44.76812" lon="5.70796">
        <ele>822.55</ele>
        <time>2026-08-23T08:36:21Z</time>
      </trkpt>
      <trkpt lat="44.76806" lon="5.70809">
        <ele>823.03</ele>
        <time>2026-08-23T08:36:32Z</time>
      </trkpt>
      <trkpt lat="44.76794" lon="5.70829">
        <ele>823.51</ele>
        <time>2026-08-23T08:36:50Z</time>
      </trkpt>
      <trkpt lat="44.76788" lon="5.70851">
        <ele>823.03</ele>
        <time>2026-08-23T08:37:07Z</time>
      </trkpt>
      <trkpt lat="44.76782" lon="5.70882">
        <ele>822.06</ele>
        <time>2026-08-23T08:37:27Z</time>
      </trkpt>
      <trkpt lat="44.76779" lon="5.70901">
        <ele>821.58</ele>
        <time>2026-08-23T08:37:39Z</time>
      </trkpt>
      <trkpt lat="44.7678" lon="5.70912">
        <ele>821.1</ele>
        <time>2026-08-23T08:37:44Z</time>
      </trkpt>
      <trkpt lat="44.76784" lon="5.70937">
        <ele>819.18</ele>
        <time>2026-08-23T08:38:01Z</time>
      </trkpt>
      <trkpt lat="44.76785" lon="5.70964">
        <ele>818.22</ele>
        <time>2026-08-23T08:38:18Z</time>
      </trkpt>
      <trkpt lat="44.76781" lon="5.70991">
        <ele>817.74</ele>
        <time>2026-08-23T08:38:34Z</time>
      </trkpt>
      <trkpt lat="44.7678" lon="5.71018">
        <ele>817.26</ele>
        <time>2026-08-23T08:38:50Z</time>
      </trkpt>
      <trkpt lat="44.7678" lon="5.71041">
        <ele>817.74</ele>
        <time>2026-08-23T08:39:05Z</time>
      </trkpt>
      <trkpt lat="44.76779" lon="5.71068">
        <ele>817.74</ele>
        <time>2026-08-23T08:39:23Z</time>
      </trkpt>
      <trkpt lat="44.76776" lon="5.71094">
        <ele>817.74</ele>
        <time>2026-08-23T08:39:38Z</time>
      </trkpt>
      <trkpt lat="44.76774" lon="5.71102">
        <ele>817.26</ele>
        <time>2026-08-23T08:39:46Z</time>
      </trkpt>
      <trkpt lat="44.76766" lon="5.71131">
        <ele>816.3</ele>
        <time>2026-08-23T08:40:05Z</time>
      </trkpt>
      <trkpt lat="44.76762" lon="5.71165">
        <ele>814.37</ele>
        <time>2026-08-23T08:40:26Z</time>
      </trkpt>
      <trkpt lat="44.76759" lon="5.71197">
        <ele>812.93</ele>
        <time>2026-08-23T08:40:43Z</time>
      </trkpt>
      <trkpt lat="44.76758" lon="5.71213">
        <ele>812.45</ele>
        <time>2026-08-23T08:40:53Z</time>
      </trkpt>
      <trkpt lat="44.76758" lon="5.71219">
        <ele>812.45</ele>
        <time>2026-08-23T08:40:57Z</time>
      </trkpt>
      <trkpt lat="44.76758" lon="5.7125">
        <ele>812.45</ele>
        <time>2026-08-23T08:41:16Z</time>
      </trkpt>
      <trkpt lat="44.76758" lon="5.71252">
        <ele>812.45</ele>
        <time>2026-08-23T08:41:18Z</time>
      </trkpt>
      <trkpt lat="44.7676" lon="5.71281">
        <ele>811.49</ele>
        <time>2026-08-23T08:41:36Z</time>
      </trkpt>
      <trkpt lat="44.7676" lon="5.71289">
        <ele>810.53</ele>
        <time>2026-08-23T08:41:41Z</time>
      </trkpt>
      <trkpt lat="44.7676" lon="5.7131">
        <ele>808.13</ele>
        <time>2026-08-23T08:41:57Z</time>
      </trkpt>
      <trkpt lat="44.76756" lon="5.71331">
        <ele>806.2</ele>
        <time>2026-08-23T08:42:13Z</time>
      </trkpt>
      <trkpt lat="44.76753" lon="5.71334">
        <ele>805.72</ele>
        <time>2026-08-23T08:42:24Z</time>
      </trkpt>
      <trkpt lat="44.76741" lon="5.71362">
        <ele>805.72</ele>
        <time>2026-08-23T08:42:44Z</time>
      </trkpt>
      <trkpt lat="44.76734" lon="5.71381">
        <ele>805.24</ele>
        <time>2026-08-23T08:42:57Z</time>
      </trkpt>
      <trkpt lat="44.76726" lon="5.71407">
        <ele>804.76</ele>
        <time>2026-08-23T08:43:14Z</time>
      </trkpt>
      <trkpt lat="44.76726" lon="5.71414">
        <ele>804.76</ele>
        <time>2026-08-23T08:43:18Z</time>
      </trkpt>
      <trkpt lat="44.7672" lon="5.71437">
        <ele>802.84</ele>
        <time>2026-08-23T08:43:33Z</time>
      </trkpt>
      <trkpt lat="44.76718" lon="5.71466">
        <ele>800.92</ele>
        <time>2026-08-23T08:43:52Z</time>
      </trkpt>
      <trkpt lat="44.76714" lon="5.71494">
        <ele>798.99</ele>
        <time>2026-08-23T08:44:10Z</time>
      </trkpt>
      <trkpt lat="44.76714" lon="5.71509">
        <ele>798.51</ele>
        <time>2026-08-23T08:44:22Z</time>
      </trkpt>
      <trkpt lat="44.76712" lon="5.71514">
        <ele>798.51</ele>
        <time>2026-08-23T08:44:25Z</time>
      </trkpt>
      <trkpt lat="44.76705" lon="5.71549">
        <ele>798.03</ele>
        <time>2026-08-23T08:44:46Z</time>
      </trkpt>
      <trkpt lat="44.76705" lon="5.71551">
        <ele>798.03</ele>
        <time>2026-08-23T08:44:47Z</time>
      </trkpt>
      <trkpt lat="44.76702" lon="5.7158">
        <ele>798.03</ele>
        <time>2026-08-23T08:45:06Z</time>
      </trkpt>
      <trkpt lat="44.76696" lon="5.71614">
        <ele>796.59</ele>
        <time>2026-08-23T08:45:27Z</time>
      </trkpt>
      <trkpt lat="44.76686" lon="5.71641">
        <ele>795.15</ele>
        <time>2026-08-23T08:45:45Z</time>
      </trkpt>
      <trkpt lat="44.76677" lon="5.71665">
        <ele>794.19</ele>
        <time>2026-08-23T08:46:04Z</time>
      </trkpt>
      <trkpt lat="44.76665" lon="5.71695">
        <ele>794.19</ele>
        <time>2026-08-23T08:46:24Z</time>
      </trkpt>
      <trkpt lat="44.76656" lon="5.71718">
        <ele>791.78</ele>
        <time>2026-08-23T08:46:41Z</time>
      </trkpt>
      <trkpt lat="44.76643" lon="5.71735">
        <ele>790.82</ele>
        <time>2026-08-23T08:46:57Z</time>
      </trkpt>
      <trkpt lat="44.76632" lon="5.71757">
        <ele>790.34</ele>
        <time>2026-08-23T08:47:14Z</time>
      </trkpt>
      <trkpt lat="44.76622" lon="5.71783">
        <ele>788.9</ele>
        <time>2026-08-23T08:47:33Z</time>
      </trkpt>
      <trkpt lat="44.76622" lon="5.71787">
        <ele>788.42</ele>
        <time>2026-08-23T08:47:35Z</time>
      </trkpt>
      <trkpt lat="44.76621" lon="5.71819">
        <ele>787.46</ele>
        <time>2026-08-23T08:47:54Z</time>
      </trkpt>
      <trkpt lat="44.76621" lon="5.71842">
        <ele>786.98</ele>
        <time>2026-08-23T08:48:09Z</time>
      </trkpt>
      <trkpt lat="44.7662" lon="5.71864">
        <ele>786.02</ele>
        <time>2026-08-23T08:48:24Z</time>
      </trkpt>
      <trkpt lat="44.76615" lon="5.71883">
        <ele>784.57</ele>
        <time>2026-08-23T08:48:44Z</time>
      </trkpt>
      <trkpt lat="44.76611" lon="5.71895">
        <ele>783.13</ele>
        <time>2026-08-23T08:49:03Z</time>
      </trkpt>
      <trkpt lat="44.76606" lon="5.71915">
        <ele>782.17</ele>
        <time>2026-08-23T08:49:16Z</time>
      </trkpt>
      <trkpt lat="44.76606" lon="5.71923">
        <ele>782.17</ele>
        <time>2026-08-23T08:49:22Z</time>
      </trkpt>
      <trkpt lat="44.76604" lon="5.71931">
        <ele>782.65</ele>
        <time>2026-08-23T08:49:27Z</time>
      </trkpt>
      <trkpt lat="44.76594" lon="5.71948">
        <ele>783.13</ele>
        <time>2026-08-23T08:49:44Z</time>
      </trkpt>
      <trkpt lat="44.76584" lon="5.71966">
        <ele>783.61</ele>
        <time>2026-08-23T08:50:00Z</time>
      </trkpt>
      <trkpt lat="44.76576" lon="5.71982">
        <ele>784.09</ele>
        <time>2026-08-23T08:50:14Z</time>
      </trkpt>
      <trkpt lat="44.76566" lon="5.72">
        <ele>784.57</ele>
        <time>2026-08-23T08:50:29Z</time>
      </trkpt>
      <trkpt lat="44.76553" lon="5.72018">
        <ele>785.05</ele>
        <time>2026-08-23T08:50:45Z</time>
      </trkpt>
      <trkpt lat="44.7655" lon="5.72023">
        <ele>785.53</ele>
        <time>2026-08-23T08:50:49Z</time>
      </trkpt>
      <trkpt lat="44.76538" lon="5.72042">
        <ele>786.02</ele>
        <time>2026-08-23T08:51:06Z</time>
      </trkpt>
      <trkpt lat="44.76523" lon="5.72059">
        <ele>786.5</ele>
        <time>2026-08-23T08:51:22Z</time>
      </trkpt>
      <trkpt lat="44.76508" lon="5.72081">
        <ele>787.46</ele>
        <time>2026-08-23T08:51:42Z</time>
      </trkpt>
      <trkpt lat="44.76495" lon="5.721">
        <ele>787.94</ele>
        <time>2026-08-23T08:51:58Z</time>
      </trkpt>
      <trkpt lat="44.76493" lon="5.7212">
        <ele>787.94</ele>
        <time>2026-08-23T08:52:11Z</time>
      </trkpt>
      <trkpt lat="44.76493" lon="5.72121">
        <ele>787.94</ele>
        <time>2026-08-23T08:52:13Z</time>
      </trkpt>
      <trkpt lat="44.76487" lon="5.72135">
        <ele>788.42</ele>
        <time>2026-08-23T08:52:23Z</time>
      </trkpt>
      <trkpt lat="44.76477" lon="5.72156">
        <ele>788.9</ele>
        <time>2026-08-23T08:52:40Z</time>
      </trkpt>
      <trkpt lat="44.76469" lon="5.7218">
        <ele>788.9</ele>
        <time>2026-08-23T08:52:56Z</time>
      </trkpt>
      <trkpt lat="44.76462" lon="5.72198">
        <ele>789.38</ele>
        <time>2026-08-23T08:53:09Z</time>
      </trkpt>
      <trkpt lat="44.76457" lon="5.72222">
        <ele>789.38</ele>
        <time>2026-08-23T08:53:25Z</time>
      </trkpt>
      <trkpt lat="44.76457" lon="5.72226">
        <ele>789.38</ele>
        <time>2026-08-23T08:53:27Z</time>
      </trkpt>
      <trkpt lat="44.76452" lon="5.72246">
        <ele>787.94</ele>
        <time>2026-08-23T08:53:40Z</time>
      </trkpt>
      <trkpt lat="44.76452" lon="5.72267">
        <ele>785.05</ele>
        <time>2026-08-23T08:53:56Z</time>
      </trkpt>
      <trkpt lat="44.76447" lon="5.72296">
        <ele>782.17</ele>
        <time>2026-08-23T08:54:16Z</time>
      </trkpt>
      <trkpt lat="44.76447" lon="5.72298">
        <ele>782.17</ele>
        <time>2026-08-23T08:54:18Z</time>
      </trkpt>
      <trkpt lat="44.7644" lon="5.72326">
        <ele>779.29</ele>
        <time>2026-08-23T08:54:38Z</time>
      </trkpt>
      <trkpt lat="44.76435" lon="5.7236">
        <ele>776.88</ele>
        <time>2026-08-23T08:54:57Z</time>
      </trkpt>
      <trkpt lat="44.76433" lon="5.72363">
        <ele>776.4</ele>
        <time>2026-08-23T08:55:00Z</time>
      </trkpt>
      <trkpt lat="44.7643" lon="5.72367">
        <ele>775.92</ele>
        <time>2026-08-23T08:55:04Z</time>
      </trkpt>
      <trkpt lat="44.76413" lon="5.72385">
        <ele>773.04</ele>
        <time>2026-08-23T08:55:24Z</time>
      </trkpt>
      <trkpt lat="44.76401" lon="5.72401">
        <ele>772.08</ele>
        <time>2026-08-23T08:55:40Z</time>
      </trkpt>
      <trkpt lat="44.76401" lon="5.72406">
        <ele>772.08</ele>
        <time>2026-08-23T08:55:43Z</time>
      </trkpt>
      <trkpt lat="44.7641" lon="5.72433">
        <ele>771.6</ele>
        <time>2026-08-23T08:55:58Z</time>
      </trkpt>
      <trkpt lat="44.76413" lon="5.72441">
        <ele>771.6</ele>
        <time>2026-08-23T08:56:06Z</time>
      </trkpt>
      <trkpt lat="44.76422" lon="5.72451">
        <ele>770.63</ele>
        <time>2026-08-23T08:56:20Z</time>
      </trkpt>
      <trkpt lat="44.76425" lon="5.72451">
        <ele>770.63</ele>
        <time>2026-08-23T08:56:51Z</time>
      </trkpt>
      <trkpt lat="44.76425" lon="5.72452">
        <ele>770.15</ele>
        <time>2026-08-23T08:57:24Z</time>
      </trkpt>
      <trkpt lat="44.76425" lon="5.72453">
        <ele>770.15</ele>
        <time>2026-08-23T08:57:57Z</time>
      </trkpt>
      <trkpt lat="44.76425" lon="5.72453">
        <ele>770.15</ele>
        <time>2026-08-23T08:58:35Z</time>
      </trkpt>
      <trkpt lat="44.76425" lon="5.72453">
        <ele>769.67</ele>
        <time>2026-08-23T08:59:05Z</time>
      </trkpt>
      <trkpt lat="44.76425" lon="5.72452">
        <ele>769.67</ele>
        <time>2026-08-23T08:59:27Z</time>
      </trkpt>
      <trkpt lat="44.76422" lon="5.72448">
        <ele>770.15</ele>
        <time>2026-08-23T08:59:31Z</time>
      </trkpt>
      <trkpt lat="44.7642" lon="5.72442">
        <ele>770.63</ele>
        <time>2026-08-23T08:59:35Z</time>
      </trkpt>
      <trkpt lat="44.76419" lon="5.72441">
        <ele>770.15</ele>
        <time>2026-08-23T08:59:49Z</time>
      </trkpt>
      <trkpt lat="44.76419" lon="5.7244">
        <ele>770.63</ele>
        <time>2026-08-23T09:00:17Z</time>
      </trkpt>
      <trkpt lat="44.76418" lon="5.72439">
        <ele>770.63</ele>
        <time>2026-08-23T09:00:25Z</time>
      </trkpt>
      <trkpt lat="44.76414" lon="5.72436">
        <ele>770.63</ele>
        <time>2026-08-23T09:00:35Z</time>
      </trkpt>
      <trkpt lat="44.76423" lon="5.7244">
        <ele>771.11</ele>
        <time>2026-08-23T09:00:45Z</time>
      </trkpt>
      <trkpt lat="44.76436" lon="5.72454">
        <ele>770.63</ele>
        <time>2026-08-23T09:00:59Z</time>
      </trkpt>
      <trkpt lat="44.76445" lon="5.72464">
        <ele>770.63</ele>
        <time>2026-08-23T09:01:10Z</time>
      </trkpt>
      <trkpt lat="44.76458" lon="5.72481">
        <ele>770.15</ele>
        <time>2026-08-23T09:01:24Z</time>
      </trkpt>
      <trkpt lat="44.76469" lon="5.72499">
        <ele>770.15</ele>
        <time>2026-08-23T09:01:39Z</time>
      </trkpt>
      <trkpt lat="44.76479" lon="5.72513">
        <ele>769.67</ele>
        <time>2026-08-23T09:01:54Z</time>
      </trkpt>
      <trkpt lat="44.76482" lon="5.72521">
        <ele>769.67</ele>
        <time>2026-08-23T09:02:01Z</time>
      </trkpt>
      <trkpt lat="44.76481" lon="5.72526">
        <ele>769.67</ele>
        <time>2026-08-23T09:02:04Z</time>
      </trkpt>
      <trkpt lat="44.76474" lon="5.72545">
        <ele>770.15</ele>
        <time>2026-08-23T09:02:20Z</time>
      </trkpt>
      <trkpt lat="44.76469" lon="5.72563">
        <ele>771.11</ele>
        <time>2026-08-23T09:02:37Z</time>
      </trkpt>
      <trkpt lat="44.76464" lon="5.72581">
        <ele>772.56</ele>
        <time>2026-08-23T09:02:53Z</time>
      </trkpt>
      <trkpt lat="44.76462" lon="5.72586">
        <ele>773.04</ele>
        <time>2026-08-23T09:02:57Z</time>
      </trkpt>
      <trkpt lat="44.76449" lon="5.72601">
        <ele>774</ele>
        <time>2026-08-23T09:03:13Z</time>
      </trkpt>
      <trkpt lat="44.76447" lon="5.72604">
        <ele>774</ele>
        <time>2026-08-23T09:03:16Z</time>
      </trkpt>
      <trkpt lat="44.76438" lon="5.7262">
        <ele>774.48</ele>
        <time>2026-08-23T09:03:30Z</time>
      </trkpt>
      <trkpt lat="44.76426" lon="5.7263">
        <ele>774.96</ele>
        <time>2026-08-23T09:03:45Z</time>
      </trkpt>
      <trkpt lat="44.76413" lon="5.72643">
        <ele>775.44</ele>
        <time>2026-08-23T09:04:00Z</time>
      </trkpt>
      <trkpt lat="44.76402" lon="5.72664">
        <ele>775.92</ele>
        <time>2026-08-23T09:04:15Z</time>
      </trkpt>
      <trkpt lat="44.76387" lon="5.7269">
        <ele>776.88</ele>
        <time>2026-08-23T09:04:34Z</time>
      </trkpt>
      <trkpt lat="44.76376" lon="5.72707">
        <ele>776.88</ele>
        <time>2026-08-23T09:04:49Z</time>
      </trkpt>
      <trkpt lat="44.76371" lon="5.72711">
        <ele>776.4</ele>
        <time>2026-08-23T09:04:54Z</time>
      </trkpt>
      <trkpt lat="44.76365" lon="5.72718">
        <ele>776.4</ele>
        <time>2026-08-23T09:05:00Z</time>
      </trkpt>
      <trkpt lat="44.76358" lon="5.72734">
        <ele>775.92</ele>
        <time>2026-08-23T09:05:14Z</time>
      </trkpt>
      <trkpt lat="44.7634" lon="5.72741">
        <ele>775.44</ele>
        <time>2026-08-23T09:05:26Z</time>
      </trkpt>
      <trkpt lat="44.76334" lon="5.72752">
        <ele>775.92</ele>
        <time>2026-08-23T09:05:39Z</time>
      </trkpt>
      <trkpt lat="44.76333" lon="5.72753">
        <ele>775.92</ele>
        <time>2026-08-23T09:05:45Z</time>
      </trkpt>
      <trkpt lat="44.76324" lon="5.72761">
        <ele>775.92</ele>
        <time>2026-08-23T09:05:58Z</time>
      </trkpt>
      <trkpt lat="44.76314" lon="5.7278">
        <ele>777.36</ele>
        <time>2026-08-23T09:06:15Z</time>
      </trkpt>
      <trkpt lat="44.76309" lon="5.72794">
        <ele>777.36</ele>
        <time>2026-08-23T09:06:25Z</time>
      </trkpt>
      <trkpt lat="44.76296" lon="5.72806">
        <ele>777.36</ele>
        <time>2026-08-23T09:06:39Z</time>
      </trkpt>
      <trkpt lat="44.76293" lon="5.72808">
        <ele>777.36</ele>
        <time>2026-08-23T09:06:41Z</time>
      </trkpt>
      <trkpt lat="44.76273" lon="5.72825">
        <ele>777.36</ele>
        <time>2026-08-23T09:07:00Z</time>
      </trkpt>
      <trkpt lat="44.76257" lon="5.7284">
        <ele>777.36</ele>
        <time>2026-08-23T09:07:17Z</time>
      </trkpt>
      <trkpt lat="44.76245" lon="5.72859">
        <ele>777.84</ele>
        <time>2026-08-23T09:07:35Z</time>
      </trkpt>
      <trkpt lat="44.76235" lon="5.72878">
        <ele>778.81</ele>
        <time>2026-08-23T09:07:49Z</time>
      </trkpt>
      <trkpt lat="44.76237" lon="5.72898">
        <ele>780.25</ele>
        <time>2026-08-23T09:08:04Z</time>
      </trkpt>
      <trkpt lat="44.76245" lon="5.72918">
        <ele>781.69</ele>
        <time>2026-08-23T09:08:19Z</time>
      </trkpt>
      <trkpt lat="44.76258" lon="5.72931">
        <ele>783.61</ele>
        <time>2026-08-23T09:08:38Z</time>
      </trkpt>
      <trkpt lat="44.76278" lon="5.72942">
        <ele>786.02</ele>
        <time>2026-08-23T09:08:56Z</time>
      </trkpt>
      <trkpt lat="44.76295" lon="5.72935">
        <ele>788.42</ele>
        <time>2026-08-23T09:09:15Z</time>
      </trkpt>
      <trkpt lat="44.76308" lon="5.72924">
        <ele>788.9</ele>
        <time>2026-08-23T09:09:29Z</time>
      </trkpt>
      <trkpt lat="44.76313" lon="5.72907">
        <ele>790.34</ele>
        <time>2026-08-23T09:09:41Z</time>
      </trkpt>
      <trkpt lat="44.76326" lon="5.72905">
        <ele>791.78</ele>
        <time>2026-08-23T09:09:57Z</time>
      </trkpt>
      <trkpt lat="44.76341" lon="5.72903">
        <ele>793.71</ele>
        <time>2026-08-23T09:10:14Z</time>
      </trkpt>
      <trkpt lat="44.76354" lon="5.72903">
        <ele>795.15</ele>
        <time>2026-08-23T09:10:32Z</time>
      </trkpt>
      <trkpt lat="44.76372" lon="5.72892">
        <ele>796.59</ele>
        <time>2026-08-23T09:10:48Z</time>
      </trkpt>
      <trkpt lat="44.76374" lon="5.72889">
        <ele>796.59</ele>
        <time>2026-08-23T09:10:50Z</time>
      </trkpt>
      <trkpt lat="44.76391" lon="5.72866">
        <ele>798.51</ele>
        <time>2026-08-23T09:11:09Z</time>
      </trkpt>
      <trkpt lat="44.76395" lon="5.72862">
        <ele>798.99</ele>
        <time>2026-08-23T09:11:16Z</time>
      </trkpt>
      <trkpt lat="44.76404" lon="5.72852">
        <ele>800.44</ele>
        <time>2026-08-23T09:11:33Z</time>
      </trkpt>
      <trkpt lat="44.76417" lon="5.72852">
        <ele>802.36</ele>
        <time>2026-08-23T09:11:50Z</time>
      </trkpt>
      <trkpt lat="44.76431" lon="5.72846">
        <ele>804.76</ele>
        <time>2026-08-23T09:12:12Z</time>
      </trkpt>
      <trkpt lat="44.76452" lon="5.72838">
        <ele>806.2</ele>
        <time>2026-08-23T09:12:29Z</time>
      </trkpt>
      <trkpt lat="44.76454" lon="5.7283">
        <ele>802.84</ele>
        <time>2026-08-23T09:12:37Z</time>
      </trkpt>
      <trkpt lat="44.76454" lon="5.7283">
        <ele>809.57</ele>
        <time>2026-08-23T09:12:38Z</time>
      </trkpt>
      <trkpt lat="44.76454" lon="5.7283">
        <ele>806.68</ele>
        <time>2026-08-23T09:12:39Z</time>
      </trkpt>
      <trkpt lat="44.76452" lon="5.72829">
        <ele>806.2</ele>
        <time>2026-08-23T09:12:55Z</time>
      </trkpt>
      <trkpt lat="44.76452" lon="5.7283">
        <ele>806.2</ele>
        <time>2026-08-23T09:12:57Z</time>
      </trkpt>
      <trkpt lat="44.76444" lon="5.72835">
        <ele>805.24</ele>
        <time>2026-08-23T09:13:11Z</time>
      </trkpt>
      <trkpt lat="44.76427" lon="5.72825">
        <ele>803.8</ele>
        <time>2026-08-23T09:13:28Z</time>
      </trkpt>
      <trkpt lat="44.76417" lon="5.72829">
        <ele>805.24</ele>
        <time>2026-08-23T09:13:42Z</time>
      </trkpt>
      <trkpt lat="44.7641" lon="5.72833">
        <ele>806.2</ele>
        <time>2026-08-23T09:13:50Z</time>
      </trkpt>
      <trkpt lat="44.76399" lon="5.72844">
        <ele>807.16</ele>
        <time>2026-08-23T09:14:03Z</time>
      </trkpt>
      <trkpt lat="44.76394" lon="5.72858">
        <ele>809.09</ele>
        <time>2026-08-23T09:14:18Z</time>
      </trkpt>
      <trkpt lat="44.76389" lon="5.7287">
        <ele>810.53</ele>
        <time>2026-08-23T09:14:32Z</time>
      </trkpt>
      <trkpt lat="44.76384" lon="5.72875">
        <ele>811.01</ele>
        <time>2026-08-23T09:14:46Z</time>
      </trkpt>
      <trkpt lat="44.76381" lon="5.72893">
        <ele>812.93</ele>
        <time>2026-08-23T09:15:03Z</time>
      </trkpt>
      <trkpt lat="44.76375" lon="5.72897">
        <ele>814.37</ele>
        <time>2026-08-23T09:15:14Z</time>
      </trkpt>
      <trkpt lat="44.76362" lon="5.72902">
        <ele>815.82</ele>
        <time>2026-08-23T09:15:27Z</time>
      </trkpt>
      <trkpt lat="44.76354" lon="5.72908">
        <ele>816.78</ele>
        <time>2026-08-23T09:15:41Z</time>
      </trkpt>
      <trkpt lat="44.76345" lon="5.72921">
        <ele>818.7</ele>
        <time>2026-08-23T09:15:55Z</time>
      </trkpt>
      <trkpt lat="44.76336" lon="5.72939">
        <ele>820.14</ele>
        <time>2026-08-23T09:16:10Z</time>
      </trkpt>
      <trkpt lat="44.76331" lon="5.72955">
        <ele>822.06</ele>
        <time>2026-08-23T09:16:26Z</time>
      </trkpt>
      <trkpt lat="44.76329" lon="5.7297">
        <ele>824.47</ele>
        <time>2026-08-23T09:16:40Z</time>
      </trkpt>
      <trkpt lat="44.76323" lon="5.7298">
        <ele>825.91</ele>
        <time>2026-08-23T09:16:56Z</time>
      </trkpt>
      <trkpt lat="44.76325" lon="5.73005">
        <ele>827.35</ele>
        <time>2026-08-23T09:17:11Z</time>
      </trkpt>
      <trkpt lat="44.76323" lon="5.73011">
        <ele>828.79</ele>
        <time>2026-08-23T09:17:27Z</time>
      </trkpt>
      <trkpt lat="44.76322" lon="5.73026">
        <ele>831.68</ele>
        <time>2026-08-23T09:17:45Z</time>
      </trkpt>
      <trkpt lat="44.7633" lon="5.73049">
        <ele>834.08</ele>
        <time>2026-08-23T09:18:03Z</time>
      </trkpt>
      <trkpt lat="44.76327" lon="5.73059">
        <ele>836.96</ele>
        <time>2026-08-23T09:18:22Z</time>
      </trkpt>
      <trkpt lat="44.76318" lon="5.73064">
        <ele>838.89</ele>
        <time>2026-08-23T09:18:37Z</time>
      </trkpt>
      <trkpt lat="44.7631" lon="5.73074">
        <ele>840.33</ele>
        <time>2026-08-23T09:18:53Z</time>
      </trkpt>
      <trkpt lat="44.76305" lon="5.73093">
        <ele>842.25</ele>
        <time>2026-08-23T09:19:08Z</time>
      </trkpt>
      <trkpt lat="44.76313" lon="5.73104">
        <ele>845.14</ele>
        <time>2026-08-23T09:19:26Z</time>
      </trkpt>
      <trkpt lat="44.76316" lon="5.73115">
        <ele>847.06</ele>
        <time>2026-08-23T09:19:44Z</time>
      </trkpt>
      <trkpt lat="44.76315" lon="5.73122">
        <ele>848.5</ele>
        <time>2026-08-23T09:19:59Z</time>
      </trkpt>
      <trkpt lat="44.76317" lon="5.73138">
        <ele>850.42</ele>
        <time>2026-08-23T09:20:15Z</time>
      </trkpt>
      <trkpt lat="44.76312" lon="5.73144">
        <ele>852.35</ele>
        <time>2026-08-23T09:20:33Z</time>
      </trkpt>
      <trkpt lat="44.76311" lon="5.73145">
        <ele>852.35</ele>
        <time>2026-08-23T09:20:56Z</time>
      </trkpt>
      <trkpt lat="44.76302" lon="5.73162">
        <ele>852.83</ele>
        <time>2026-08-23T09:21:11Z</time>
      </trkpt>
      <trkpt lat="44.76303" lon="5.73178">
        <ele>853.79</ele>
        <time>2026-08-23T09:21:31Z</time>
      </trkpt>
      <trkpt lat="44.76305" lon="5.73199">
        <ele>855.71</ele>
        <time>2026-08-23T09:21:46Z</time>
      </trkpt>
      <trkpt lat="44.76306" lon="5.73206">
        <ele>858.11</ele>
        <time>2026-08-23T09:22:03Z</time>
      </trkpt>
      <trkpt lat="44.76306" lon="5.73216">
        <ele>860.04</ele>
        <time>2026-08-23T09:22:19Z</time>
      </trkpt>
      <trkpt lat="44.76306" lon="5.73217">
        <ele>861</ele>
        <time>2026-08-23T09:22:32Z</time>
      </trkpt>
      <trkpt lat="44.76304" lon="5.73218">
        <ele>860.52</ele>
        <time>2026-08-23T09:22:45Z</time>
      </trkpt>
      <trkpt lat="44.7629" lon="5.73239">
        <ele>861.96</ele>
        <time>2026-08-23T09:23:02Z</time>
      </trkpt>
      <trkpt lat="44.76282" lon="5.73258">
        <ele>863.4</ele>
        <time>2026-08-23T09:23:16Z</time>
      </trkpt>
      <trkpt lat="44.76287" lon="5.73277">
        <ele>865.8</ele>
        <time>2026-08-23T09:23:33Z</time>
      </trkpt>
      <trkpt lat="44.76294" lon="5.73291">
        <ele>867.73</ele>
        <time>2026-08-23T09:23:50Z</time>
      </trkpt>
      <trkpt lat="44.76301" lon="5.73303">
        <ele>869.65</ele>
        <time>2026-08-23T09:24:05Z</time>
      </trkpt>
      <trkpt lat="44.76304" lon="5.73313">
        <ele>871.57</ele>
        <time>2026-08-23T09:24:19Z</time>
      </trkpt>
      <trkpt lat="44.76304" lon="5.73319">
        <ele>873.5</ele>
        <time>2026-08-23T09:24:35Z</time>
      </trkpt>
      <trkpt lat="44.76302" lon="5.73324">
        <ele>875.42</ele>
        <time>2026-08-23T09:24:48Z</time>
      </trkpt>
      <trkpt lat="44.76292" lon="5.73343">
        <ele>877.34</ele>
        <time>2026-08-23T09:25:03Z</time>
      </trkpt>
      <trkpt lat="44.76293" lon="5.73355">
        <ele>878.78</ele>
        <time>2026-08-23T09:25:18Z</time>
      </trkpt>
      <trkpt lat="44.76295" lon="5.73356">
        <ele>879.26</ele>
        <time>2026-08-23T09:25:36Z</time>
      </trkpt>
      <trkpt lat="44.76292" lon="5.73373">
        <ele>882.15</ele>
        <time>2026-08-23T09:25:53Z</time>
      </trkpt>
      <trkpt lat="44.7629" lon="5.73389">
        <ele>884.07</ele>
        <time>2026-08-23T09:26:07Z</time>
      </trkpt>
      <trkpt lat="44.76287" lon="5.73398">
        <ele>885.51</ele>
        <time>2026-08-23T09:26:19Z</time>
      </trkpt>
      <trkpt lat="44.76283" lon="5.73399">
        <ele>886.47</ele>
        <time>2026-08-23T09:26:33Z</time>
      </trkpt>
      <trkpt lat="44.76277" lon="5.73408">
        <ele>886.47</ele>
        <time>2026-08-23T09:26:51Z</time>
      </trkpt>
      <trkpt lat="44.76269" lon="5.73418">
        <ele>888.4</ele>
        <time>2026-08-23T09:27:05Z</time>
      </trkpt>
      <trkpt lat="44.76271" lon="5.73437">
        <ele>889.84</ele>
        <time>2026-08-23T09:27:21Z</time>
      </trkpt>
      <trkpt lat="44.76288" lon="5.73443">
        <ele>891.76</ele>
        <time>2026-08-23T09:27:38Z</time>
      </trkpt>
      <trkpt lat="44.76297" lon="5.73431">
        <ele>893.68</ele>
        <time>2026-08-23T09:27:56Z</time>
      </trkpt>
      <trkpt lat="44.76288" lon="5.73433">
        <ele>895.12</ele>
        <time>2026-08-23T09:28:11Z</time>
      </trkpt>
      <trkpt lat="44.76301" lon="5.73439">
        <ele>897.53</ele>
        <time>2026-08-23T09:28:29Z</time>
      </trkpt>
      <trkpt lat="44.76308" lon="5.73442">
        <ele>899.45</ele>
        <time>2026-08-23T09:28:47Z</time>
      </trkpt>
      <trkpt lat="44.76319" lon="5.73418">
        <ele>899.93</ele>
        <time>2026-08-23T09:29:06Z</time>
      </trkpt>
      <trkpt lat="44.76327" lon="5.7341">
        <ele>900.89</ele>
        <time>2026-08-23T09:29:21Z</time>
      </trkpt>
      <trkpt lat="44.7633" lon="5.73402">
        <ele>901.85</ele>
        <time>2026-08-23T09:29:37Z</time>
      </trkpt>
      <trkpt lat="44.76321" lon="5.73407">
        <ele>903.78</ele>
        <time>2026-08-23T09:29:52Z</time>
      </trkpt>
      <trkpt lat="44.76319" lon="5.73426">
        <ele>905.7</ele>
        <time>2026-08-23T09:30:08Z</time>
      </trkpt>
      <trkpt lat="44.7632" lon="5.73439">
        <ele>907.62</ele>
        <time>2026-08-23T09:30:23Z</time>
      </trkpt>
      <trkpt lat="44.76315" lon="5.73446">
        <ele>908.1</ele>
        <time>2026-08-23T09:30:37Z</time>
      </trkpt>
      <trkpt lat="44.76315" lon="5.7345">
        <ele>908.1</ele>
        <time>2026-08-23T09:30:59Z</time>
      </trkpt>
      <trkpt lat="44.76306" lon="5.7346">
        <ele>909.06</ele>
        <time>2026-08-23T09:31:15Z</time>
      </trkpt>
      <trkpt lat="44.76299" lon="5.73477">
        <ele>910.51</ele>
        <time>2026-08-23T09:31:30Z</time>
      </trkpt>
      <trkpt lat="44.76317" lon="5.73478">
        <ele>912.43</ele>
        <time>2026-08-23T09:31:49Z</time>
      </trkpt>
      <trkpt lat="44.76333" lon="5.73472">
        <ele>914.35</ele>
        <time>2026-08-23T09:32:10Z</time>
      </trkpt>
      <trkpt lat="44.76327" lon="5.73468">
        <ele>916.27</ele>
        <time>2026-08-23T09:32:26Z</time>
      </trkpt>
      <trkpt lat="44.76324" lon="5.73472">
        <ele>918.68</ele>
        <time>2026-08-23T09:32:43Z</time>
      </trkpt>
      <trkpt lat="44.76315" lon="5.7349">
        <ele>920.6</ele>
        <time>2026-08-23T09:33:01Z</time>
      </trkpt>
      <trkpt lat="44.76314" lon="5.73496">
        <ele>922.52</ele>
        <time>2026-08-23T09:33:20Z</time>
      </trkpt>
      <trkpt lat="44.7631" lon="5.73515">
        <ele>923.96</ele>
        <time>2026-08-23T09:33:37Z</time>
      </trkpt>
      <trkpt lat="44.76316" lon="5.7353">
        <ele>926.37</ele>
        <time>2026-08-23T09:33:55Z</time>
      </trkpt>
      <trkpt lat="44.76323" lon="5.73542">
        <ele>929.25</ele>
        <time>2026-08-23T09:34:13Z</time>
      </trkpt>
      <trkpt lat="44.76325" lon="5.73555">
        <ele>930.69</ele>
        <time>2026-08-23T09:34:31Z</time>
      </trkpt>
      <trkpt lat="44.76319" lon="5.73563">
        <ele>931.65</ele>
        <time>2026-08-23T09:34:48Z</time>
      </trkpt>
      <trkpt lat="44.7632" lon="5.73559">
        <ele>931.17</ele>
        <time>2026-08-23T09:35:02Z</time>
      </trkpt>
      <trkpt lat="44.76304" lon="5.73565">
        <ele>931.17</ele>
        <time>2026-08-23T09:35:17Z</time>
      </trkpt>
      <trkpt lat="44.76307" lon="5.73587">
        <ele>932.62</ele>
        <time>2026-08-23T09:35:34Z</time>
      </trkpt>
      <trkpt lat="44.76302" lon="5.73597">
        <ele>934.54</ele>
        <time>2026-08-23T09:35:50Z</time>
      </trkpt>
      <trkpt lat="44.76302" lon="5.73596">
        <ele>935.02</ele>
        <time>2026-08-23T09:35:54Z</time>
      </trkpt>
      <trkpt lat="44.76295" lon="5.7359">
        <ele>935.02</ele>
        <time>2026-08-23T09:36:10Z</time>
      </trkpt>
      <trkpt lat="44.76284" lon="5.736">
        <ele>935.5</ele>
        <time>2026-08-23T09:36:24Z</time>
      </trkpt>
      <trkpt lat="44.76284" lon="5.73604">
        <ele>935.5</ele>
        <time>2026-08-23T09:36:43Z</time>
      </trkpt>
      <trkpt lat="44.76294" lon="5.73617">
        <ele>936.94</ele>
        <time>2026-08-23T09:37:00Z</time>
      </trkpt>
      <trkpt lat="44.76304" lon="5.7363">
        <ele>938.38</ele>
        <time>2026-08-23T09:37:14Z</time>
      </trkpt>
      <trkpt lat="44.76317" lon="5.73641">
        <ele>941.27</ele>
        <time>2026-08-23T09:37:32Z</time>
      </trkpt>
      <trkpt lat="44.7632" lon="5.73642">
        <ele>942.23</ele>
        <time>2026-08-23T09:37:43Z</time>
      </trkpt>
      <trkpt lat="44.76315" lon="5.73656">
        <ele>942.71</ele>
        <time>2026-08-23T09:37:56Z</time>
      </trkpt>
      <trkpt lat="44.76308" lon="5.73661">
        <ele>942.71</ele>
        <time>2026-08-23T09:38:08Z</time>
      </trkpt>
      <trkpt lat="44.76307" lon="5.73665">
        <ele>943.19</ele>
        <time>2026-08-23T09:38:11Z</time>
      </trkpt>
      <trkpt lat="44.76304" lon="5.73674">
        <ele>943.19</ele>
        <time>2026-08-23T09:38:16Z</time>
      </trkpt>
      <trkpt lat="44.7631" lon="5.73698">
        <ele>943.67</ele>
        <time>2026-08-23T09:38:30Z</time>
      </trkpt>
      <trkpt lat="44.76312" lon="5.73714">
        <ele>944.63</ele>
        <time>2026-08-23T09:38:44Z</time>
      </trkpt>
      <trkpt lat="44.76311" lon="5.7373">
        <ele>945.59</ele>
        <time>2026-08-23T09:38:58Z</time>
      </trkpt>
      <trkpt lat="44.76315" lon="5.73744">
        <ele>946.56</ele>
        <time>2026-08-23T09:39:12Z</time>
      </trkpt>
      <trkpt lat="44.76323" lon="5.73762">
        <ele>948</ele>
        <time>2026-08-23T09:39:28Z</time>
      </trkpt>
      <trkpt lat="44.76331" lon="5.73773">
        <ele>949.44</ele>
        <time>2026-08-23T09:39:45Z</time>
      </trkpt>
      <trkpt lat="44.76335" lon="5.73786">
        <ele>949.44</ele>
        <time>2026-08-23T09:39:59Z</time>
      </trkpt>
      <trkpt lat="44.76341" lon="5.73803">
        <ele>950.88</ele>
        <time>2026-08-23T09:40:14Z</time>
      </trkpt>
      <trkpt lat="44.76352" lon="5.73813">
        <ele>952.32</ele>
        <time>2026-08-23T09:40:27Z</time>
      </trkpt>
      <trkpt lat="44.7635" lon="5.73823">
        <ele>953.28</ele>
        <time>2026-08-23T09:40:42Z</time>
      </trkpt>
      <trkpt lat="44.76357" lon="5.73843">
        <ele>953.77</ele>
        <time>2026-08-23T09:40:55Z</time>
      </trkpt>
      <trkpt lat="44.76361" lon="5.73855">
        <ele>954.73</ele>
        <time>2026-08-23T09:41:08Z</time>
      </trkpt>
      <trkpt lat="44.76367" lon="5.73871">
        <ele>956.65</ele>
        <time>2026-08-23T09:41:22Z</time>
      </trkpt>
      <trkpt lat="44.76372" lon="5.73879">
        <ele>957.13</ele>
        <time>2026-08-23T09:41:40Z</time>
      </trkpt>
      <trkpt lat="44.76373" lon="5.7388">
        <ele>957.61</ele>
        <time>2026-08-23T09:41:52Z</time>
      </trkpt>
      <trkpt lat="44.76384" lon="5.73889">
        <ele>958.57</ele>
        <time>2026-08-23T09:42:07Z</time>
      </trkpt>
      <trkpt lat="44.7639" lon="5.73892">
        <ele>959.05</ele>
        <time>2026-08-23T09:42:29Z</time>
      </trkpt>
      <trkpt lat="44.76398" lon="5.73896">
        <ele>960.01</ele>
        <time>2026-08-23T09:42:38Z</time>
      </trkpt>
      <trkpt lat="44.76397" lon="5.73901">
        <ele>960.01</ele>
        <time>2026-08-23T09:42:55Z</time>
      </trkpt>
      <trkpt lat="44.764" lon="5.73904">
        <ele>960.01</ele>
        <time>2026-08-23T09:43:10Z</time>
      </trkpt>
      <trkpt lat="44.76408" lon="5.73911">
        <ele>960.49</ele>
        <time>2026-08-23T09:43:17Z</time>
      </trkpt>
      <trkpt lat="44.76411" lon="5.73922">
        <ele>961.46</ele>
        <time>2026-08-23T09:43:32Z</time>
      </trkpt>
      <trkpt lat="44.76414" lon="5.73937">
        <ele>963.86</ele>
        <time>2026-08-23T09:43:46Z</time>
      </trkpt>
      <trkpt lat="44.76418" lon="5.73945">
        <ele>964.82</ele>
        <time>2026-08-23T09:43:52Z</time>
      </trkpt>
      <trkpt lat="44.76425" lon="5.73944">
        <ele>966.74</ele>
        <time>2026-08-23T09:44:05Z</time>
      </trkpt>
      <trkpt lat="44.76427" lon="5.73934">
        <ele>967.7</ele>
        <time>2026-08-23T09:44:24Z</time>
      </trkpt>
      <trkpt lat="44.7643" lon="5.73926">
        <ele>970.59</ele>
        <time>2026-08-23T09:44:39Z</time>
      </trkpt>
      <trkpt lat="44.76429" lon="5.7393">
        <ele>971.07</ele>
        <time>2026-08-23T09:44:43Z</time>
      </trkpt>
      <trkpt lat="44.76435" lon="5.73949">
        <ele>972.51</ele>
        <time>2026-08-23T09:45:01Z</time>
      </trkpt>
      <trkpt lat="44.76444" lon="5.73957">
        <ele>974.43</ele>
        <time>2026-08-23T09:45:14Z</time>
      </trkpt>
      <trkpt lat="44.76443" lon="5.73961">
        <ele>974.91</ele>
        <time>2026-08-23T09:45:18Z</time>
      </trkpt>
      <trkpt lat="44.76447" lon="5.73972">
        <ele>976.84</ele>
        <time>2026-08-23T09:45:33Z</time>
      </trkpt>
      <trkpt lat="44.76447" lon="5.73951">
        <ele>978.28</ele>
        <time>2026-08-23T09:45:49Z</time>
      </trkpt>
      <trkpt lat="44.76443" lon="5.73934">
        <ele>977.8</ele>
        <time>2026-08-23T09:46:03Z</time>
      </trkpt>
      <trkpt lat="44.76449" lon="5.73921">
        <ele>980.2</ele>
        <time>2026-08-23T09:46:17Z</time>
      </trkpt>
      <trkpt lat="44.76453" lon="5.73916">
        <ele>981.16</ele>
        <time>2026-08-23T09:46:24Z</time>
      </trkpt>
      <trkpt lat="44.76452" lon="5.73899">
        <ele>981.64</ele>
        <time>2026-08-23T09:46:38Z</time>
      </trkpt>
      <trkpt lat="44.76447" lon="5.73882">
        <ele>982.6</ele>
        <time>2026-08-23T09:46:54Z</time>
      </trkpt>
      <trkpt lat="44.7644" lon="5.7388">
        <ele>982.12</ele>
        <time>2026-08-23T09:47:01Z</time>
      </trkpt>
      <trkpt lat="44.76428" lon="5.73864">
        <ele>984.05</ele>
        <time>2026-08-23T09:47:17Z</time>
      </trkpt>
      <trkpt lat="44.76414" lon="5.73839">
        <ele>985.49</ele>
        <time>2026-08-23T09:47:38Z</time>
      </trkpt>
      <trkpt lat="44.76412" lon="5.73835">
        <ele>985.49</ele>
        <time>2026-08-23T09:47:40Z</time>
      </trkpt>
      <trkpt lat="44.76413" lon="5.73835">
        <ele>988.37</ele>
        <time>2026-08-23T09:47:55Z</time>
      </trkpt>
      <trkpt lat="44.76414" lon="5.73838">
        <ele>988.85</ele>
        <time>2026-08-23T09:48:16Z</time>
      </trkpt>
      <trkpt lat="44.76414" lon="5.73836">
        <ele>988.37</ele>
        <time>2026-08-23T09:48:43Z</time>
      </trkpt>
      <trkpt lat="44.76414" lon="5.73835">
        <ele>988.37</ele>
        <time>2026-08-23T09:49:15Z</time>
      </trkpt>
      <trkpt lat="44.76417" lon="5.73837">
        <ele>988.85</ele>
        <time>2026-08-23T09:49:20Z</time>
      </trkpt>
      <trkpt lat="44.76421" lon="5.73841">
        <ele>989.33</ele>
        <time>2026-08-23T09:49:25Z</time>
      </trkpt>
      <trkpt lat="44.76432" lon="5.73856">
        <ele>990.78</ele>
        <time>2026-08-23T09:49:38Z</time>
      </trkpt>
      <trkpt lat="44.76437" lon="5.73853">
        <ele>992.7</ele>
        <time>2026-08-23T09:49:54Z</time>
      </trkpt>
      <trkpt lat="44.76437" lon="5.73852">
        <ele>992.7</ele>
        <time>2026-08-23T09:49:55Z</time>
      </trkpt>
      <trkpt lat="44.76431" lon="5.73832">
        <ele>994.62</ele>
        <time>2026-08-23T09:50:12Z</time>
      </trkpt>
      <trkpt lat="44.76426" lon="5.73811">
        <ele>997.02</ele>
        <time>2026-08-23T09:50:29Z</time>
      </trkpt>
      <trkpt lat="44.76425" lon="5.7382">
        <ele>999.43</ele>
        <time>2026-08-23T09:50:43Z</time>
      </trkpt>
      <trkpt lat="44.7643" lon="5.73835">
        <ele>1000.87</ele>
        <time>2026-08-23T09:50:58Z</time>
      </trkpt>
      <trkpt lat="44.76435" lon="5.73827">
        <ele>1003.27</ele>
        <time>2026-08-23T09:51:12Z</time>
      </trkpt>
      <trkpt lat="44.76433" lon="5.73804">
        <ele>1004.23</ele>
        <time>2026-08-23T09:51:30Z</time>
      </trkpt>
      <trkpt lat="44.76433" lon="5.73788">
        <ele>1005.2</ele>
        <time>2026-08-23T09:51:44Z</time>
      </trkpt>
      <trkpt lat="44.76432" lon="5.73767">
        <ele>1006.16</ele>
        <time>2026-08-23T09:52:00Z</time>
      </trkpt>
      <trkpt lat="44.76426" lon="5.73742">
        <ele>1006.64</ele>
        <time>2026-08-23T09:52:16Z</time>
      </trkpt>
      <trkpt lat="44.76427" lon="5.73714">
        <ele>1008.08</ele>
        <time>2026-08-23T09:52:36Z</time>
      </trkpt>
      <trkpt lat="44.76437" lon="5.73695">
        <ele>1009.52</ele>
        <time>2026-08-23T09:52:56Z</time>
      </trkpt>
      <trkpt lat="44.76453" lon="5.73685">
        <ele>1011.44</ele>
        <time>2026-08-23T09:53:14Z</time>
      </trkpt>
      <trkpt lat="44.76467" lon="5.73673">
        <ele>1013.37</ele>
        <time>2026-08-23T09:53:36Z</time>
      </trkpt>
      <trkpt lat="44.7648" lon="5.7368">
        <ele>1014.81</ele>
        <time>2026-08-23T09:53:55Z</time>
      </trkpt>
      <trkpt lat="44.76485" lon="5.73697">
        <ele>1016.25</ele>
        <time>2026-08-23T09:54:13Z</time>
      </trkpt>
      <trkpt lat="44.76478" lon="5.73681">
        <ele>1018.65</ele>
        <time>2026-08-23T09:54:31Z</time>
      </trkpt>
      <trkpt lat="44.76476" lon="5.7368">
        <ele>1019.13</ele>
        <time>2026-08-23T09:54:33Z</time>
      </trkpt>
      <trkpt lat="44.76462" lon="5.73684">
        <ele>1021.06</ele>
        <time>2026-08-23T09:54:47Z</time>
      </trkpt>
      <trkpt lat="44.76464" lon="5.73693">
        <ele>1023.46</ele>
        <time>2026-08-23T09:55:02Z</time>
      </trkpt>
      <trkpt lat="44.76472" lon="5.7371">
        <ele>1024.9</ele>
        <time>2026-08-23T09:55:19Z</time>
      </trkpt>
      <trkpt lat="44.76476" lon="5.73734">
        <ele>1027.31</ele>
        <time>2026-08-23T09:55:39Z</time>
      </trkpt>
      <trkpt lat="44.76474" lon="5.73724">
        <ele>1029.23</ele>
        <time>2026-08-23T09:55:55Z</time>
      </trkpt>
      <trkpt lat="44.76458" lon="5.73715">
        <ele>1031.15</ele>
        <time>2026-08-23T09:56:12Z</time>
      </trkpt>
      <trkpt lat="44.76453" lon="5.73733">
        <ele>1032.59</ele>
        <time>2026-08-23T09:56:27Z</time>
      </trkpt>
      <trkpt lat="44.76458" lon="5.73753">
        <ele>1035.48</ele>
        <time>2026-08-23T09:56:44Z</time>
      </trkpt>
      <trkpt lat="44.76464" lon="5.73763">
        <ele>1036.92</ele>
        <time>2026-08-23T09:56:56Z</time>
      </trkpt>
      <trkpt lat="44.7647" lon="5.73781">
        <ele>1037.88</ele>
        <time>2026-08-23T09:57:11Z</time>
      </trkpt>
      <trkpt lat="44.76472" lon="5.73789">
        <ele>1038.36</ele>
        <time>2026-08-23T09:57:27Z</time>
      </trkpt>
      <trkpt lat="44.7648" lon="5.73807">
        <ele>1038.84</ele>
        <time>2026-08-23T09:57:44Z</time>
      </trkpt>
      <trkpt lat="44.76483" lon="5.73812">
        <ele>1038.36</ele>
        <time>2026-08-23T09:57:58Z</time>
      </trkpt>
      <trkpt lat="44.76482" lon="5.73807">
        <ele>1038.84</ele>
        <time>2026-08-23T09:58:15Z</time>
      </trkpt>
      <trkpt lat="44.76485" lon="5.73819">
        <ele>1038.36</ele>
        <time>2026-08-23T09:58:35Z</time>
      </trkpt>
      <trkpt lat="44.76493" lon="5.73836">
        <ele>1038.36</ele>
        <time>2026-08-23T09:58:49Z</time>
      </trkpt>
      <trkpt lat="44.76495" lon="5.73838">
        <ele>1037.4</ele>
        <time>2026-08-23T09:59:12Z</time>
      </trkpt>
      <trkpt lat="44.76495" lon="5.73837">
        <ele>1037.88</ele>
        <time>2026-08-23T09:59:40Z</time>
      </trkpt>
      <trkpt lat="44.76494" lon="5.73837">
        <ele>1037.4</ele>
        <time>2026-08-23T10:00:09Z</time>
      </trkpt>
      <trkpt lat="44.76493" lon="5.73836">
        <ele>1037.4</ele>
        <time>2026-08-23T10:00:47Z</time>
      </trkpt>
      <trkpt lat="44.76493" lon="5.73838">
        <ele>1037.88</ele>
        <time>2026-08-23T10:01:24Z</time>
      </trkpt>
      <trkpt lat="44.76494" lon="5.7384">
        <ele>1038.84</ele>
        <time>2026-08-23T10:01:56Z</time>
      </trkpt>
      <trkpt lat="44.76494" lon="5.7384">
        <ele>1038.84</ele>
        <time>2026-08-23T10:02:00Z</time>
      </trkpt>
      <trkpt lat="44.765" lon="5.73857">
        <ele>1038.36</ele>
        <time>2026-08-23T10:02:14Z</time>
      </trkpt>
      <trkpt lat="44.76509" lon="5.73878">
        <ele>1038.36</ele>
        <time>2026-08-23T10:02:29Z</time>
      </trkpt>
      <trkpt lat="44.76512" lon="5.73889">
        <ele>1038.84</ele>
        <time>2026-08-23T10:02:36Z</time>
      </trkpt>
      <trkpt lat="44.76519" lon="5.73905">
        <ele>1040.28</ele>
        <time>2026-08-23T10:02:49Z</time>
      </trkpt>
      <trkpt lat="44.76521" lon="5.73907">
        <ele>1040.28</ele>
        <time>2026-08-23T10:03:03Z</time>
      </trkpt>
      <trkpt lat="44.76522" lon="5.73908">
        <ele>1040.28</ele>
        <time>2026-08-23T10:03:06Z</time>
      </trkpt>
      <trkpt lat="44.76523" lon="5.7391">
        <ele>1040.28</ele>
        <time>2026-08-23T10:03:21Z</time>
      </trkpt>
      <trkpt lat="44.7653" lon="5.7392">
        <ele>1040.76</ele>
        <time>2026-08-23T10:03:32Z</time>
      </trkpt>
      <trkpt lat="44.76532" lon="5.73925">
        <ele>1041.25</ele>
        <time>2026-08-23T10:03:36Z</time>
      </trkpt>
      <trkpt lat="44.76542" lon="5.73937">
        <ele>1041.73</ele>
        <time>2026-08-23T10:03:47Z</time>
      </trkpt>
      <trkpt lat="44.76545" lon="5.73942">
        <ele>1042.21</ele>
        <time>2026-08-23T10:03:52Z</time>
      </trkpt>
      <trkpt lat="44.7655" lon="5.73954">
        <ele>1044.13</ele>
        <time>2026-08-23T10:04:04Z</time>
      </trkpt>
      <trkpt lat="44.76552" lon="5.73971">
        <ele>1045.09</ele>
        <time>2026-08-23T10:04:17Z</time>
      </trkpt>
      <trkpt lat="44.76557" lon="5.73986">
        <ele>1046.53</ele>
        <time>2026-08-23T10:04:31Z</time>
      </trkpt>
      <trkpt lat="44.76561" lon="5.74004">
        <ele>1048.45</ele>
        <time>2026-08-23T10:04:46Z</time>
      </trkpt>
      <trkpt lat="44.76565" lon="5.74021">
        <ele>1050.86</ele>
        <time>2026-08-23T10:05:01Z</time>
      </trkpt>
      <trkpt lat="44.76567" lon="5.7404">
        <ele>1052.3</ele>
        <time>2026-08-23T10:05:17Z</time>
      </trkpt>
      <trkpt lat="44.76574" lon="5.74057">
        <ele>1054.7</ele>
        <time>2026-08-23T10:05:34Z</time>
      </trkpt>
      <trkpt lat="44.76585" lon="5.74071">
        <ele>1056.15</ele>
        <time>2026-08-23T10:05:50Z</time>
      </trkpt>
      <trkpt lat="44.76596" lon="5.74086">
        <ele>1058.07</ele>
        <time>2026-08-23T10:06:09Z</time>
      </trkpt>
      <trkpt lat="44.76605" lon="5.74106">
        <ele>1059.51</ele>
        <time>2026-08-23T10:06:26Z</time>
      </trkpt>
      <trkpt lat="44.76616" lon="5.74124">
        <ele>1060.95</ele>
        <time>2026-08-23T10:06:44Z</time>
      </trkpt>
      <trkpt lat="44.76625" lon="5.74137">
        <ele>1062.39</ele>
        <time>2026-08-23T10:07:00Z</time>
      </trkpt>
      <trkpt lat="44.76635" lon="5.74144">
        <ele>1063.36</ele>
        <time>2026-08-23T10:07:16Z</time>
      </trkpt>
      <trkpt lat="44.76637" lon="5.74144">
        <ele>1063.36</ele>
        <time>2026-08-23T10:07:38Z</time>
      </trkpt>
      <trkpt lat="44.76637" lon="5.74148">
        <ele>1063.36</ele>
        <time>2026-08-23T10:08:04Z</time>
      </trkpt>
      <trkpt lat="44.76642" lon="5.74154">
        <ele>1062.87</ele>
        <time>2026-08-23T10:08:29Z</time>
      </trkpt>
      <trkpt lat="44.76657" lon="5.74156">
        <ele>1060.95</ele>
        <time>2026-08-23T10:08:45Z</time>
      </trkpt>
      <trkpt lat="44.76671" lon="5.74172">
        <ele>1060.47</ele>
        <time>2026-08-23T10:09:05Z</time>
      </trkpt>
      <trkpt lat="44.76681" lon="5.7419">
        <ele>1060.95</ele>
        <time>2026-08-23T10:09:21Z</time>
      </trkpt>
      <trkpt lat="44.76689" lon="5.74199">
        <ele>1061.43</ele>
        <time>2026-08-23T10:09:36Z</time>
      </trkpt>
      <trkpt lat="44.76695" lon="5.74201">
        <ele>1060.95</ele>
        <time>2026-08-23T10:09:56Z</time>
      </trkpt>
      <trkpt lat="44.76698" lon="5.74203">
        <ele>1061.43</ele>
        <time>2026-08-23T10:10:35Z</time>
      </trkpt>
      <trkpt lat="44.76698" lon="5.74204">
        <ele>1061.91</ele>
        <time>2026-08-23T10:11:14Z</time>
      </trkpt>
      <trkpt lat="44.76699" lon="5.74204">
        <ele>1061.91</ele>
        <time>2026-08-23T10:11:47Z</time>
      </trkpt>
      <trkpt lat="44.76702" lon="5.74204">
        <ele>1062.39</ele>
        <time>2026-08-23T10:12:26Z</time>
      </trkpt>
      <trkpt lat="44.76714" lon="5.74201">
        <ele>1059.99</ele>
        <time>2026-08-23T10:12:40Z</time>
      </trkpt>
      <trkpt lat="44.76719" lon="5.742">
        <ele>1059.51</ele>
        <time>2026-08-23T10:12:44Z</time>
      </trkpt>
      <trkpt lat="44.76747" lon="5.74179">
        <ele>1057.59</ele>
        <time>2026-08-23T10:13:01Z</time>
      </trkpt>
      <trkpt lat="44.76764" lon="5.74159">
        <ele>1055.67</ele>
        <time>2026-08-23T10:13:18Z</time>
      </trkpt>
      <trkpt lat="44.76777" lon="5.74149">
        <ele>1054.7</ele>
        <time>2026-08-23T10:13:33Z</time>
      </trkpt>
      <trkpt lat="44.76783" lon="5.74147">
        <ele>1054.22</ele>
        <time>2026-08-23T10:13:39Z</time>
      </trkpt>
      <trkpt lat="44.768" lon="5.74138">
        <ele>1053.26</ele>
        <time>2026-08-23T10:13:55Z</time>
      </trkpt>
      <trkpt lat="44.76814" lon="5.74122">
        <ele>1049.9</ele>
        <time>2026-08-23T10:14:12Z</time>
      </trkpt>
      <trkpt lat="44.7682" lon="5.74104">
        <ele>1047.01</ele>
        <time>2026-08-23T10:14:27Z</time>
      </trkpt>
      <trkpt lat="44.76824" lon="5.74081">
        <ele>1043.65</ele>
        <time>2026-08-23T10:14:42Z</time>
      </trkpt>
      <trkpt lat="44.76833" lon="5.74067">
        <ele>1044.61</ele>
        <time>2026-08-23T10:14:56Z</time>
      </trkpt>
      <trkpt lat="44.76838" lon="5.74053">
        <ele>1043.65</ele>
        <time>2026-08-23T10:15:11Z</time>
      </trkpt>
      <trkpt lat="44.76843" lon="5.74044">
        <ele>1041.73</ele>
        <time>2026-08-23T10:15:25Z</time>
      </trkpt>
      <trkpt lat="44.76848" lon="5.74039">
        <ele>1040.28</ele>
        <time>2026-08-23T10:15:48Z</time>
      </trkpt>
      <trkpt lat="44.76861" lon="5.74037">
        <ele>1037.4</ele>
        <time>2026-08-23T10:16:05Z</time>
      </trkpt>
      <trkpt lat="44.7687" lon="5.7403">
        <ele>1034.04</ele>
        <time>2026-08-23T10:16:19Z</time>
      </trkpt>
      <trkpt lat="44.76881" lon="5.74024">
        <ele>1030.67</ele>
        <time>2026-08-23T10:16:33Z</time>
      </trkpt>
      <trkpt lat="44.76884" lon="5.74022">
        <ele>1029.71</ele>
        <time>2026-08-23T10:16:37Z</time>
      </trkpt>
      <trkpt lat="44.76886" lon="5.74021">
        <ele>1029.23</ele>
        <time>2026-08-23T10:16:39Z</time>
      </trkpt>
      <trkpt lat="44.76898" lon="5.74011">
        <ele>1026.34</ele>
        <time>2026-08-23T10:16:53Z</time>
      </trkpt>
      <trkpt lat="44.76903" lon="5.7401">
        <ele>1025.86</ele>
        <time>2026-08-23T10:16:58Z</time>
      </trkpt>
      <trkpt lat="44.76908" lon="5.73996">
        <ele>1022.98</ele>
        <time>2026-08-23T10:17:11Z</time>
      </trkpt>
      <trkpt lat="44.76925" lon="5.73982">
        <ele>1020.58</ele>
        <time>2026-08-23T10:17:28Z</time>
      </trkpt>
      <trkpt lat="44.76926" lon="5.73981">
        <ele>1020.1</ele>
        <time>2026-08-23T10:17:29Z</time>
      </trkpt>
      <trkpt lat="44.76924" lon="5.73973">
        <ele>1020.1</ele>
        <time>2026-08-23T10:17:44Z</time>
      </trkpt>
      <trkpt lat="44.76925" lon="5.73968">
        <ele>1020.1</ele>
        <time>2026-08-23T10:18:13Z</time>
      </trkpt>
      <trkpt lat="44.76928" lon="5.73964">
        <ele>1019.13</ele>
        <time>2026-08-23T10:18:17Z</time>
      </trkpt>
      <trkpt lat="44.76939" lon="5.73955">
        <ele>1017.21</ele>
        <time>2026-08-23T10:18:32Z</time>
      </trkpt>
      <trkpt lat="44.7694" lon="5.73955">
        <ele>1017.21</ele>
        <time>2026-08-23T10:18:33Z</time>
      </trkpt>
      <trkpt lat="44.76954" lon="5.73951">
        <ele>1013.85</ele>
        <time>2026-08-23T10:18:48Z</time>
      </trkpt>
      <trkpt lat="44.76959" lon="5.73945">
        <ele>1012.41</ele>
        <time>2026-08-23T10:18:54Z</time>
      </trkpt>
      <trkpt lat="44.76975" lon="5.73937">
        <ele>1008.56</ele>
        <time>2026-08-23T10:19:10Z</time>
      </trkpt>
      <trkpt lat="44.76989" lon="5.73928">
        <ele>1005.68</ele>
        <time>2026-08-23T10:19:23Z</time>
      </trkpt>
      <trkpt lat="44.77003" lon="5.73922">
        <ele>1002.31</ele>
        <time>2026-08-23T10:19:36Z</time>
      </trkpt>
      <trkpt lat="44.77011" lon="5.7391">
        <ele>999.43</ele>
        <time>2026-08-23T10:19:47Z</time>
      </trkpt>
      <trkpt lat="44.77013" lon="5.73908">
        <ele>998.95</ele>
        <time>2026-08-23T10:19:49Z</time>
      </trkpt>
      <trkpt lat="44.77008" lon="5.73891">
        <ele>995.58</ele>
        <time>2026-08-23T10:20:02Z</time>
      </trkpt>
      <trkpt lat="44.77007" lon="5.73888">
        <ele>995.1</ele>
        <time>2026-08-23T10:20:05Z</time>
      </trkpt>
      <trkpt lat="44.77009" lon="5.73883">
        <ele>991.74</ele>
        <time>2026-08-23T10:20:19Z</time>
      </trkpt>
      <trkpt lat="44.77016" lon="5.73887">
        <ele>988.85</ele>
        <time>2026-08-23T10:20:33Z</time>
      </trkpt>
      <trkpt lat="44.77024" lon="5.73884">
        <ele>986.45</ele>
        <time>2026-08-23T10:20:44Z</time>
      </trkpt>
      <trkpt lat="44.77027" lon="5.73879">
        <ele>985.49</ele>
        <time>2026-08-23T10:20:48Z</time>
      </trkpt>
      <trkpt lat="44.77036" lon="5.73864">
        <ele>983.09</ele>
        <time>2026-08-23T10:21:01Z</time>
      </trkpt>
      <trkpt lat="44.77049" lon="5.73856">
        <ele>979.72</ele>
        <time>2026-08-23T10:21:16Z</time>
      </trkpt>
      <trkpt lat="44.7706" lon="5.73845">
        <ele>976.84</ele>
        <time>2026-08-23T10:21:29Z</time>
      </trkpt>
      <trkpt lat="44.77067" lon="5.73829">
        <ele>974.43</ele>
        <time>2026-08-23T10:21:43Z</time>
      </trkpt>
      <trkpt lat="44.77068" lon="5.73827">
        <ele>974.43</ele>
        <time>2026-08-23T10:21:44Z</time>
      </trkpt>
      <trkpt lat="44.77074" lon="5.73817">
        <ele>972.51</ele>
        <time>2026-08-23T10:21:54Z</time>
      </trkpt>
      <trkpt lat="44.77081" lon="5.73805">
        <ele>970.59</ele>
        <time>2026-08-23T10:22:04Z</time>
      </trkpt>
      <trkpt lat="44.77093" lon="5.73794">
        <ele>968.18</ele>
        <time>2026-08-23T10:22:19Z</time>
      </trkpt>
      <trkpt lat="44.77094" lon="5.73789">
        <ele>968.67</ele>
        <time>2026-08-23T10:22:28Z</time>
      </trkpt>
      <trkpt lat="44.77096" lon="5.73767">
        <ele>967.22</ele>
        <time>2026-08-23T10:22:43Z</time>
      </trkpt>
      <trkpt lat="44.77098" lon="5.73752">
        <ele>966.26</ele>
        <time>2026-08-23T10:22:57Z</time>
      </trkpt>
      <trkpt lat="44.77091" lon="5.73751">
        <ele>966.26</ele>
        <time>2026-08-23T10:23:16Z</time>
      </trkpt>
      <trkpt lat="44.7709" lon="5.7375">
        <ele>966.26</ele>
        <time>2026-08-23T10:23:39Z</time>
      </trkpt>
      <trkpt lat="44.77089" lon="5.73745">
        <ele>966.26</ele>
        <time>2026-08-23T10:23:45Z</time>
      </trkpt>
      <trkpt lat="44.77088" lon="5.73739">
        <ele>965.78</ele>
        <time>2026-08-23T10:24:01Z</time>
      </trkpt>
      <trkpt lat="44.77088" lon="5.73741">
        <ele>965.78</ele>
        <time>2026-08-23T10:24:17Z</time>
      </trkpt>
      <trkpt lat="44.77089" lon="5.73748">
        <ele>966.74</ele>
        <time>2026-08-23T10:24:31Z</time>
      </trkpt>
      <trkpt lat="44.77089" lon="5.7375">
        <ele>966.74</ele>
        <time>2026-08-23T10:25:02Z</time>
      </trkpt>
      <trkpt lat="44.77088" lon="5.7375">
        <ele>966.26</ele>
        <time>2026-08-23T10:25:34Z</time>
      </trkpt>
      <trkpt lat="44.77088" lon="5.73751">
        <ele>966.74</ele>
        <time>2026-08-23T10:26:00Z</time>
      </trkpt>
      <trkpt lat="44.77087" lon="5.73749">
        <ele>966.74</ele>
        <time>2026-08-23T10:26:34Z</time>
      </trkpt>
      <trkpt lat="44.77088" lon="5.7375">
        <ele>966.74</ele>
        <time>2026-08-23T10:27:05Z</time>
      </trkpt>
      <trkpt lat="44.77088" lon="5.7375">
        <ele>965.78</ele>
        <time>2026-08-23T10:27:19Z</time>
      </trkpt>
      <trkpt lat="44.77089" lon="5.7375">
        <ele>965.78</ele>
        <time>2026-08-23T10:27:50Z</time>
      </trkpt>
      <trkpt lat="44.7709" lon="5.73748">
        <ele>965.78</ele>
        <time>2026-08-23T10:28:26Z</time>
      </trkpt>
      <trkpt lat="44.77091" lon="5.73746">
        <ele>965.78</ele>
        <time>2026-08-23T10:29:03Z</time>
      </trkpt>
      <trkpt lat="44.77091" lon="5.73747">
        <ele>966.26</ele>
        <time>2026-08-23T10:29:39Z</time>
      </trkpt>
      <trkpt lat="44.77092" lon="5.73748">
        <ele>966.26</ele>
        <time>2026-08-23T10:30:16Z</time>
      </trkpt>
      <trkpt lat="44.77091" lon="5.73748">
        <ele>966.74</ele>
        <time>2026-08-23T10:30:32Z</time>
      </trkpt>
      <trkpt lat="44.77091" lon="5.73748">
        <ele>967.22</ele>
        <time>2026-08-23T10:30:35Z</time>
      </trkpt>
      <trkpt lat="44.77093" lon="5.73741">
        <ele>966.26</ele>
        <time>2026-08-23T10:30:41Z</time>
      </trkpt>
      <trkpt lat="44.77107" lon="5.73722">
        <ele>962.9</ele>
        <time>2026-08-23T10:30:58Z</time>
      </trkpt>
      <trkpt lat="44.77117" lon="5.73704">
        <ele>960.49</ele>
        <time>2026-08-23T10:31:14Z</time>
      </trkpt>
      <trkpt lat="44.77131" lon="5.73685">
        <ele>957.61</ele>
        <time>2026-08-23T10:31:30Z</time>
      </trkpt>
      <trkpt lat="44.77143" lon="5.73664">
        <ele>955.21</ele>
        <time>2026-08-23T10:31:47Z</time>
      </trkpt>
      <trkpt lat="44.77154" lon="5.73643">
        <ele>952.8</ele>
        <time>2026-08-23T10:32:02Z</time>
      </trkpt>
      <trkpt lat="44.77164" lon="5.73623">
        <ele>950.4</ele>
        <time>2026-08-23T10:32:17Z</time>
      </trkpt>
      <trkpt lat="44.77165" lon="5.73619">
        <ele>949.92</ele>
        <time>2026-08-23T10:32:20Z</time>
      </trkpt>
      <trkpt lat="44.7717" lon="5.73602">
        <ele>948</ele>
        <time>2026-08-23T10:32:34Z</time>
      </trkpt>
      <trkpt lat="44.77176" lon="5.73582">
        <ele>945.59</ele>
        <time>2026-08-23T10:32:51Z</time>
      </trkpt>
      <trkpt lat="44.7718" lon="5.73559">
        <ele>943.19</ele>
        <time>2026-08-23T10:33:06Z</time>
      </trkpt>
      <trkpt lat="44.77184" lon="5.73536">
        <ele>941.75</ele>
        <time>2026-08-23T10:33:20Z</time>
      </trkpt>
      <trkpt lat="44.7719" lon="5.73516">
        <ele>939.35</ele>
        <time>2026-08-23T10:33:35Z</time>
      </trkpt>
      <trkpt lat="44.7719" lon="5.73516">
        <ele>939.35</ele>
        <time>2026-08-23T10:33:57Z</time>
      </trkpt>
      <trkpt lat="44.77191" lon="5.73516">
        <ele>939.35</ele>
        <time>2026-08-23T10:34:00Z</time>
      </trkpt>
      <trkpt lat="44.77192" lon="5.7351">
        <ele>938.86</ele>
        <time>2026-08-23T10:34:05Z</time>
      </trkpt>
      <trkpt lat="44.77199" lon="5.73488">
        <ele>936.46</ele>
        <time>2026-08-23T10:34:20Z</time>
      </trkpt>
      <trkpt lat="44.7721" lon="5.73467">
        <ele>934.06</ele>
        <time>2026-08-23T10:34:39Z</time>
      </trkpt>
      <trkpt lat="44.77214" lon="5.73462">
        <ele>934.06</ele>
        <time>2026-08-23T10:34:54Z</time>
      </trkpt>
      <trkpt lat="44.77213" lon="5.7346">
        <ele>933.58</ele>
        <time>2026-08-23T10:35:16Z</time>
      </trkpt>
      <trkpt lat="44.77213" lon="5.7346">
        <ele>933.58</ele>
        <time>2026-08-23T10:35:49Z</time>
      </trkpt>
      <trkpt lat="44.77213" lon="5.7346">
        <ele>933.58</ele>
        <time>2026-08-23T10:36:18Z</time>
      </trkpt>
      <trkpt lat="44.77214" lon="5.73459">
        <ele>933.58</ele>
        <time>2026-08-23T10:36:58Z</time>
      </trkpt>
      <trkpt lat="44.77216" lon="5.73457">
        <ele>933.58</ele>
        <time>2026-08-23T10:37:32Z</time>
      </trkpt>
      <trkpt lat="44.77221" lon="5.73455">
        <ele>933.1</ele>
        <time>2026-08-23T10:37:39Z</time>
      </trkpt>
      <trkpt lat="44.77225" lon="5.73453">
        <ele>932.62</ele>
        <time>2026-08-23T10:37:45Z</time>
      </trkpt>
      <trkpt lat="44.77241" lon="5.73448">
        <ele>932.14</ele>
        <time>2026-08-23T10:38:00Z</time>
      </trkpt>
      <trkpt lat="44.77257" lon="5.73442">
        <ele>932.14</ele>
        <time>2026-08-23T10:38:16Z</time>
      </trkpt>
      <trkpt lat="44.7727" lon="5.73429">
        <ele>931.65</ele>
        <time>2026-08-23T10:38:31Z</time>
      </trkpt>
      <trkpt lat="44.77283" lon="5.73417">
        <ele>931.17</ele>
        <time>2026-08-23T10:38:44Z</time>
      </trkpt>
      <trkpt lat="44.77287" lon="5.73415">
        <ele>930.69</ele>
        <time>2026-08-23T10:38:48Z</time>
      </trkpt>
      <trkpt lat="44.77305" lon="5.73409">
        <ele>929.25</ele>
        <time>2026-08-23T10:39:04Z</time>
      </trkpt>
      <trkpt lat="44.77307" lon="5.73409">
        <ele>929.25</ele>
        <time>2026-08-23T10:39:06Z</time>
      </trkpt>
      <trkpt lat="44.77313" lon="5.73402">
        <ele>928.77</ele>
        <time>2026-08-23T10:39:12Z</time>
      </trkpt>
      <trkpt lat="44.77318" lon="5.73395">
        <ele>928.77</ele>
        <time>2026-08-23T10:39:17Z</time>
      </trkpt>
      <trkpt lat="44.77325" lon="5.73386">
        <ele>928.29</ele>
        <time>2026-08-23T10:39:22Z</time>
      </trkpt>
      <trkpt lat="44.77327" lon="5.73362">
        <ele>926.85</ele>
        <time>2026-08-23T10:39:35Z</time>
      </trkpt>
      <trkpt lat="44.77326" lon="5.73358">
        <ele>926.85</ele>
        <time>2026-08-23T10:39:37Z</time>
      </trkpt>
      <trkpt lat="44.77324" lon="5.73351">
        <ele>926.37</ele>
        <time>2026-08-23T10:39:41Z</time>
      </trkpt>
      <trkpt lat="44.77324" lon="5.73332">
        <ele>925.41</ele>
        <time>2026-08-23T10:39:53Z</time>
      </trkpt>
      <trkpt lat="44.7733" lon="5.73317">
        <ele>923.96</ele>
        <time>2026-08-23T10:40:07Z</time>
      </trkpt>
      <trkpt lat="44.77331" lon="5.73314">
        <ele>923.48</ele>
        <time>2026-08-23T10:40:09Z</time>
      </trkpt>
      <trkpt lat="44.77334" lon="5.73312">
        <ele>923.48</ele>
        <time>2026-08-23T10:40:12Z</time>
      </trkpt>
      <trkpt lat="44.77335" lon="5.73311">
        <ele>923</ele>
        <time>2026-08-23T10:40:14Z</time>
      </trkpt>
      <trkpt lat="44.77341" lon="5.73306">
        <ele>923</ele>
        <time>2026-08-23T10:40:22Z</time>
      </trkpt>
      <trkpt lat="44.77351" lon="5.73293">
        <ele>922.52</ele>
        <time>2026-08-23T10:40:34Z</time>
      </trkpt>
      <trkpt lat="44.77366" lon="5.7328">
        <ele>921.56</ele>
        <time>2026-08-23T10:40:49Z</time>
      </trkpt>
      <trkpt lat="44.77377" lon="5.73266">
        <ele>920.12</ele>
        <time>2026-08-23T10:41:02Z</time>
      </trkpt>
      <trkpt lat="44.77384" lon="5.73261">
        <ele>920.12</ele>
        <time>2026-08-23T10:41:09Z</time>
      </trkpt>
      <trkpt lat="44.77388" lon="5.73253">
        <ele>919.16</ele>
        <time>2026-08-23T10:41:13Z</time>
      </trkpt>
      <trkpt lat="44.77395" lon="5.73244">
        <ele>918.68</ele>
        <time>2026-08-23T10:41:22Z</time>
      </trkpt>
      <trkpt lat="44.77401" lon="5.73248">
        <ele>917.72</ele>
        <time>2026-08-23T10:41:37Z</time>
      </trkpt>
      <trkpt lat="44.77402" lon="5.73253">
        <ele>917.24</ele>
        <time>2026-08-23T10:41:53Z</time>
      </trkpt>
      <trkpt lat="44.77402" lon="5.73254">
        <ele>916.75</ele>
        <time>2026-08-23T10:42:18Z</time>
      </trkpt>
      <trkpt lat="44.77402" lon="5.73255">
        <ele>917.24</ele>
        <time>2026-08-23T10:42:39Z</time>
      </trkpt>
      <trkpt lat="44.77404" lon="5.73251">
        <ele>916.75</ele>
        <time>2026-08-23T10:42:42Z</time>
      </trkpt>
      <trkpt lat="44.77402" lon="5.73237">
        <ele>917.72</ele>
        <time>2026-08-23T10:42:52Z</time>
      </trkpt>
      <trkpt lat="44.77395" lon="5.73214">
        <ele>917.24</ele>
        <time>2026-08-23T10:43:08Z</time>
      </trkpt>
      <trkpt lat="44.77387" lon="5.732">
        <ele>917.24</ele>
        <time>2026-08-23T10:43:21Z</time>
      </trkpt>
      <trkpt lat="44.77382" lon="5.73181">
        <ele>916.75</ele>
        <time>2026-08-23T10:43:32Z</time>
      </trkpt>
      <trkpt lat="44.77379" lon="5.73175">
        <ele>916.27</ele>
        <time>2026-08-23T10:43:36Z</time>
      </trkpt>
      <trkpt lat="44.7738" lon="5.73165">
        <ele>915.31</ele>
        <time>2026-08-23T10:43:43Z</time>
      </trkpt>
      <trkpt lat="44.77378" lon="5.73155">
        <ele>914.83</ele>
        <time>2026-08-23T10:43:49Z</time>
      </trkpt>
      <trkpt lat="44.77385" lon="5.73139">
        <ele>913.39</ele>
        <time>2026-08-23T10:44:02Z</time>
      </trkpt>
      <trkpt lat="44.77394" lon="5.73123">
        <ele>912.91</ele>
        <time>2026-08-23T10:44:17Z</time>
      </trkpt>
      <trkpt lat="44.77398" lon="5.73115">
        <ele>912.43</ele>
        <time>2026-08-23T10:44:23Z</time>
      </trkpt>
      <trkpt lat="44.77401" lon="5.73108">
        <ele>912.43</ele>
        <time>2026-08-23T10:44:27Z</time>
      </trkpt>
      <trkpt lat="44.77407" lon="5.73096">
        <ele>911.95</ele>
        <time>2026-08-23T10:44:37Z</time>
      </trkpt>
      <trkpt lat="44.77411" lon="5.73089">
        <ele>911.95</ele>
        <time>2026-08-23T10:44:42Z</time>
      </trkpt>
      <trkpt lat="44.77415" lon="5.73079">
        <ele>911.95</ele>
        <time>2026-08-23T10:44:49Z</time>
      </trkpt>
      <trkpt lat="44.77422" lon="5.73067">
        <ele>911.95</ele>
        <time>2026-08-23T10:44:59Z</time>
      </trkpt>
      <trkpt lat="44.77431" lon="5.73054">
        <ele>912.43</ele>
        <time>2026-08-23T10:45:10Z</time>
      </trkpt>
      <trkpt lat="44.77435" lon="5.73044">
        <ele>911.95</ele>
        <time>2026-08-23T10:45:16Z</time>
      </trkpt>
      <trkpt lat="44.77438" lon="5.73037">
        <ele>911.47</ele>
        <time>2026-08-23T10:45:21Z</time>
      </trkpt>
      <trkpt lat="44.77445" lon="5.73011">
        <ele>910.99</ele>
        <time>2026-08-23T10:45:38Z</time>
      </trkpt>
      <trkpt lat="44.77451" lon="5.72989">
        <ele>910.51</ele>
        <time>2026-08-23T10:45:52Z</time>
      </trkpt>
      <trkpt lat="44.77453" lon="5.72978">
        <ele>910.51</ele>
        <time>2026-08-23T10:46:00Z</time>
      </trkpt>
      <trkpt lat="44.77454" lon="5.72975">
        <ele>910.03</ele>
        <time>2026-08-23T10:46:03Z</time>
      </trkpt>
      <trkpt lat="44.77452" lon="5.72969">
        <ele>909.54</ele>
        <time>2026-08-23T10:46:07Z</time>
      </trkpt>
      <trkpt lat="44.77454" lon="5.72959">
        <ele>908.58</ele>
        <time>2026-08-23T10:46:15Z</time>
      </trkpt>
      <trkpt lat="44.77454" lon="5.72953">
        <ele>908.58</ele>
        <time>2026-08-23T10:46:19Z</time>
      </trkpt>
      <trkpt lat="44.77456" lon="5.72944">
        <ele>909.06</ele>
        <time>2026-08-23T10:46:27Z</time>
      </trkpt>
      <trkpt lat="44.77458" lon="5.72933">
        <ele>908.1</ele>
        <time>2026-08-23T10:46:35Z</time>
      </trkpt>
      <trkpt lat="44.77458" lon="5.7293">
        <ele>909.06</ele>
        <time>2026-08-23T10:46:42Z</time>
      </trkpt>
      <trkpt lat="44.77458" lon="5.72922">
        <ele>909.06</ele>
        <time>2026-08-23T10:46:54Z</time>
      </trkpt>
      <trkpt lat="44.77458" lon="5.72918">
        <ele>908.58</ele>
        <time>2026-08-23T10:46:57Z</time>
      </trkpt>
      <trkpt lat="44.77456" lon="5.72894">
        <ele>909.06</ele>
        <time>2026-08-23T10:47:12Z</time>
      </trkpt>
      <trkpt lat="44.77456" lon="5.72878">
        <ele>910.51</ele>
        <time>2026-08-23T10:47:24Z</time>
      </trkpt>
      <trkpt lat="44.7746" lon="5.72861">
        <ele>910.99</ele>
        <time>2026-08-23T10:47:35Z</time>
      </trkpt>
      <trkpt lat="44.77461" lon="5.72859">
        <ele>910.99</ele>
        <time>2026-08-23T10:47:37Z</time>
      </trkpt>
      <trkpt lat="44.77464" lon="5.72839">
        <ele>911.47</ele>
        <time>2026-08-23T10:47:54Z</time>
      </trkpt>
      <trkpt lat="44.77463" lon="5.72839">
        <ele>911.47</ele>
        <time>2026-08-23T10:48:01Z</time>
      </trkpt>
      <trkpt lat="44.77464" lon="5.72835">
        <ele>911.47</ele>
        <time>2026-08-23T10:48:04Z</time>
      </trkpt>
      <trkpt lat="44.77469" lon="5.72811">
        <ele>911.95</ele>
        <time>2026-08-23T10:48:22Z</time>
      </trkpt>
      <trkpt lat="44.7747" lon="5.72803">
        <ele>911.95</ele>
        <time>2026-08-23T10:48:34Z</time>
      </trkpt>
      <trkpt lat="44.77474" lon="5.72772">
        <ele>912.43</ele>
        <time>2026-08-23T10:48:53Z</time>
      </trkpt>
      <trkpt lat="44.77473" lon="5.72762">
        <ele>911.95</ele>
        <time>2026-08-23T10:48:59Z</time>
      </trkpt>
      <trkpt lat="44.77474" lon="5.72757">
        <ele>911.95</ele>
        <time>2026-08-23T10:49:03Z</time>
      </trkpt>
      <trkpt lat="44.77477" lon="5.72745">
        <ele>911.47</ele>
        <time>2026-08-23T10:49:14Z</time>
      </trkpt>
      <trkpt lat="44.7748" lon="5.72717">
        <ele>911.47</ele>
        <time>2026-08-23T10:49:30Z</time>
      </trkpt>
      <trkpt lat="44.77481" lon="5.72715">
        <ele>911.95</ele>
        <time>2026-08-23T10:49:31Z</time>
      </trkpt>
      <trkpt lat="44.77479" lon="5.72695">
        <ele>912.43</ele>
        <time>2026-08-23T10:49:44Z</time>
      </trkpt>
      <trkpt lat="44.77474" lon="5.72672">
        <ele>913.39</ele>
        <time>2026-08-23T10:49:59Z</time>
      </trkpt>
      <trkpt lat="44.77467" lon="5.72651">
        <ele>914.83</ele>
        <time>2026-08-23T10:50:15Z</time>
      </trkpt>
      <trkpt lat="44.77466" lon="5.72637">
        <ele>915.31</ele>
        <time>2026-08-23T10:50:26Z</time>
      </trkpt>
      <trkpt lat="44.77466" lon="5.72616">
        <ele>917.24</ele>
        <time>2026-08-23T10:50:42Z</time>
      </trkpt>
      <trkpt lat="44.77464" lon="5.72594">
        <ele>918.68</ele>
        <time>2026-08-23T10:50:59Z</time>
      </trkpt>
      <trkpt lat="44.77462" lon="5.72586">
        <ele>919.16</ele>
        <time>2026-08-23T10:51:06Z</time>
      </trkpt>
      <trkpt lat="44.77456" lon="5.72567">
        <ele>920.6</ele>
        <time>2026-08-23T10:51:20Z</time>
      </trkpt>
      <trkpt lat="44.77458" lon="5.72562">
        <ele>921.08</ele>
        <time>2026-08-23T10:51:32Z</time>
      </trkpt>
      <trkpt lat="44.7746" lon="5.72542">
        <ele>923.48</ele>
        <time>2026-08-23T10:51:50Z</time>
      </trkpt>
      <trkpt lat="44.77464" lon="5.72534">
        <ele>925.41</ele>
        <time>2026-08-23T10:52:07Z</time>
      </trkpt>
      <trkpt lat="44.77464" lon="5.7253">
        <ele>925.41</ele>
        <time>2026-08-23T10:52:21Z</time>
      </trkpt>
      <trkpt lat="44.77464" lon="5.72529">
        <ele>924.45</ele>
        <time>2026-08-23T10:52:42Z</time>
      </trkpt>
      <trkpt lat="44.77461" lon="5.72529">
        <ele>924.45</ele>
        <time>2026-08-23T10:53:17Z</time>
      </trkpt>
      <trkpt lat="44.7746" lon="5.72528">
        <ele>924.45</ele>
        <time>2026-08-23T10:53:47Z</time>
      </trkpt>
      <trkpt lat="44.77461" lon="5.72529">
        <ele>924.93</ele>
        <time>2026-08-23T10:54:27Z</time>
      </trkpt>
      <trkpt lat="44.77462" lon="5.7253">
        <ele>924.93</ele>
        <time>2026-08-23T10:55:04Z</time>
      </trkpt>
      <trkpt lat="44.77462" lon="5.7253">
        <ele>924.93</ele>
        <time>2026-08-23T10:55:48Z</time>
      </trkpt>
      <trkpt lat="44.77462" lon="5.7253">
        <ele>924.93</ele>
        <time>2026-08-23T10:56:37Z</time>
      </trkpt>
      <trkpt lat="44.77463" lon="5.72529">
        <ele>924.93</ele>
        <time>2026-08-23T10:57:20Z</time>
      </trkpt>
      <trkpt lat="44.77464" lon="5.72529">
        <ele>924.93</ele>
        <time>2026-08-23T10:57:58Z</time>
      </trkpt>
      <trkpt lat="44.77463" lon="5.72529">
        <ele>925.41</ele>
        <time>2026-08-23T10:58:38Z</time>
      </trkpt>
      <trkpt lat="44.77463" lon="5.72529">
        <ele>925.41</ele>
        <time>2026-08-23T10:59:19Z</time>
      </trkpt>
      <trkpt lat="44.77462" lon="5.7253">
        <ele>925.41</ele>
        <time>2026-08-23T10:59:56Z</time>
      </trkpt>
      <trkpt lat="44.77463" lon="5.7253">
        <ele>925.41</ele>
        <time>2026-08-23T11:00:35Z</time>
      </trkpt>
      <trkpt lat="44.77463" lon="5.7253">
        <ele>925.41</ele>
        <time>2026-08-23T11:01:13Z</time>
      </trkpt>
      <trkpt lat="44.77464" lon="5.7253">
        <ele>925.41</ele>
        <time>2026-08-23T11:01:49Z</time>
      </trkpt>
      <trkpt lat="44.77464" lon="5.7253">
        <ele>925.41</ele>
        <time>2026-08-23T11:02:20Z</time>
      </trkpt>
      <trkpt lat="44.77464" lon="5.7253">
        <ele>925.41</ele>
        <time>2026-08-23T11:02:55Z</time>
      </trkpt>
      <trkpt lat="44.77463" lon="5.7253">
        <ele>925.41</ele>
        <time>2026-08-23T11:03:30Z</time>
      </trkpt>
      <trkpt lat="44.77464" lon="5.72529">
        <ele>925.41</ele>
        <time>2026-08-23T11:04:03Z</time>
      </trkpt>
      <trkpt lat="44.77463" lon="5.72529">
        <ele>925.41</ele>
        <time>2026-08-23T11:04:35Z</time>
      </trkpt>
      <trkpt lat="44.77464" lon="5.72529">
        <ele>925.41</ele>
        <time>2026-08-23T11:05:05Z</time>
      </trkpt>
      <trkpt lat="44.77464" lon="5.72529">
        <ele>925.41</ele>
        <time>2026-08-23T11:05:40Z</time>
      </trkpt>
      <trkpt lat="44.77464" lon="5.7253">
        <ele>925.41</ele>
        <time>2026-08-23T11:06:16Z</time>
      </trkpt>
      <trkpt lat="44.77463" lon="5.7253">
        <ele>925.41</ele>
        <time>2026-08-23T11:06:52Z</time>
      </trkpt>
      <trkpt lat="44.77463" lon="5.7253">
        <ele>925.41</ele>
        <time>2026-08-23T11:07:27Z</time>
      </trkpt>
      <trkpt lat="44.77463" lon="5.72529">
        <ele>925.41</ele>
        <time>2026-08-23T11:08:02Z</time>
      </trkpt>
      <trkpt lat="44.77464" lon="5.72529">
        <ele>925.41</ele>
        <time>2026-08-23T11:08:36Z</time>
      </trkpt>
      <trkpt lat="44.77464" lon="5.72529">
        <ele>925.41</ele>
        <time>2026-08-23T11:09:09Z</time>
      </trkpt>
      <trkpt lat="44.77463" lon="5.72528">
        <ele>925.89</ele>
        <time>2026-08-23T11:09:48Z</time>
      </trkpt>
      <trkpt lat="44.77463" lon="5.72529">
        <ele>925.41</ele>
        <time>2026-08-23T11:10:30Z</time>
      </trkpt>
      <trkpt lat="44.77463" lon="5.7253">
        <ele>925.41</ele>
        <time>2026-08-23T11:11:09Z</time>
      </trkpt>
      <trkpt lat="44.77463" lon="5.7253">
        <ele>925.41</ele>
        <time>2026-08-23T11:11:41Z</time>
      </trkpt>
      <trkpt lat="44.77463" lon="5.7253">
        <ele>925.41</ele>
        <time>2026-08-23T11:12:17Z</time>
      </trkpt>
      <trkpt lat="44.77463" lon="5.72531">
        <ele>925.41</ele>
        <time>2026-08-23T11:12:54Z</time>
      </trkpt>
      <trkpt lat="44.77462" lon="5.7253">
        <ele>925.89</ele>
        <time>2026-08-23T11:13:30Z</time>
      </trkpt>
      <trkpt lat="44.77462" lon="5.7253">
        <ele>925.41</ele>
        <time>2026-08-23T11:14:04Z</time>
      </trkpt>
      <trkpt lat="44.77462" lon="5.72529">
        <ele>925.41</ele>
        <time>2026-08-23T11:14:41Z</time>
      </trkpt>
      <trkpt lat="44.77462" lon="5.72529">
        <ele>925.41</ele>
        <time>2026-08-23T11:15:15Z</time>
      </trkpt>
      <trkpt lat="44.77462" lon="5.72529">
        <ele>925.41</ele>
        <time>2026-08-23T11:15:51Z</time>
      </trkpt>
      <trkpt lat="44.77462" lon="5.72529">
        <ele>925.41</ele>
        <time>2026-08-23T11:16:30Z</time>
      </trkpt>
      <trkpt lat="44.77463" lon="5.7253">
        <ele>925.41</ele>
        <time>2026-08-23T11:17:06Z</time>
      </trkpt>
      <trkpt lat="44.77462" lon="5.7253">
        <ele>925.41</ele>
        <time>2026-08-23T11:17:39Z</time>
      </trkpt>
      <trkpt lat="44.77462" lon="5.72529">
        <ele>924.93</ele>
        <time>2026-08-23T11:18:13Z</time>
      </trkpt>
      <trkpt lat="44.77462" lon="5.72529">
        <ele>925.41</ele>
        <time>2026-08-23T11:18:45Z</time>
      </trkpt>
      <trkpt lat="44.77462" lon="5.72529">
        <ele>925.41</ele>
        <time>2026-08-23T11:19:20Z</time>
      </trkpt>
      <trkpt lat="44.77462" lon="5.72529">
        <ele>925.41</ele>
        <time>2026-08-23T11:19:54Z</time>
      </trkpt>
      <trkpt lat="44.77462" lon="5.72528">
        <ele>925.41</ele>
        <time>2026-08-23T11:20:26Z</time>
      </trkpt>
      <trkpt lat="44.77462" lon="5.72528">
        <ele>925.41</ele>
        <time>2026-08-23T11:21:01Z</time>
      </trkpt>
      <trkpt lat="44.77463" lon="5.72529">
        <ele>925.89</ele>
        <time>2026-08-23T11:21:40Z</time>
      </trkpt>
      <trkpt lat="44.77463" lon="5.72529">
        <ele>925.41</ele>
        <time>2026-08-23T11:22:16Z</time>
      </trkpt>
      <trkpt lat="44.77462" lon="5.7253">
        <ele>925.89</ele>
        <time>2026-08-23T11:22:53Z</time>
      </trkpt>
      <trkpt lat="44.77462" lon="5.72531">
        <ele>925.89</ele>
        <time>2026-08-23T11:23:32Z</time>
      </trkpt>
      <trkpt lat="44.77462" lon="5.7253">
        <ele>925.89</ele>
        <time>2026-08-23T11:24:07Z</time>
      </trkpt>
      <trkpt lat="44.77462" lon="5.7253">
        <ele>925.89</ele>
        <time>2026-08-23T11:24:40Z</time>
      </trkpt>
      <trkpt lat="44.77462" lon="5.7253">
        <ele>925.89</ele>
        <time>2026-08-23T11:25:12Z</time>
      </trkpt>
      <trkpt lat="44.77461" lon="5.7253">
        <ele>925.89</ele>
        <time>2026-08-23T11:25:46Z</time>
      </trkpt>
      <trkpt lat="44.77461" lon="5.72529">
        <ele>925.89</ele>
        <time>2026-08-23T11:26:26Z</time>
      </trkpt>
      <trkpt lat="44.77461" lon="5.72529">
        <ele>925.89</ele>
        <time>2026-08-23T11:27:06Z</time>
      </trkpt>
      <trkpt lat="44.77461" lon="5.7253">
        <ele>926.37</ele>
        <time>2026-08-23T11:27:44Z</time>
      </trkpt>
      <trkpt lat="44.77461" lon="5.7253">
        <ele>925.89</ele>
        <time>2026-08-23T11:28:15Z</time>
      </trkpt>
      <trkpt lat="44.77461" lon="5.7253">
        <ele>926.37</ele>
        <time>2026-08-23T11:28:52Z</time>
      </trkpt>
      <trkpt lat="44.7746" lon="5.72531">
        <ele>926.85</ele>
        <time>2026-08-23T11:29:22Z</time>
      </trkpt>
      <trkpt lat="44.77461" lon="5.72531">
        <ele>926.85</ele>
        <time>2026-08-23T11:29:38Z</time>
      </trkpt>
      <trkpt lat="44.77459" lon="5.7253">
        <ele>926.37</ele>
        <time>2026-08-23T11:29:46Z</time>
      </trkpt>
      <trkpt lat="44.77452" lon="5.72528">
        <ele>925.89</ele>
        <time>2026-08-23T11:29:55Z</time>
      </trkpt>
      <trkpt lat="44.77442" lon="5.72534">
        <ele>923.48</ele>
        <time>2026-08-23T11:30:08Z</time>
      </trkpt>
      <trkpt lat="44.77442" lon="5.72532">
        <ele>923.48</ele>
        <time>2026-08-23T11:30:10Z</time>
      </trkpt>
      <trkpt lat="44.77439" lon="5.72515">
        <ele>923</ele>
        <time>2026-08-23T11:30:24Z</time>
      </trkpt>
      <trkpt lat="44.7744" lon="5.72502">
        <ele>922.04</ele>
        <time>2026-08-23T11:30:32Z</time>
      </trkpt>
      <trkpt lat="44.77442" lon="5.72485">
        <ele>920.6</ele>
        <time>2026-08-23T11:30:44Z</time>
      </trkpt>
      <trkpt lat="44.77445" lon="5.72466">
        <ele>918.68</ele>
        <time>2026-08-23T11:30:57Z</time>
      </trkpt>
      <trkpt lat="44.77445" lon="5.72446">
        <ele>917.24</ele>
        <time>2026-08-23T11:31:09Z</time>
      </trkpt>
      <trkpt lat="44.77446" lon="5.72444">
        <ele>917.24</ele>
        <time>2026-08-23T11:31:11Z</time>
      </trkpt>
      <trkpt lat="44.77447" lon="5.7242">
        <ele>915.79</ele>
        <time>2026-08-23T11:31:26Z</time>
      </trkpt>
      <trkpt lat="44.77455" lon="5.72393">
        <ele>914.83</ele>
        <time>2026-08-23T11:31:43Z</time>
      </trkpt>
      <trkpt lat="44.77458" lon="5.7237">
        <ele>914.35</ele>
        <time>2026-08-23T11:32:00Z</time>
      </trkpt>
      <trkpt lat="44.77466" lon="5.72344">
        <ele>913.87</ele>
        <time>2026-08-23T11:32:20Z</time>
      </trkpt>
      <trkpt lat="44.77472" lon="5.72331">
        <ele>913.87</ele>
        <time>2026-08-23T11:32:27Z</time>
      </trkpt>
      <trkpt lat="44.7748" lon="5.72302">
        <ele>913.39</ele>
        <time>2026-08-23T11:32:46Z</time>
      </trkpt>
      <trkpt lat="44.77487" lon="5.72269">
        <ele>912.91</ele>
        <time>2026-08-23T11:33:06Z</time>
      </trkpt>
      <trkpt lat="44.77487" lon="5.72267">
        <ele>912.91</ele>
        <time>2026-08-23T11:33:08Z</time>
      </trkpt>
      <trkpt lat="44.77493" lon="5.72249">
        <ele>912.43</ele>
        <time>2026-08-23T11:33:21Z</time>
      </trkpt>
      <trkpt lat="44.77497" lon="5.72234">
        <ele>911.47</ele>
        <time>2026-08-23T11:33:30Z</time>
      </trkpt>
      <trkpt lat="44.7751" lon="5.72205">
        <ele>910.51</ele>
        <time>2026-08-23T11:33:49Z</time>
      </trkpt>
      <trkpt lat="44.77519" lon="5.72187">
        <ele>909.54</ele>
        <time>2026-08-23T11:34:04Z</time>
      </trkpt>
      <trkpt lat="44.77521" lon="5.72183">
        <ele>909.06</ele>
        <time>2026-08-23T11:34:23Z</time>
      </trkpt>
      <trkpt lat="44.77524" lon="5.72178">
        <ele>909.06</ele>
        <time>2026-08-23T11:34:44Z</time>
      </trkpt>
      <trkpt lat="44.77531" lon="5.72167">
        <ele>908.58</ele>
        <time>2026-08-23T11:35:01Z</time>
      </trkpt>
      <trkpt lat="44.77542" lon="5.72144">
        <ele>907.62</ele>
        <time>2026-08-23T11:35:21Z</time>
      </trkpt>
      <trkpt lat="44.77547" lon="5.72129">
        <ele>907.14</ele>
        <time>2026-08-23T11:35:32Z</time>
      </trkpt>
      <trkpt lat="44.77551" lon="5.72122">
        <ele>907.14</ele>
        <time>2026-08-23T11:35:36Z</time>
      </trkpt>
      <trkpt lat="44.7756" lon="5.72094">
        <ele>907.14</ele>
        <time>2026-08-23T11:35:55Z</time>
      </trkpt>
      <trkpt lat="44.77566" lon="5.7207">
        <ele>906.66</ele>
        <time>2026-08-23T11:36:11Z</time>
      </trkpt>
      <trkpt lat="44.77575" lon="5.72044">
        <ele>906.66</ele>
        <time>2026-08-23T11:36:29Z</time>
      </trkpt>
      <trkpt lat="44.77582" lon="5.7202">
        <ele>905.7</ele>
        <time>2026-08-23T11:36:44Z</time>
      </trkpt>
      <trkpt lat="44.77588" lon="5.71993">
        <ele>905.7</ele>
        <time>2026-08-23T11:37:02Z</time>
      </trkpt>
      <trkpt lat="44.77592" lon="5.71975">
        <ele>906.18</ele>
        <time>2026-08-23T11:37:15Z</time>
      </trkpt>
      <trkpt lat="44.77594" lon="5.71954">
        <ele>904.26</ele>
        <time>2026-08-23T11:37:31Z</time>
      </trkpt>
      <trkpt lat="44.77595" lon="5.71954">
        <ele>904.74</ele>
        <time>2026-08-23T11:37:50Z</time>
      </trkpt>
      <trkpt lat="44.77596" lon="5.71951">
        <ele>904.74</ele>
        <time>2026-08-23T11:38:06Z</time>
      </trkpt>
      <trkpt lat="44.77597" lon="5.71938">
        <ele>904.26</ele>
        <time>2026-08-23T11:38:30Z</time>
      </trkpt>
      <trkpt lat="44.77596" lon="5.7191">
        <ele>903.3</ele>
        <time>2026-08-23T11:38:48Z</time>
      </trkpt>
      <trkpt lat="44.77592" lon="5.71885">
        <ele>901.37</ele>
        <time>2026-08-23T11:39:03Z</time>
      </trkpt>
      <trkpt lat="44.77589" lon="5.71869">
        <ele>900.41</ele>
        <time>2026-08-23T11:39:15Z</time>
      </trkpt>
      <trkpt lat="44.77584" lon="5.7185">
        <ele>897.53</ele>
        <time>2026-08-23T11:39:26Z</time>
      </trkpt>
      <trkpt lat="44.77583" lon="5.71839">
        <ele>897.05</ele>
        <time>2026-08-23T11:39:32Z</time>
      </trkpt>
      <trkpt lat="44.77586" lon="5.71811">
        <ele>895.12</ele>
        <time>2026-08-23T11:39:50Z</time>
      </trkpt>
      <trkpt lat="44.77596" lon="5.71792">
        <ele>894.16</ele>
        <time>2026-08-23T11:40:08Z</time>
      </trkpt>
      <trkpt lat="44.776" lon="5.71788">
        <ele>893.68</ele>
        <time>2026-08-23T11:40:12Z</time>
      </trkpt>
      <trkpt lat="44.77608" lon="5.71771">
        <ele>892.72</ele>
        <time>2026-08-23T11:40:26Z</time>
      </trkpt>
      <trkpt lat="44.77611" lon="5.71766">
        <ele>892.72</ele>
        <time>2026-08-23T11:40:30Z</time>
      </trkpt>
      <trkpt lat="44.77624" lon="5.71746">
        <ele>891.76</ele>
        <time>2026-08-23T11:40:46Z</time>
      </trkpt>
      <trkpt lat="44.77638" lon="5.71728">
        <ele>891.28</ele>
        <time>2026-08-23T11:41:04Z</time>
      </trkpt>
      <trkpt lat="44.77645" lon="5.71721">
        <ele>891.28</ele>
        <time>2026-08-23T11:41:18Z</time>
      </trkpt>
      <trkpt lat="44.77654" lon="5.71705">
        <ele>890.8</ele>
        <time>2026-08-23T11:41:31Z</time>
      </trkpt>
      <trkpt lat="44.77667" lon="5.71684">
        <ele>890.32</ele>
        <time>2026-08-23T11:41:49Z</time>
      </trkpt>
      <trkpt lat="44.77686" lon="5.71659">
        <ele>890.32</ele>
        <time>2026-08-23T11:42:08Z</time>
      </trkpt>
      <trkpt lat="44.77689" lon="5.71648">
        <ele>890.8</ele>
        <time>2026-08-23T11:42:23Z</time>
      </trkpt>
      <trkpt lat="44.77682" lon="5.71646">
        <ele>890.32</ele>
        <time>2026-08-23T11:42:49Z</time>
      </trkpt>
      <trkpt lat="44.77682" lon="5.71644">
        <ele>890.32</ele>
        <time>2026-08-23T11:43:13Z</time>
      </trkpt>
      <trkpt lat="44.77685" lon="5.71638">
        <ele>890.32</ele>
        <time>2026-08-23T11:43:24Z</time>
      </trkpt>
      <trkpt lat="44.77688" lon="5.71636">
        <ele>890.32</ele>
        <time>2026-08-23T11:43:28Z</time>
      </trkpt>
      <trkpt lat="44.7769" lon="5.71633">
        <ele>889.84</ele>
        <time>2026-08-23T11:43:31Z</time>
      </trkpt>
      <trkpt lat="44.77704" lon="5.71612">
        <ele>889.84</ele>
        <time>2026-08-23T11:43:48Z</time>
      </trkpt>
      <trkpt lat="44.7771" lon="5.71607">
        <ele>890.32</ele>
        <time>2026-08-23T11:43:54Z</time>
      </trkpt>
      <trkpt lat="44.77725" lon="5.71584">
        <ele>890.32</ele>
        <time>2026-08-23T11:44:14Z</time>
      </trkpt>
      <trkpt lat="44.77742" lon="5.71559">
        <ele>889.84</ele>
        <time>2026-08-23T11:44:33Z</time>
      </trkpt>
      <trkpt lat="44.77759" lon="5.71537">
        <ele>888.88</ele>
        <time>2026-08-23T11:44:53Z</time>
      </trkpt>
      <trkpt lat="44.77774" lon="5.71525">
        <ele>887.91</ele>
        <time>2026-08-23T11:45:10Z</time>
      </trkpt>
      <trkpt lat="44.7779" lon="5.71507">
        <ele>887.91</ele>
        <time>2026-08-23T11:45:26Z</time>
      </trkpt>
      <trkpt lat="44.77803" lon="5.71482">
        <ele>886.47</ele>
        <time>2026-08-23T11:45:43Z</time>
      </trkpt>
      <trkpt lat="44.77807" lon="5.71464">
        <ele>885.51</ele>
        <time>2026-08-23T11:45:55Z</time>
      </trkpt>
      <trkpt lat="44.77815" lon="5.71446">
        <ele>884.55</ele>
        <time>2026-08-23T11:46:09Z</time>
      </trkpt>
      <trkpt lat="44.77826" lon="5.71434">
        <ele>883.59</ele>
        <time>2026-08-23T11:46:21Z</time>
      </trkpt>
      <trkpt lat="44.77836" lon="5.71413">
        <ele>882.63</ele>
        <time>2026-08-23T11:46:37Z</time>
      </trkpt>
      <trkpt lat="44.77844" lon="5.71392">
        <ele>881.67</ele>
        <time>2026-08-23T11:46:53Z</time>
      </trkpt>
      <trkpt lat="44.77846" lon="5.71366">
        <ele>880.22</ele>
        <time>2026-08-23T11:47:10Z</time>
      </trkpt>
      <trkpt lat="44.7784" lon="5.71356">
        <ele>879.26</ele>
        <time>2026-08-23T11:47:25Z</time>
      </trkpt>
      <trkpt lat="44.77838" lon="5.71342">
        <ele>877.34</ele>
        <time>2026-08-23T11:47:50Z</time>
      </trkpt>
      <trkpt lat="44.77836" lon="5.71326">
        <ele>875.42</ele>
        <time>2026-08-23T11:48:04Z</time>
      </trkpt>
      <trkpt lat="44.77836" lon="5.71319">
        <ele>874.94</ele>
        <time>2026-08-23T11:48:10Z</time>
      </trkpt>
      <trkpt lat="44.77833" lon="5.71303">
        <ele>873.5</ele>
        <time>2026-08-23T11:48:21Z</time>
      </trkpt>
      <trkpt lat="44.77833" lon="5.71296">
        <ele>873.01</ele>
        <time>2026-08-23T11:48:25Z</time>
      </trkpt>
      <trkpt lat="44.77837" lon="5.71278">
        <ele>871.09</ele>
        <time>2026-08-23T11:48:39Z</time>
      </trkpt>
      <trkpt lat="44.77843" lon="5.71268">
        <ele>870.13</ele>
        <time>2026-08-23T11:48:50Z</time>
      </trkpt>
      <trkpt lat="44.77847" lon="5.71259">
        <ele>869.65</ele>
        <time>2026-08-23T11:48:56Z</time>
      </trkpt>
      <trkpt lat="44.77857" lon="5.71236">
        <ele>867.73</ele>
        <time>2026-08-23T11:49:11Z</time>
      </trkpt>
      <trkpt lat="44.77858" lon="5.71233">
        <ele>867.25</ele>
        <time>2026-08-23T11:49:13Z</time>
      </trkpt>
      <trkpt lat="44.77864" lon="5.7121">
        <ele>865.8</ele>
        <time>2026-08-23T11:49:28Z</time>
      </trkpt>
      <trkpt lat="44.77865" lon="5.71207">
        <ele>865.8</ele>
        <time>2026-08-23T11:49:30Z</time>
      </trkpt>
      <trkpt lat="44.77866" lon="5.71202">
        <ele>865.32</ele>
        <time>2026-08-23T11:49:34Z</time>
      </trkpt>
      <trkpt lat="44.7787" lon="5.71173">
        <ele>862.92</ele>
        <time>2026-08-23T11:49:52Z</time>
      </trkpt>
      <trkpt lat="44.77871" lon="5.7116">
        <ele>861.48</ele>
        <time>2026-08-23T11:50:01Z</time>
      </trkpt>
      <trkpt lat="44.77871" lon="5.71143">
        <ele>859.56</ele>
        <time>2026-08-23T11:50:15Z</time>
      </trkpt>
      <trkpt lat="44.77874" lon="5.71131">
        <ele>858.11</ele>
        <time>2026-08-23T11:50:28Z</time>
      </trkpt>
      <trkpt lat="44.77882" lon="5.7113">
        <ele>856.67</ele>
        <time>2026-08-23T11:50:40Z</time>
      </trkpt>
      <trkpt lat="44.7789" lon="5.71138">
        <ele>854.75</ele>
        <time>2026-08-23T11:50:52Z</time>
      </trkpt>
      <trkpt lat="44.77906" lon="5.71143">
        <ele>853.31</ele>
        <time>2026-08-23T11:51:09Z</time>
      </trkpt>
      <trkpt lat="44.77918" lon="5.71136">
        <ele>851.87</ele>
        <time>2026-08-23T11:51:19Z</time>
      </trkpt>
      <trkpt lat="44.77935" lon="5.71133">
        <ele>849.94</ele>
        <time>2026-08-23T11:51:35Z</time>
      </trkpt>
      <trkpt lat="44.77937" lon="5.71134">
        <ele>849.94</ele>
        <time>2026-08-23T11:51:37Z</time>
      </trkpt>
      <trkpt lat="44.77949" lon="5.7113">
        <ele>848.98</ele>
        <time>2026-08-23T11:51:49Z</time>
      </trkpt>
      <trkpt lat="44.77965" lon="5.71102">
        <ele>848.02</ele>
        <time>2026-08-23T11:52:07Z</time>
      </trkpt>
      <trkpt lat="44.77968" lon="5.71086">
        <ele>846.58</ele>
        <time>2026-08-23T11:52:20Z</time>
      </trkpt>
      <trkpt lat="44.77981" lon="5.71063">
        <ele>844.66</ele>
        <time>2026-08-23T11:52:36Z</time>
      </trkpt>
      <trkpt lat="44.77992" lon="5.7104">
        <ele>842.73</ele>
        <time>2026-08-23T11:52:51Z</time>
      </trkpt>
      <trkpt lat="44.77997" lon="5.71022">
        <ele>840.81</ele>
        <time>2026-08-23T11:53:05Z</time>
      </trkpt>
      <trkpt lat="44.78002" lon="5.71002">
        <ele>838.89</ele>
        <time>2026-08-23T11:53:21Z</time>
      </trkpt>
      <trkpt lat="44.78007" lon="5.70983">
        <ele>836.96</ele>
        <time>2026-08-23T11:53:36Z</time>
      </trkpt>
      <trkpt lat="44.78012" lon="5.70957">
        <ele>834.56</ele>
        <time>2026-08-23T11:53:52Z</time>
      </trkpt>
      <trkpt lat="44.78017" lon="5.70927">
        <ele>832.64</ele>
        <time>2026-08-23T11:54:11Z</time>
      </trkpt>
      <trkpt lat="44.78022" lon="5.70912">
        <ele>830.72</ele>
        <time>2026-08-23T11:54:25Z</time>
      </trkpt>
      <trkpt lat="44.78029" lon="5.70886">
        <ele>829.27</ele>
        <time>2026-08-23T11:54:41Z</time>
      </trkpt>
      <trkpt lat="44.78041" lon="5.70867">
        <ele>827.83</ele>
        <time>2026-08-23T11:54:59Z</time>
      </trkpt>
      <trkpt lat="44.7805" lon="5.70847">
        <ele>826.39</ele>
        <time>2026-08-23T11:55:16Z</time>
      </trkpt>
      <trkpt lat="44.78061" lon="5.70823">
        <ele>824.95</ele>
        <time>2026-08-23T11:55:34Z</time>
      </trkpt>
      <trkpt lat="44.78074" lon="5.70809">
        <ele>823.51</ele>
        <time>2026-08-23T11:55:53Z</time>
      </trkpt>
      <trkpt lat="44.78087" lon="5.70787">
        <ele>822.55</ele>
        <time>2026-08-23T11:56:10Z</time>
      </trkpt>
      <trkpt lat="44.78101" lon="5.7077">
        <ele>821.1</ele>
        <time>2026-08-23T11:56:25Z</time>
      </trkpt>
      <trkpt lat="44.78109" lon="5.70738">
        <ele>820.14</ele>
        <time>2026-08-23T11:56:43Z</time>
      </trkpt>
      <trkpt lat="44.78103" lon="5.70722">
        <ele>819.66</ele>
        <time>2026-08-23T11:56:53Z</time>
      </trkpt>
      <trkpt lat="44.78089" lon="5.7071">
        <ele>820.14</ele>
        <time>2026-08-23T11:57:09Z</time>
      </trkpt>
      <trkpt lat="44.78079" lon="5.70711">
        <ele>820.62</ele>
        <time>2026-08-23T11:57:21Z</time>
      </trkpt>
      <trkpt lat="44.78076" lon="5.70715">
        <ele>820.62</ele>
        <time>2026-08-23T11:57:40Z</time>
      </trkpt>
      <trkpt lat="44.78084" lon="5.70709">
        <ele>820.14</ele>
        <time>2026-08-23T11:57:54Z</time>
      </trkpt>
      <trkpt lat="44.78065" lon="5.70692">
        <ele>820.14</ele>
        <time>2026-08-23T11:58:11Z</time>
      </trkpt>
      <trkpt lat="44.78051" lon="5.70676">
        <ele>819.66</ele>
        <time>2026-08-23T11:58:27Z</time>
      </trkpt>
      <trkpt lat="44.78038" lon="5.70665">
        <ele>819.66</ele>
        <time>2026-08-23T11:58:43Z</time>
      </trkpt>
      <trkpt lat="44.78017" lon="5.70652">
        <ele>819.66</ele>
        <time>2026-08-23T11:59:02Z</time>
      </trkpt>
      <trkpt lat="44.78011" lon="5.70647">
        <ele>819.18</ele>
        <time>2026-08-23T11:59:09Z</time>
      </trkpt>
      <trkpt lat="44.7799" lon="5.70636">
        <ele>819.18</ele>
        <time>2026-08-23T11:59:25Z</time>
      </trkpt>
      <trkpt lat="44.77986" lon="5.70618">
        <ele>819.18</ele>
        <time>2026-08-23T11:59:40Z</time>
      </trkpt>
      <trkpt lat="44.77983" lon="5.70588">
        <ele>819.18</ele>
        <time>2026-08-23T12:00:00Z</time>
      </trkpt>
      <trkpt lat="44.77983" lon="5.70582">
        <ele>818.7</ele>
        <time>2026-08-23T12:00:04Z</time>
      </trkpt>
      <trkpt lat="44.77983" lon="5.70552">
        <ele>818.7</ele>
        <time>2026-08-23T12:00:23Z</time>
      </trkpt>
      <trkpt lat="44.77983" lon="5.70518">
        <ele>818.7</ele>
        <time>2026-08-23T12:00:42Z</time>
      </trkpt>
      <trkpt lat="44.77983" lon="5.70491">
        <ele>818.7</ele>
        <time>2026-08-23T12:01:01Z</time>
      </trkpt>
      <trkpt lat="44.77981" lon="5.70461">
        <ele>818.22</ele>
        <time>2026-08-23T12:01:20Z</time>
      </trkpt>
      <trkpt lat="44.77978" lon="5.70433">
        <ele>817.74</ele>
        <time>2026-08-23T12:01:38Z</time>
      </trkpt>
      <trkpt lat="44.77976" lon="5.70407">
        <ele>817.26</ele>
        <time>2026-08-23T12:01:56Z</time>
      </trkpt>
      <trkpt lat="44.77981" lon="5.70378">
        <ele>816.78</ele>
        <time>2026-08-23T12:02:16Z</time>
      </trkpt>
      <trkpt lat="44.77988" lon="5.70348">
        <ele>816.78</ele>
        <time>2026-08-23T12:02:34Z</time>
      </trkpt>
      <trkpt lat="44.77996" lon="5.70317">
        <ele>816.3</ele>
        <time>2026-08-23T12:02:51Z</time>
      </trkpt>
      <trkpt lat="44.77993" lon="5.70287">
        <ele>815.82</ele>
        <time>2026-08-23T12:03:11Z</time>
      </trkpt>
      <trkpt lat="44.77991" lon="5.70257">
        <ele>815.82</ele>
        <time>2026-08-23T12:03:28Z</time>
      </trkpt>
      <trkpt lat="44.7799" lon="5.70251">
        <ele>815.34</ele>
        <time>2026-08-23T12:03:32Z</time>
      </trkpt>
      <trkpt lat="44.7799" lon="5.70225">
        <ele>814.85</ele>
        <time>2026-08-23T12:03:49Z</time>
      </trkpt>
      <trkpt lat="44.77994" lon="5.70203">
        <ele>814.85</ele>
        <time>2026-08-23T12:04:04Z</time>
      </trkpt>
      <trkpt lat="44.77998" lon="5.70178">
        <ele>814.37</ele>
        <time>2026-08-23T12:04:20Z</time>
      </trkpt>
      <trkpt lat="44.78003" lon="5.70157">
        <ele>813.41</ele>
        <time>2026-08-23T12:04:35Z</time>
      </trkpt>
      <trkpt lat="44.78011" lon="5.70136">
        <ele>813.89</ele>
        <time>2026-08-23T12:04:50Z</time>
      </trkpt>
      <trkpt lat="44.78012" lon="5.70135">
        <ele>813.89</ele>
        <time>2026-08-23T12:04:51Z</time>
      </trkpt>
      <trkpt lat="44.78021" lon="5.70114">
        <ele>812.93</ele>
        <time>2026-08-23T12:05:06Z</time>
      </trkpt>
      <trkpt lat="44.78028" lon="5.7009">
        <ele>811.97</ele>
        <time>2026-08-23T12:05:21Z</time>
      </trkpt>
      <trkpt lat="44.78028" lon="5.70088">
        <ele>811.97</ele>
        <time>2026-08-23T12:05:22Z</time>
      </trkpt>
      <trkpt lat="44.78032" lon="5.70076">
        <ele>811.97</ele>
        <time>2026-08-23T12:05:30Z</time>
      </trkpt>
      <trkpt lat="44.78035" lon="5.70062">
        <ele>811.97</ele>
        <time>2026-08-23T12:05:39Z</time>
      </trkpt>
      <trkpt lat="44.78035" lon="5.70035">
        <ele>811.01</ele>
        <time>2026-08-23T12:05:56Z</time>
      </trkpt>
      <trkpt lat="44.78039" lon="5.7001">
        <ele>811.01</ele>
        <time>2026-08-23T12:06:12Z</time>
      </trkpt>
      <trkpt lat="44.78042" lon="5.69986">
        <ele>810.05</ele>
        <time>2026-08-23T12:06:28Z</time>
      </trkpt>
      <trkpt lat="44.7805" lon="5.69963">
        <ele>810.05</ele>
        <time>2026-08-23T12:06:45Z</time>
      </trkpt>
      <trkpt lat="44.78058" lon="5.6994">
        <ele>809.57</ele>
        <time>2026-08-23T12:07:00Z</time>
      </trkpt>
      <trkpt lat="44.7806" lon="5.69937">
        <ele>809.57</ele>
        <time>2026-08-23T12:07:03Z</time>
      </trkpt>
      <trkpt lat="44.78066" lon="5.69918">
        <ele>809.57</ele>
        <time>2026-08-23T12:07:16Z</time>
      </trkpt>
      <trkpt lat="44.78069" lon="5.69914">
        <ele>809.09</ele>
        <time>2026-08-23T12:07:19Z</time>
      </trkpt>
      <trkpt lat="44.78076" lon="5.69889">
        <ele>808.61</ele>
        <time>2026-08-23T12:07:35Z</time>
      </trkpt>
      <trkpt lat="44.78079" lon="5.69866">
        <ele>807.64</ele>
        <time>2026-08-23T12:07:49Z</time>
      </trkpt>
      <trkpt lat="44.78077" lon="5.69841">
        <ele>805.72</ele>
        <time>2026-08-23T12:08:05Z</time>
      </trkpt>
      <trkpt lat="44.78075" lon="5.69816">
        <ele>803.8</ele>
        <time>2026-08-23T12:08:21Z</time>
      </trkpt>
      <trkpt lat="44.78071" lon="5.69785">
        <ele>801.88</ele>
        <time>2026-08-23T12:08:41Z</time>
      </trkpt>
      <trkpt lat="44.78068" lon="5.69781">
        <ele>801.88</ele>
        <time>2026-08-23T12:08:56Z</time>
      </trkpt>
      <trkpt lat="44.78069" lon="5.6978">
        <ele>801.88</ele>
        <time>2026-08-23T12:09:00Z</time>
      </trkpt>
      <trkpt lat="44.78071" lon="5.69772">
        <ele>801.4</ele>
        <time>2026-08-23T12:09:06Z</time>
      </trkpt>
      <trkpt lat="44.7807" lon="5.69743">
        <ele>799.47</ele>
        <time>2026-08-23T12:09:25Z</time>
      </trkpt>
      <trkpt lat="44.78071" lon="5.6974">
        <ele>799.47</ele>
        <time>2026-08-23T12:09:27Z</time>
      </trkpt>
      <trkpt lat="44.78074" lon="5.69713">
        <ele>797.55</ele>
        <time>2026-08-23T12:09:45Z</time>
      </trkpt>
      <trkpt lat="44.78075" lon="5.69706">
        <ele>797.07</ele>
        <time>2026-08-23T12:09:50Z</time>
      </trkpt>
      <trkpt lat="44.78077" lon="5.69701">
        <ele>796.59</ele>
        <time>2026-08-23T12:09:54Z</time>
      </trkpt>
      <trkpt lat="44.78082" lon="5.69674">
        <ele>794.67</ele>
        <time>2026-08-23T12:10:13Z</time>
      </trkpt>
      <trkpt lat="44.7809" lon="5.69652">
        <ele>793.22</ele>
        <time>2026-08-23T12:10:30Z</time>
      </trkpt>
      <trkpt lat="44.7809" lon="5.69648">
        <ele>789.86</ele>
        <time>2026-08-23T12:10:39Z</time>
      </trkpt>
      <trkpt lat="44.7809" lon="5.69647">
        <ele>795.15</ele>
        <time>2026-08-23T12:10:40Z</time>
      </trkpt>
      <trkpt lat="44.78093" lon="5.69644">
        <ele>792.74</ele>
        <time>2026-08-23T12:10:44Z</time>
      </trkpt>
      <trkpt lat="44.78096" lon="5.69642">
        <ele>792.26</ele>
        <time>2026-08-23T12:10:48Z</time>
      </trkpt>
      <trkpt lat="44.78113" lon="5.69634">
        <ele>790.34</ele>
        <time>2026-08-23T12:11:05Z</time>
      </trkpt>
      <trkpt lat="44.78131" lon="5.69624">
        <ele>788.42</ele>
        <time>2026-08-23T12:11:22Z</time>
      </trkpt>
      <trkpt lat="44.78148" lon="5.69612">
        <ele>786.5</ele>
        <time>2026-08-23T12:11:38Z</time>
      </trkpt>
      <trkpt lat="44.7815" lon="5.69611">
        <ele>786.5</ele>
        <time>2026-08-23T12:11:40Z</time>
      </trkpt>
      <trkpt lat="44.78168" lon="5.69599">
        <ele>784.57</ele>
        <time>2026-08-23T12:11:58Z</time>
      </trkpt>
      <trkpt lat="44.78182" lon="5.69588">
        <ele>783.13</ele>
        <time>2026-08-23T12:12:13Z</time>
      </trkpt>
      <trkpt lat="44.78199" lon="5.69578">
        <ele>781.21</ele>
        <time>2026-08-23T12:12:30Z</time>
      </trkpt>
      <trkpt lat="44.78205" lon="5.69574">
        <ele>780.73</ele>
        <time>2026-08-23T12:12:36Z</time>
      </trkpt>
      <trkpt lat="44.78209" lon="5.69571">
        <ele>780.25</ele>
        <time>2026-08-23T12:12:40Z</time>
      </trkpt>
      <trkpt lat="44.78223" lon="5.69565">
        <ele>780.25</ele>
        <time>2026-08-23T12:12:52Z</time>
      </trkpt>
      <trkpt lat="44.78237" lon="5.69552">
        <ele>779.29</ele>
        <time>2026-08-23T12:13:07Z</time>
      </trkpt>
      <trkpt lat="44.78236" lon="5.69546">
        <ele>778.32</ele>
        <time>2026-08-23T12:13:11Z</time>
      </trkpt>
      <trkpt lat="44.78234" lon="5.69519">
        <ele>775.92</ele>
        <time>2026-08-23T12:13:29Z</time>
      </trkpt>
      <trkpt lat="44.78235" lon="5.69493">
        <ele>774</ele>
        <time>2026-08-23T12:13:45Z</time>
      </trkpt>
      <trkpt lat="44.78235" lon="5.69491">
        <ele>774.48</ele>
        <time>2026-08-23T12:13:46Z</time>
      </trkpt>
      <trkpt lat="44.78236" lon="5.69483">
        <ele>773.52</ele>
        <time>2026-08-23T12:13:51Z</time>
      </trkpt>
      <trkpt lat="44.78232" lon="5.69459">
        <ele>772.56</ele>
        <time>2026-08-23T12:14:05Z</time>
      </trkpt>
      <trkpt lat="44.78235" lon="5.69445">
        <ele>772.08</ele>
        <time>2026-08-23T12:14:21Z</time>
      </trkpt>
      <trkpt lat="44.78234" lon="5.69445">
        <ele>771.11</ele>
        <time>2026-08-23T12:14:40Z</time>
      </trkpt>
      <trkpt lat="44.78235" lon="5.69445">
        <ele>771.6</ele>
        <time>2026-08-23T12:15:09Z</time>
      </trkpt>
      <trkpt lat="44.78233" lon="5.69443">
        <ele>771.11</ele>
        <time>2026-08-23T12:15:25Z</time>
      </trkpt>
      <trkpt lat="44.78228" lon="5.69435">
        <ele>768.23</ele>
        <time>2026-08-23T12:15:37Z</time>
      </trkpt>
      <trkpt lat="44.78219" lon="5.69421">
        <ele>764.87</ele>
        <time>2026-08-23T12:15:51Z</time>
      </trkpt>
      <trkpt lat="44.78216" lon="5.69413">
        <ele>762.94</ele>
        <time>2026-08-23T12:16:00Z</time>
      </trkpt>
      <trkpt lat="44.78212" lon="5.69397">
        <ele>759.58</ele>
        <time>2026-08-23T12:16:16Z</time>
      </trkpt>
      <trkpt lat="44.78221" lon="5.69385">
        <ele>757.18</ele>
        <time>2026-08-23T12:16:31Z</time>
      </trkpt>
      <trkpt lat="44.78223" lon="5.6938">
        <ele>756.69</ele>
        <time>2026-08-23T12:16:35Z</time>
      </trkpt>
      <trkpt lat="44.78229" lon="5.69362">
        <ele>753.81</ele>
        <time>2026-08-23T12:16:50Z</time>
      </trkpt>
      <trkpt lat="44.78222" lon="5.6934">
        <ele>750.93</ele>
        <time>2026-08-23T12:17:07Z</time>
      </trkpt>
      <trkpt lat="44.78225" lon="5.69338">
        <ele>750.45</ele>
        <time>2026-08-23T12:17:22Z</time>
      </trkpt>
      <trkpt lat="44.78219" lon="5.69335">
        <ele>750.45</ele>
        <time>2026-08-23T12:17:36Z</time>
      </trkpt>
      <trkpt lat="44.78216" lon="5.6933">
        <ele>750.45</ele>
        <time>2026-08-23T12:17:39Z</time>
      </trkpt>
      <trkpt lat="44.78216" lon="5.69313">
        <ele>751.41</ele>
        <time>2026-08-23T12:17:55Z</time>
      </trkpt>
      <trkpt lat="44.78217" lon="5.69287">
        <ele>751.41</ele>
        <time>2026-08-23T12:18:12Z</time>
      </trkpt>
      <trkpt lat="44.78219" lon="5.69262">
        <ele>749.49</ele>
        <time>2026-08-23T12:18:28Z</time>
      </trkpt>
      <trkpt lat="44.7822" lon="5.69259">
        <ele>749.49</ele>
        <time>2026-08-23T12:18:30Z</time>
      </trkpt>
      <trkpt lat="44.78207" lon="5.69239">
        <ele>748.04</ele>
        <time>2026-08-23T12:18:45Z</time>
      </trkpt>
      <trkpt lat="44.782" lon="5.69224">
        <ele>745.64</ele>
        <time>2026-08-23T12:19:01Z</time>
      </trkpt>
      <trkpt lat="44.782" lon="5.69204">
        <ele>742.76</ele>
        <time>2026-08-23T12:19:18Z</time>
      </trkpt>
      <trkpt lat="44.7819" lon="5.69182">
        <ele>740.83</ele>
        <time>2026-08-23T12:19:33Z</time>
      </trkpt>
      <trkpt lat="44.78186" lon="5.69171">
        <ele>739.87</ele>
        <time>2026-08-23T12:19:47Z</time>
      </trkpt>
      <trkpt lat="44.78185" lon="5.69168">
        <ele>739.39</ele>
        <time>2026-08-23T12:20:03Z</time>
      </trkpt>
      <trkpt lat="44.78186" lon="5.69165">
        <ele>740.35</ele>
        <time>2026-08-23T12:20:06Z</time>
      </trkpt>
      <trkpt lat="44.7819" lon="5.69156">
        <ele>739.39</ele>
        <time>2026-08-23T12:20:13Z</time>
      </trkpt>
      <trkpt lat="44.78195" lon="5.69126">
        <ele>738.91</ele>
        <time>2026-08-23T12:20:34Z</time>
      </trkpt>
      <trkpt lat="44.78194" lon="5.69122">
        <ele>738.91</ele>
        <time>2026-08-23T12:20:38Z</time>
      </trkpt>
      <trkpt lat="44.78196" lon="5.69118">
        <ele>738.91</ele>
        <time>2026-08-23T12:20:41Z</time>
      </trkpt>
      <trkpt lat="44.78197" lon="5.69112">
        <ele>738.43</ele>
        <time>2026-08-23T12:20:46Z</time>
      </trkpt>
      <trkpt lat="44.78201" lon="5.69083">
        <ele>737.95</ele>
        <time>2026-08-23T12:21:05Z</time>
      </trkpt>
      <trkpt lat="44.78205" lon="5.69058">
        <ele>737.47</ele>
        <time>2026-08-23T12:21:22Z</time>
      </trkpt>
      <trkpt lat="44.78208" lon="5.69029">
        <ele>737.47</ele>
        <time>2026-08-23T12:21:40Z</time>
      </trkpt>
      <trkpt lat="44.78206" lon="5.69005">
        <ele>736.99</ele>
        <time>2026-08-23T12:21:55Z</time>
      </trkpt>
      <trkpt lat="44.78204" lon="5.68992">
        <ele>736.99</ele>
        <time>2026-08-23T12:22:03Z</time>
      </trkpt>
      <trkpt lat="44.78206" lon="5.68984">
        <ele>736.51</ele>
        <time>2026-08-23T12:22:21Z</time>
      </trkpt>
      <trkpt lat="44.78208" lon="5.6896">
        <ele>736.51</ele>
        <time>2026-08-23T12:22:38Z</time>
      </trkpt>
      <trkpt lat="44.78216" lon="5.68936">
        <ele>736.03</ele>
        <time>2026-08-23T12:22:54Z</time>
      </trkpt>
      <trkpt lat="44.78225" lon="5.68909">
        <ele>734.58</ele>
        <time>2026-08-23T12:23:12Z</time>
      </trkpt>
      <trkpt lat="44.78229" lon="5.68883">
        <ele>734.1</ele>
        <time>2026-08-23T12:23:31Z</time>
      </trkpt>
      <trkpt lat="44.78235" lon="5.68853">
        <ele>733.14</ele>
        <time>2026-08-23T12:23:48Z</time>
      </trkpt>
      <trkpt lat="44.78238" lon="5.68834">
        <ele>732.66</ele>
        <time>2026-08-23T12:24:00Z</time>
      </trkpt>
      <trkpt lat="44.78239" lon="5.68822">
        <ele>732.66</ele>
        <time>2026-08-23T12:24:11Z</time>
      </trkpt>
      <trkpt lat="44.7824" lon="5.68819">
        <ele>732.18</ele>
        <time>2026-08-23T12:24:13Z</time>
      </trkpt>
      <trkpt lat="44.78241" lon="5.68812">
        <ele>732.18</ele>
        <time>2026-08-23T12:24:19Z</time>
      </trkpt>
      <trkpt lat="44.78247" lon="5.68785">
        <ele>731.7</ele>
        <time>2026-08-23T12:24:37Z</time>
      </trkpt>
      <trkpt lat="44.78257" lon="5.68774">
        <ele>732.18</ele>
        <time>2026-08-23T12:24:51Z</time>
      </trkpt>
      <trkpt lat="44.78272" lon="5.68771">
        <ele>732.18</ele>
        <time>2026-08-23T12:25:06Z</time>
      </trkpt>
      <trkpt lat="44.78286" lon="5.68777">
        <ele>732.18</ele>
        <time>2026-08-23T12:25:21Z</time>
      </trkpt>
      <trkpt lat="44.783" lon="5.68779">
        <ele>733.14</ele>
        <time>2026-08-23T12:25:37Z</time>
      </trkpt>
      <trkpt lat="44.78308" lon="5.68771">
        <ele>733.14</ele>
        <time>2026-08-23T12:25:49Z</time>
      </trkpt>
      <trkpt lat="44.78306" lon="5.68761">
        <ele>731.7</ele>
        <time>2026-08-23T12:26:03Z</time>
      </trkpt>
      <trkpt lat="44.78308" lon="5.68745">
        <ele>728.82</ele>
        <time>2026-08-23T12:26:19Z</time>
      </trkpt>
      <trkpt lat="44.78314" lon="5.68722">
        <ele>725.93</ele>
        <time>2026-08-23T12:26:37Z</time>
      </trkpt>
      <trkpt lat="44.78306" lon="5.687">
        <ele>724.97</ele>
        <time>2026-08-23T12:26:51Z</time>
      </trkpt>
      <trkpt lat="44.7829" lon="5.68689">
        <ele>723.53</ele>
        <time>2026-08-23T12:27:06Z</time>
      </trkpt>
      <trkpt lat="44.78287" lon="5.68687">
        <ele>723.05</ele>
        <time>2026-08-23T12:27:09Z</time>
      </trkpt>
      <trkpt lat="44.78279" lon="5.68681">
        <ele>720.16</ele>
        <time>2026-08-23T12:27:23Z</time>
      </trkpt>
      <trkpt lat="44.78286" lon="5.68675">
        <ele>717.28</ele>
        <time>2026-08-23T12:27:37Z</time>
      </trkpt>
      <trkpt lat="44.78277" lon="5.68659">
        <ele>715.36</ele>
        <time>2026-08-23T12:27:48Z</time>
      </trkpt>
      <trkpt lat="44.78275" lon="5.68657">
        <ele>715.36</ele>
        <time>2026-08-23T12:27:50Z</time>
      </trkpt>
      <trkpt lat="44.78259" lon="5.68651">
        <ele>713.92</ele>
        <time>2026-08-23T12:28:07Z</time>
      </trkpt>
      <trkpt lat="44.78254" lon="5.68651">
        <ele>713.44</ele>
        <time>2026-08-23T12:28:11Z</time>
      </trkpt>
      <trkpt lat="44.78242" lon="5.6865">
        <ele>712.95</ele>
        <time>2026-08-23T12:28:19Z</time>
      </trkpt>
      <trkpt lat="44.78224" lon="5.68654">
        <ele>713.44</ele>
        <time>2026-08-23T12:28:35Z</time>
      </trkpt>
      <trkpt lat="44.78224" lon="5.68655">
        <ele>713.44</ele>
        <time>2026-08-23T12:28:37Z</time>
      </trkpt>
      <trkpt lat="44.78211" lon="5.68664">
        <ele>713.44</ele>
        <time>2026-08-23T12:28:50Z</time>
      </trkpt>
      <trkpt lat="44.78208" lon="5.6868">
        <ele>712.95</ele>
        <time>2026-08-23T12:28:59Z</time>
      </trkpt>
      <trkpt lat="44.78199" lon="5.68677">
        <ele>711.51</ele>
        <time>2026-08-23T12:29:11Z</time>
      </trkpt>
      <trkpt lat="44.7819" lon="5.68678">
        <ele>708.63</ele>
        <time>2026-08-23T12:29:25Z</time>
      </trkpt>
      <trkpt lat="44.78177" lon="5.68682">
        <ele>706.23</ele>
        <time>2026-08-23T12:29:39Z</time>
      </trkpt>
      <trkpt lat="44.78173" lon="5.68688">
        <ele>704.3</ele>
        <time>2026-08-23T12:29:53Z</time>
      </trkpt>
      <trkpt lat="44.78166" lon="5.68677">
        <ele>701.42</ele>
        <time>2026-08-23T12:30:07Z</time>
      </trkpt>
      <trkpt lat="44.7816" lon="5.68677">
        <ele>700.46</ele>
        <time>2026-08-23T12:30:12Z</time>
      </trkpt>
      <trkpt lat="44.78151" lon="5.68673">
        <ele>697.57</ele>
        <time>2026-08-23T12:30:29Z</time>
      </trkpt>
      <trkpt lat="44.78155" lon="5.68656">
        <ele>694.21</ele>
        <time>2026-08-23T12:30:49Z</time>
      </trkpt>
      <trkpt lat="44.78143" lon="5.68635">
        <ele>691.33</ele>
        <time>2026-08-23T12:31:03Z</time>
      </trkpt>
      <trkpt lat="44.78139" lon="5.6862">
        <ele>687.96</ele>
        <time>2026-08-23T12:31:18Z</time>
      </trkpt>
      <trkpt lat="44.78151" lon="5.68613">
        <ele>685.08</ele>
        <time>2026-08-23T12:31:34Z</time>
      </trkpt>
      <trkpt lat="44.78164" lon="5.68594">
        <ele>684.12</ele>
        <time>2026-08-23T12:31:52Z</time>
      </trkpt>
      <trkpt lat="44.78174" lon="5.68583">
        <ele>683.63</ele>
        <time>2026-08-23T12:32:10Z</time>
      </trkpt>
      <trkpt lat="44.78179" lon="5.68583">
        <ele>683.63</ele>
        <time>2026-08-23T12:32:25Z</time>
      </trkpt>
      <trkpt lat="44.78195" lon="5.68571">
        <ele>681.23</ele>
        <time>2026-08-23T12:32:37Z</time>
      </trkpt>
      <trkpt lat="44.78211" lon="5.68554">
        <ele>680.75</ele>
        <time>2026-08-23T12:32:55Z</time>
      </trkpt>
      <trkpt lat="44.78221" lon="5.68536">
        <ele>679.79</ele>
        <time>2026-08-23T12:33:10Z</time>
      </trkpt>
      <trkpt lat="44.78232" lon="5.68536">
        <ele>679.31</ele>
        <time>2026-08-23T12:33:30Z</time>
      </trkpt>
      <trkpt lat="44.78252" lon="5.6852">
        <ele>679.31</ele>
        <time>2026-08-23T12:33:43Z</time>
      </trkpt>
      <trkpt lat="44.78262" lon="5.68511">
        <ele>678.83</ele>
        <time>2026-08-23T12:33:56Z</time>
      </trkpt>
      <trkpt lat="44.78273" lon="5.68504">
        <ele>678.35</ele>
        <time>2026-08-23T12:34:12Z</time>
      </trkpt>
      <trkpt lat="44.78286" lon="5.68487">
        <ele>677.87</ele>
        <time>2026-08-23T12:34:26Z</time>
      </trkpt>
      <trkpt lat="44.78294" lon="5.68476">
        <ele>677.87</ele>
        <time>2026-08-23T12:34:43Z</time>
      </trkpt>
      <trkpt lat="44.78299" lon="5.68478">
        <ele>677.39</ele>
        <time>2026-08-23T12:34:58Z</time>
      </trkpt>
      <trkpt lat="44.78309" lon="5.68471">
        <ele>676.91</ele>
        <time>2026-08-23T12:35:12Z</time>
      </trkpt>
      <trkpt lat="44.78326" lon="5.68461">
        <ele>676.42</ele>
        <time>2026-08-23T12:35:28Z</time>
      </trkpt>
      <trkpt lat="44.78338" lon="5.68458">
        <ele>676.42</ele>
        <time>2026-08-23T12:35:42Z</time>
      </trkpt>
      <trkpt lat="44.78347" lon="5.68461">
        <ele>675.94</ele>
        <time>2026-08-23T12:35:55Z</time>
      </trkpt>
      <trkpt lat="44.78361" lon="5.6847">
        <ele>675.94</ele>
        <time>2026-08-23T12:36:11Z</time>
      </trkpt>
      <trkpt lat="44.78374" lon="5.68481">
        <ele>675.46</ele>
        <time>2026-08-23T12:36:28Z</time>
      </trkpt>
      <trkpt lat="44.78393" lon="5.68477">
        <ele>674.98</ele>
        <time>2026-08-23T12:36:44Z</time>
      </trkpt>
      <trkpt lat="44.78401" lon="5.68475">
        <ele>674.98</ele>
        <time>2026-08-23T12:36:55Z</time>
      </trkpt>
      <trkpt lat="44.78411" lon="5.68484">
        <ele>674.5</ele>
        <time>2026-08-23T12:37:10Z</time>
      </trkpt>
      <trkpt lat="44.78426" lon="5.68485">
        <ele>674.5</ele>
        <time>2026-08-23T12:37:25Z</time>
      </trkpt>
      <trkpt lat="44.78426" lon="5.68482">
        <ele>674.02</ele>
        <time>2026-08-23T12:37:33Z</time>
      </trkpt>
      <trkpt lat="44.7843" lon="5.68471">
        <ele>674.02</ele>
        <time>2026-08-23T12:37:45Z</time>
      </trkpt>
      <trkpt lat="44.78431" lon="5.6847">
        <ele>674.02</ele>
        <time>2026-08-23T12:38:02Z</time>
      </trkpt>
      <trkpt lat="44.78433" lon="5.68473">
        <ele>674.02</ele>
        <time>2026-08-23T12:38:21Z</time>
      </trkpt>
      <trkpt lat="44.78445" lon="5.68481">
        <ele>673.54</ele>
        <time>2026-08-23T12:38:37Z</time>
      </trkpt>
      <trkpt lat="44.78446" lon="5.68475">
        <ele>673.54</ele>
        <time>2026-08-23T12:38:40Z</time>
      </trkpt>
      <trkpt lat="44.78443" lon="5.68469">
        <ele>673.54</ele>
        <time>2026-08-23T12:38:55Z</time>
      </trkpt>
      <trkpt lat="44.78443" lon="5.68469">
        <ele>673.54</ele>
        <time>2026-08-23T12:39:01Z</time>
      </trkpt>
      <trkpt lat="44.78437" lon="5.68466">
        <ele>673.06</ele>
        <time>2026-08-23T12:39:17Z</time>
      </trkpt>
      <trkpt lat="44.78439" lon="5.68462">
        <ele>673.54</ele>
        <time>2026-08-23T12:39:34Z</time>
      </trkpt>
      <trkpt lat="44.78443" lon="5.68453">
        <ele>674.5</ele>
        <time>2026-08-23T12:39:43Z</time>
      </trkpt>
      <trkpt lat="44.78445" lon="5.68432">
        <ele>675.46</ele>
        <time>2026-08-23T12:39:58Z</time>
      </trkpt>
      <trkpt lat="44.78446" lon="5.68428">
        <ele>675.46</ele>
        <time>2026-08-23T12:40:01Z</time>
      </trkpt>
      <trkpt lat="44.7845" lon="5.68406">
        <ele>675.94</ele>
        <time>2026-08-23T12:40:17Z</time>
      </trkpt>
      <trkpt lat="44.78452" lon="5.68396">
        <ele>676.42</ele>
        <time>2026-08-23T12:40:31Z</time>
      </trkpt>
      <trkpt lat="44.78463" lon="5.68375">
        <ele>676.91</ele>
        <time>2026-08-23T12:40:48Z</time>
      </trkpt>
      <trkpt lat="44.78466" lon="5.68366">
        <ele>676.42</ele>
        <time>2026-08-23T12:41:01Z</time>
      </trkpt>
      <trkpt lat="44.78482" lon="5.68347">
        <ele>675.46</ele>
        <time>2026-08-23T12:41:15Z</time>
      </trkpt>
      <trkpt lat="44.78492" lon="5.68325">
        <ele>675.94</ele>
        <time>2026-08-23T12:41:28Z</time>
      </trkpt>
      <trkpt lat="44.78501" lon="5.68302">
        <ele>676.42</ele>
        <time>2026-08-23T12:41:43Z</time>
      </trkpt>
      <trkpt lat="44.78501" lon="5.68278">
        <ele>676.91</ele>
        <time>2026-08-23T12:41:58Z</time>
      </trkpt>
      <trkpt lat="44.78499" lon="5.68264">
        <ele>677.87</ele>
        <time>2026-08-23T12:42:09Z</time>
      </trkpt>
      <trkpt lat="44.78488" lon="5.68254">
        <ele>678.35</ele>
        <time>2026-08-23T12:42:17Z</time>
      </trkpt>
      <trkpt lat="44.78481" lon="5.68245">
        <ele>679.31</ele>
        <time>2026-08-23T12:42:24Z</time>
      </trkpt>
      <trkpt lat="44.78466" lon="5.6825">
        <ele>679.79</ele>
        <time>2026-08-23T12:42:38Z</time>
      </trkpt>
      <trkpt lat="44.7846" lon="5.68251">
        <ele>680.27</ele>
        <time>2026-08-23T12:42:51Z</time>
      </trkpt>
      <trkpt lat="44.7845" lon="5.68254">
        <ele>680.75</ele>
        <time>2026-08-23T12:43:00Z</time>
      </trkpt>
      <trkpt lat="44.78447" lon="5.68253">
        <ele>680.75</ele>
        <time>2026-08-23T12:43:02Z</time>
      </trkpt>
      <trkpt lat="44.78439" lon="5.68245">
        <ele>681.71</ele>
        <time>2026-08-23T12:43:18Z</time>
      </trkpt>
      <trkpt lat="44.78437" lon="5.68242">
        <ele>681.71</ele>
        <time>2026-08-23T12:43:21Z</time>
      </trkpt>
      <trkpt lat="44.78437" lon="5.68248">
        <ele>681.71</ele>
        <time>2026-08-23T12:43:31Z</time>
      </trkpt>
      <trkpt lat="44.78447" lon="5.68263">
        <ele>680.75</ele>
        <time>2026-08-23T12:43:45Z</time>
      </trkpt>
      <trkpt lat="44.78458" lon="5.68266">
        <ele>680.27</ele>
        <time>2026-08-23T12:44:01Z</time>
      </trkpt>
      <trkpt lat="44.78458" lon="5.68271">
        <ele>681.71</ele>
        <time>2026-08-23T12:44:13Z</time>
      </trkpt>
      <trkpt lat="44.78456" lon="5.68271">
        <ele>682.19</ele>
        <time>2026-08-23T12:44:16Z</time>
      </trkpt>
      <trkpt lat="44.78447" lon="5.68271">
        <ele>684.12</ele>
        <time>2026-08-23T12:44:31Z</time>
      </trkpt>
      <trkpt lat="44.78441" lon="5.68277">
        <ele>686.52</ele>
        <time>2026-08-23T12:44:45Z</time>
      </trkpt>
      <trkpt lat="44.78434" lon="5.68281">
        <ele>688.92</ele>
        <time>2026-08-23T12:45:02Z</time>
      </trkpt>
      <trkpt lat="44.7842" lon="5.68286">
        <ele>690.84</ele>
        <time>2026-08-23T12:45:20Z</time>
      </trkpt>
      <trkpt lat="44.78403" lon="5.6829">
        <ele>692.77</ele>
        <time>2026-08-23T12:45:37Z</time>
      </trkpt>
      <trkpt lat="44.78389" lon="5.68285">
        <ele>694.69</ele>
        <time>2026-08-23T12:45:57Z</time>
      </trkpt>
      <trkpt lat="44.78377" lon="5.68279">
        <ele>696.13</ele>
        <time>2026-08-23T12:46:15Z</time>
      </trkpt>
      <trkpt lat="44.78359" lon="5.68272">
        <ele>698.05</ele>
        <time>2026-08-23T12:46:34Z</time>
      </trkpt>
      <trkpt lat="44.78347" lon="5.68264">
        <ele>699.5</ele>
        <time>2026-08-23T12:46:50Z</time>
      </trkpt>
      <trkpt lat="44.78338" lon="5.68257">
        <ele>701.42</ele>
        <time>2026-08-23T12:47:05Z</time>
      </trkpt>
      <trkpt lat="44.78331" lon="5.68249">
        <ele>702.86</ele>
        <time>2026-08-23T12:47:20Z</time>
      </trkpt>
      <trkpt lat="44.78317" lon="5.68238">
        <ele>705.26</ele>
        <time>2026-08-23T12:47:37Z</time>
      </trkpt>
      <trkpt lat="44.78309" lon="5.68232">
        <ele>707.67</ele>
        <time>2026-08-23T12:47:56Z</time>
      </trkpt>
      <trkpt lat="44.78305" lon="5.68227">
        <ele>710.07</ele>
        <time>2026-08-23T12:48:16Z</time>
      </trkpt>
      <trkpt lat="44.78286" lon="5.6821">
        <ele>712.47</ele>
        <time>2026-08-23T12:48:34Z</time>
      </trkpt>
      <trkpt lat="44.78272" lon="5.68199">
        <ele>714.4</ele>
        <time>2026-08-23T12:48:50Z</time>
      </trkpt>
      <trkpt lat="44.78266" lon="5.68192">
        <ele>717.28</ele>
        <time>2026-08-23T12:49:07Z</time>
      </trkpt>
      <trkpt lat="44.78249" lon="5.68182">
        <ele>719.2</ele>
        <time>2026-08-23T12:49:23Z</time>
      </trkpt>
      <trkpt lat="44.78236" lon="5.68176">
        <ele>721.61</ele>
        <time>2026-08-23T12:49:42Z</time>
      </trkpt>
      <trkpt lat="44.7823" lon="5.68196">
        <ele>723.05</ele>
        <time>2026-08-23T12:49:58Z</time>
      </trkpt>
      <trkpt lat="44.78228" lon="5.6821">
        <ele>724.97</ele>
        <time>2026-08-23T12:50:16Z</time>
      </trkpt>
      <trkpt lat="44.78227" lon="5.68226">
        <ele>726.89</ele>
        <time>2026-08-23T12:50:32Z</time>
      </trkpt>
      <trkpt lat="44.78225" lon="5.68232">
        <ele>728.34</ele>
        <time>2026-08-23T12:50:46Z</time>
      </trkpt>
      <trkpt lat="44.78217" lon="5.6824">
        <ele>731.22</ele>
        <time>2026-08-23T12:51:05Z</time>
      </trkpt>
      <trkpt lat="44.78207" lon="5.68244">
        <ele>733.14</ele>
        <time>2026-08-23T12:51:22Z</time>
      </trkpt>
      <trkpt lat="44.78193" lon="5.68251">
        <ele>734.58</ele>
        <time>2026-08-23T12:51:41Z</time>
      </trkpt>
      <trkpt lat="44.78176" lon="5.68253">
        <ele>736.51</ele>
        <time>2026-08-23T12:51:59Z</time>
      </trkpt>
      <trkpt lat="44.78159" lon="5.68252">
        <ele>738.43</ele>
        <time>2026-08-23T12:52:19Z</time>
      </trkpt>
      <trkpt lat="44.78149" lon="5.68248">
        <ele>740.35</ele>
        <time>2026-08-23T12:52:37Z</time>
      </trkpt>
      <trkpt lat="44.78137" lon="5.68236">
        <ele>743.24</ele>
        <time>2026-08-23T12:52:53Z</time>
      </trkpt>
      <trkpt lat="44.78129" lon="5.68225">
        <ele>746.12</ele>
        <time>2026-08-23T12:53:12Z</time>
      </trkpt>
      <trkpt lat="44.78124" lon="5.68217">
        <ele>749.49</ele>
        <time>2026-08-23T12:53:30Z</time>
      </trkpt>
      <trkpt lat="44.78119" lon="5.6821">
        <ele>751.89</ele>
        <time>2026-08-23T12:53:45Z</time>
      </trkpt>
      <trkpt lat="44.7811" lon="5.68196">
        <ele>754.29</ele>
        <time>2026-08-23T12:54:02Z</time>
      </trkpt>
      <trkpt lat="44.78101" lon="5.68188">
        <ele>757.18</ele>
        <time>2026-08-23T12:54:20Z</time>
      </trkpt>
      <trkpt lat="44.78084" lon="5.68175">
        <ele>759.1</ele>
        <time>2026-08-23T12:54:39Z</time>
      </trkpt>
      <trkpt lat="44.7807" lon="5.68164">
        <ele>759.58</ele>
        <time>2026-08-23T12:54:57Z</time>
      </trkpt>
      <trkpt lat="44.78059" lon="5.68153">
        <ele>760.54</ele>
        <time>2026-08-23T12:55:13Z</time>
      </trkpt>
      <trkpt lat="44.78049" lon="5.68142">
        <ele>759.58</ele>
        <time>2026-08-23T12:55:27Z</time>
      </trkpt>
      <trkpt lat="44.78048" lon="5.68142">
        <ele>759.1</ele>
        <time>2026-08-23T12:55:51Z</time>
      </trkpt>
      <trkpt lat="44.78048" lon="5.68141">
        <ele>760.06</ele>
        <time>2026-08-23T12:56:09Z</time>
      </trkpt>
      <trkpt lat="44.78047" lon="5.68141">
        <ele>759.58</ele>
        <time>2026-08-23T12:56:20Z</time>
      </trkpt>
      <trkpt lat="44.78047" lon="5.6814">
        <ele>759.1</ele>
        <time>2026-08-23T12:56:22Z</time>
      </trkpt>
      <trkpt lat="44.78046" lon="5.68138">
        <ele>760.06</ele>
        <time>2026-08-23T12:56:24Z</time>
      </trkpt>
      <trkpt lat="44.78035" lon="5.68134">
        <ele>760.06</ele>
        <time>2026-08-23T12:56:35Z</time>
      </trkpt>
      <trkpt lat="44.78021" lon="5.68131">
        <ele>760.54</ele>
        <time>2026-08-23T12:56:49Z</time>
      </trkpt>
      <trkpt lat="44.78007" lon="5.68125">
        <ele>761.02</ele>
        <time>2026-08-23T12:57:04Z</time>
      </trkpt>
      <trkpt lat="44.78004" lon="5.68124">
        <ele>761.5</ele>
        <time>2026-08-23T12:57:07Z</time>
      </trkpt>
      <trkpt lat="44.77986" lon="5.68116">
        <ele>762.46</ele>
        <time>2026-08-23T12:57:24Z</time>
      </trkpt>
      <trkpt lat="44.77972" lon="5.68112">
        <ele>762.94</ele>
        <time>2026-08-23T12:57:38Z</time>
      </trkpt>
      <trkpt lat="44.77959" lon="5.68109">
        <ele>763.9</ele>
        <time>2026-08-23T12:57:52Z</time>
      </trkpt>
      <trkpt lat="44.77943" lon="5.68106">
        <ele>764.87</ele>
        <time>2026-08-23T12:58:08Z</time>
      </trkpt>
      <trkpt lat="44.7793" lon="5.68103">
        <ele>765.83</ele>
        <time>2026-08-23T12:58:22Z</time>
      </trkpt>
      <trkpt lat="44.77918" lon="5.68099">
        <ele>767.27</ele>
        <time>2026-08-23T12:58:36Z</time>
      </trkpt>
      <trkpt lat="44.77905" lon="5.6809">
        <ele>768.71</ele>
        <time>2026-08-23T12:58:51Z</time>
      </trkpt>
      <trkpt lat="44.77893" lon="5.68086">
        <ele>770.15</ele>
        <time>2026-08-23T12:59:07Z</time>
      </trkpt>
      <trkpt lat="44.77877" lon="5.68083">
        <ele>772.08</ele>
        <time>2026-08-23T12:59:25Z</time>
      </trkpt>
      <trkpt lat="44.77862" lon="5.6808">
        <ele>774.96</ele>
        <time>2026-08-23T12:59:47Z</time>
      </trkpt>
      <trkpt lat="44.77852" lon="5.68073">
        <ele>776.4</ele>
        <time>2026-08-23T13:00:01Z</time>
      </trkpt>
      <trkpt lat="44.77835" lon="5.68065">
        <ele>777.84</ele>
        <time>2026-08-23T13:00:20Z</time>
      </trkpt>
      <trkpt lat="44.77815" lon="5.68059">
        <ele>779.77</ele>
        <time>2026-08-23T13:00:40Z</time>
      </trkpt>
      <trkpt lat="44.778" lon="5.68054">
        <ele>781.21</ele>
        <time>2026-08-23T13:00:56Z</time>
      </trkpt>
      <trkpt lat="44.77787" lon="5.68054">
        <ele>781.69</ele>
        <time>2026-08-23T13:01:13Z</time>
      </trkpt>
      <trkpt lat="44.77784" lon="5.68052">
        <ele>782.65</ele>
        <time>2026-08-23T13:01:33Z</time>
      </trkpt>
      <trkpt lat="44.7777" lon="5.68043">
        <ele>783.61</ele>
        <time>2026-08-23T13:01:50Z</time>
      </trkpt>
      <trkpt lat="44.77759" lon="5.68036">
        <ele>784.57</ele>
        <time>2026-08-23T13:02:02Z</time>
      </trkpt>
      <trkpt lat="44.77748" lon="5.68027">
        <ele>785.53</ele>
        <time>2026-08-23T13:02:18Z</time>
      </trkpt>
      <trkpt lat="44.77739" lon="5.68016">
        <ele>786.98</ele>
        <time>2026-08-23T13:02:33Z</time>
      </trkpt>
      <trkpt lat="44.77725" lon="5.68004">
        <ele>788.9</ele>
        <time>2026-08-23T13:02:51Z</time>
      </trkpt>
      <trkpt lat="44.77706" lon="5.67995">
        <ele>789.86</ele>
        <time>2026-08-23T13:03:07Z</time>
      </trkpt>
      <trkpt lat="44.77694" lon="5.67985">
        <ele>791.3</ele>
        <time>2026-08-23T13:03:24Z</time>
      </trkpt>
      <trkpt lat="44.77684" lon="5.67971">
        <ele>792.74</ele>
        <time>2026-08-23T13:03:41Z</time>
      </trkpt>
      <trkpt lat="44.77674" lon="5.67954">
        <ele>794.19</ele>
        <time>2026-08-23T13:03:57Z</time>
      </trkpt>
      <trkpt lat="44.7766" lon="5.67938">
        <ele>794.67</ele>
        <time>2026-08-23T13:04:12Z</time>
      </trkpt>
      <trkpt lat="44.77658" lon="5.67933">
        <ele>795.15</ele>
        <time>2026-08-23T13:04:26Z</time>
      </trkpt>
      <trkpt lat="44.77663" lon="5.67928">
        <ele>795.15</ele>
        <time>2026-08-23T13:04:39Z</time>
      </trkpt>
      <trkpt lat="44.77652" lon="5.67928">
        <ele>795.15</ele>
        <time>2026-08-23T13:04:49Z</time>
      </trkpt>
      <trkpt lat="44.7765" lon="5.67927">
        <ele>795.15</ele>
        <time>2026-08-23T13:04:51Z</time>
      </trkpt>
      <trkpt lat="44.77635" lon="5.67917">
        <ele>796.11</ele>
        <time>2026-08-23T13:05:09Z</time>
      </trkpt>
      <trkpt lat="44.77621" lon="5.67905">
        <ele>796.59</ele>
        <time>2026-08-23T13:05:26Z</time>
      </trkpt>
      <trkpt lat="44.77607" lon="5.67892">
        <ele>798.03</ele>
        <time>2026-08-23T13:05:46Z</time>
      </trkpt>
      <trkpt lat="44.77591" lon="5.67878">
        <ele>798.99</ele>
        <time>2026-08-23T13:06:04Z</time>
      </trkpt>
      <trkpt lat="44.77581" lon="5.67871">
        <ele>799.47</ele>
        <time>2026-08-23T13:06:12Z</time>
      </trkpt>
      <trkpt lat="44.77566" lon="5.6786">
        <ele>799.95</ele>
        <time>2026-08-23T13:06:27Z</time>
      </trkpt>
      <trkpt lat="44.7755" lon="5.67853">
        <ele>801.88</ele>
        <time>2026-08-23T13:06:46Z</time>
      </trkpt>
      <trkpt lat="44.77536" lon="5.67839">
        <ele>803.32</ele>
        <time>2026-08-23T13:07:02Z</time>
      </trkpt>
      <trkpt lat="44.77525" lon="5.67831">
        <ele>803.8</ele>
        <time>2026-08-23T13:07:18Z</time>
      </trkpt>
      <trkpt lat="44.77522" lon="5.67827">
        <ele>803.8</ele>
        <time>2026-08-23T13:07:22Z</time>
      </trkpt>
      <trkpt lat="44.77506" lon="5.67816">
        <ele>804.28</ele>
        <time>2026-08-23T13:07:39Z</time>
      </trkpt>
      <trkpt lat="44.77486" lon="5.67801">
        <ele>804.76</ele>
        <time>2026-08-23T13:07:59Z</time>
      </trkpt>
      <trkpt lat="44.77485" lon="5.678">
        <ele>804.76</ele>
        <time>2026-08-23T13:08:00Z</time>
      </trkpt>
      <trkpt lat="44.77484" lon="5.67799">
        <ele>804.76</ele>
        <time>2026-08-23T13:08:02Z</time>
      </trkpt>
      <trkpt lat="44.77466" lon="5.67788">
        <ele>805.24</ele>
        <time>2026-08-23T13:08:19Z</time>
      </trkpt>
      <trkpt lat="44.77451" lon="5.67779">
        <ele>805.72</ele>
        <time>2026-08-23T13:08:32Z</time>
      </trkpt>
      <trkpt lat="44.7745" lon="5.67778">
        <ele>805.72</ele>
        <time>2026-08-23T13:08:33Z</time>
      </trkpt>
      <trkpt lat="44.77432" lon="5.67767">
        <ele>805.72</ele>
        <time>2026-08-23T13:08:49Z</time>
      </trkpt>
      <trkpt lat="44.77424" lon="5.67761">
        <ele>805.72</ele>
        <time>2026-08-23T13:08:57Z</time>
      </trkpt>
      <trkpt lat="44.77421" lon="5.67758">
        <ele>805.72</ele>
        <time>2026-08-23T13:09:00Z</time>
      </trkpt>
      <trkpt lat="44.77408" lon="5.67749">
        <ele>805.24</ele>
        <time>2026-08-23T13:09:14Z</time>
      </trkpt>
      <trkpt lat="44.77403" lon="5.67747">
        <ele>805.24</ele>
        <time>2026-08-23T13:09:23Z</time>
      </trkpt>
      <trkpt lat="44.77397" lon="5.67741">
        <ele>805.24</ele>
        <time>2026-08-23T13:09:32Z</time>
      </trkpt>
      <trkpt lat="44.77383" lon="5.67724">
        <ele>804.28</ele>
        <time>2026-08-23T13:09:47Z</time>
      </trkpt>
      <trkpt lat="44.77369" lon="5.67709">
        <ele>803.8</ele>
        <time>2026-08-23T13:10:04Z</time>
      </trkpt>
      <trkpt lat="44.77354" lon="5.67692">
        <ele>803.8</ele>
        <time>2026-08-23T13:10:20Z</time>
      </trkpt>
      <trkpt lat="44.77346" lon="5.67683">
        <ele>803.32</ele>
        <time>2026-08-23T13:10:29Z</time>
      </trkpt>
      <trkpt lat="44.7734" lon="5.6768">
        <ele>803.8</ele>
        <time>2026-08-23T13:10:33Z</time>
      </trkpt>
      <trkpt lat="44.77337" lon="5.67677">
        <ele>803.8</ele>
        <time>2026-08-23T13:10:37Z</time>
      </trkpt>
      <trkpt lat="44.77319" lon="5.67653">
        <ele>803.8</ele>
        <time>2026-08-23T13:10:56Z</time>
      </trkpt>
      <trkpt lat="44.77302" lon="5.6764">
        <ele>803.32</ele>
        <time>2026-08-23T13:11:12Z</time>
      </trkpt>
      <trkpt lat="44.77284" lon="5.67633">
        <ele>802.84</ele>
        <time>2026-08-23T13:11:28Z</time>
      </trkpt>
      <trkpt lat="44.77267" lon="5.67634">
        <ele>800.44</ele>
        <time>2026-08-23T13:11:44Z</time>
      </trkpt>
      <trkpt lat="44.77261" lon="5.67633">
        <ele>799.47</ele>
        <time>2026-08-23T13:11:50Z</time>
      </trkpt>
      <trkpt lat="44.77245" lon="5.67624">
        <ele>798.03</ele>
        <time>2026-08-23T13:12:04Z</time>
      </trkpt>
      <trkpt lat="44.77235" lon="5.67616">
        <ele>795.63</ele>
        <time>2026-08-23T13:12:17Z</time>
      </trkpt>
      <trkpt lat="44.77222" lon="5.67607">
        <ele>793.71</ele>
        <time>2026-08-23T13:12:30Z</time>
      </trkpt>
      <trkpt lat="44.77218" lon="5.67604">
        <ele>793.22</ele>
        <time>2026-08-23T13:12:34Z</time>
      </trkpt>
      <trkpt lat="44.77215" lon="5.67603">
        <ele>793.22</ele>
        <time>2026-08-23T13:12:37Z</time>
      </trkpt>
      <trkpt lat="44.77214" lon="5.67603">
        <ele>792.74</ele>
        <time>2026-08-23T13:12:39Z</time>
      </trkpt>
      <trkpt lat="44.77196" lon="5.67601">
        <ele>789.86</ele>
        <time>2026-08-23T13:12:55Z</time>
      </trkpt>
      <trkpt lat="44.7718" lon="5.67605">
        <ele>788.42</ele>
        <time>2026-08-23T13:13:09Z</time>
      </trkpt>
      <trkpt lat="44.77159" lon="5.67605">
        <ele>785.53</ele>
        <time>2026-08-23T13:13:27Z</time>
      </trkpt>
      <trkpt lat="44.77156" lon="5.67604">
        <ele>785.53</ele>
        <time>2026-08-23T13:13:29Z</time>
      </trkpt>
      <trkpt lat="44.77141" lon="5.67604">
        <ele>784.57</ele>
        <time>2026-08-23T13:13:42Z</time>
      </trkpt>
      <trkpt lat="44.77136" lon="5.67603">
        <ele>784.09</ele>
        <time>2026-08-23T13:13:46Z</time>
      </trkpt>
      <trkpt lat="44.77117" lon="5.67599">
        <ele>783.61</ele>
        <time>2026-08-23T13:14:01Z</time>
      </trkpt>
      <trkpt lat="44.77115" lon="5.67598">
        <ele>783.61</ele>
        <time>2026-08-23T13:14:03Z</time>
      </trkpt>
      <trkpt lat="44.77094" lon="5.67594">
        <ele>783.13</ele>
        <time>2026-08-23T13:14:20Z</time>
      </trkpt>
      <trkpt lat="44.77076" lon="5.67593">
        <ele>782.65</ele>
        <time>2026-08-23T13:14:34Z</time>
      </trkpt>
      <trkpt lat="44.77071" lon="5.6759">
        <ele>782.65</ele>
        <time>2026-08-23T13:14:38Z</time>
      </trkpt>
      <trkpt lat="44.77051" lon="5.67587">
        <ele>783.13</ele>
        <time>2026-08-23T13:14:55Z</time>
      </trkpt>
      <trkpt lat="44.77034" lon="5.67585">
        <ele>783.13</ele>
        <time>2026-08-23T13:15:10Z</time>
      </trkpt>
      <trkpt lat="44.77019" lon="5.67571">
        <ele>783.13</ele>
        <time>2026-08-23T13:15:25Z</time>
      </trkpt>
      <trkpt lat="44.77005" lon="5.67561">
        <ele>783.61</ele>
        <time>2026-08-23T13:15:39Z</time>
      </trkpt>
      <trkpt lat="44.76993" lon="5.67556">
        <ele>784.57</ele>
        <time>2026-08-23T13:15:51Z</time>
      </trkpt>
      <trkpt lat="44.76988" lon="5.67553">
        <ele>785.05</ele>
        <time>2026-08-23T13:15:56Z</time>
      </trkpt>
      <trkpt lat="44.76977" lon="5.67545">
        <ele>785.53</ele>
        <time>2026-08-23T13:16:07Z</time>
      </trkpt>
      <trkpt lat="44.76974" lon="5.67546">
        <ele>786.02</ele>
        <time>2026-08-23T13:16:10Z</time>
      </trkpt>
      <trkpt lat="44.7697" lon="5.67549">
        <ele>786.98</ele>
        <time>2026-08-23T13:16:24Z</time>
      </trkpt>
      <trkpt lat="44.7697" lon="5.6755">
        <ele>786.5</ele>
        <time>2026-08-23T13:16:27Z</time>
      </trkpt>
      <trkpt lat="44.76959" lon="5.67538">
        <ele>787.94</ele>
        <time>2026-08-23T13:16:41Z</time>
      </trkpt>
      <trkpt lat="44.76958" lon="5.67536">
        <ele>788.42</ele>
        <time>2026-08-23T13:16:43Z</time>
      </trkpt>
      <trkpt lat="44.76955" lon="5.67533">
        <ele>788.9</ele>
        <time>2026-08-23T13:16:47Z</time>
      </trkpt>
      <trkpt lat="44.76941" lon="5.67522">
        <ele>790.34</ele>
        <time>2026-08-23T13:17:02Z</time>
      </trkpt>
      <trkpt lat="44.76929" lon="5.67526">
        <ele>791.3</ele>
        <time>2026-08-23T13:17:14Z</time>
      </trkpt>
      <trkpt lat="44.76913" lon="5.67524">
        <ele>793.22</ele>
        <time>2026-08-23T13:17:29Z</time>
      </trkpt>
      <trkpt lat="44.769" lon="5.67523">
        <ele>794.67</ele>
        <time>2026-08-23T13:17:43Z</time>
      </trkpt>
      <trkpt lat="44.76883" lon="5.67524">
        <ele>796.59</ele>
        <time>2026-08-23T13:17:59Z</time>
      </trkpt>
      <trkpt lat="44.76875" lon="5.67525">
        <ele>797.07</ele>
        <time>2026-08-23T13:18:07Z</time>
      </trkpt>
      <trkpt lat="44.76859" lon="5.67526">
        <ele>798.51</ele>
        <time>2026-08-23T13:18:22Z</time>
      </trkpt>
      <trkpt lat="44.76842" lon="5.67532">
        <ele>799.95</ele>
        <time>2026-08-23T13:18:37Z</time>
      </trkpt>
      <trkpt lat="44.7684" lon="5.67533">
        <ele>798.99</ele>
        <time>2026-08-23T13:18:39Z</time>
      </trkpt>
      <trkpt lat="44.76825" lon="5.67539">
        <ele>799.95</ele>
        <time>2026-08-23T13:18:55Z</time>
      </trkpt>
      <trkpt lat="44.76809" lon="5.67552">
        <ele>800.92</ele>
        <time>2026-08-23T13:19:12Z</time>
      </trkpt>
      <trkpt lat="44.76796" lon="5.67559">
        <ele>801.88</ele>
        <time>2026-08-23T13:19:26Z</time>
      </trkpt>
      <trkpt lat="44.76793" lon="5.67561">
        <ele>801.88</ele>
        <time>2026-08-23T13:19:28Z</time>
      </trkpt>
      <trkpt lat="44.76771" lon="5.67565">
        <ele>803.32</ele>
        <time>2026-08-23T13:19:46Z</time>
      </trkpt>
      <trkpt lat="44.76756" lon="5.67573">
        <ele>803.32</ele>
        <time>2026-08-23T13:20:01Z</time>
      </trkpt>
      <trkpt lat="44.76733" lon="5.67592">
        <ele>804.28</ele>
        <time>2026-08-23T13:20:23Z</time>
      </trkpt>
      <trkpt lat="44.76715" lon="5.67618">
        <ele>804.76</ele>
        <time>2026-08-23T13:20:45Z</time>
      </trkpt>
      <trkpt lat="44.76699" lon="5.67632">
        <ele>803.8</ele>
        <time>2026-08-23T13:21:02Z</time>
      </trkpt>
      <trkpt lat="44.76682" lon="5.67635">
        <ele>804.76</ele>
        <time>2026-08-23T13:21:22Z</time>
      </trkpt>
      <trkpt lat="44.76664" lon="5.67648">
        <ele>805.72</ele>
        <time>2026-08-23T13:21:39Z</time>
      </trkpt>
      <trkpt lat="44.76651" lon="5.67668">
        <ele>808.13</ele>
        <time>2026-08-23T13:21:58Z</time>
      </trkpt>
      <trkpt lat="44.76641" lon="5.67681">
        <ele>810.05</ele>
        <time>2026-08-23T13:22:13Z</time>
      </trkpt>
      <trkpt lat="44.76635" lon="5.67706">
        <ele>812.93</ele>
        <time>2026-08-23T13:22:32Z</time>
      </trkpt>
      <trkpt lat="44.76632" lon="5.67724">
        <ele>813.89</ele>
        <time>2026-08-23T13:22:43Z</time>
      </trkpt>
      <trkpt lat="44.76626" lon="5.67743">
        <ele>814.85</ele>
        <time>2026-08-23T13:22:57Z</time>
      </trkpt>
      <trkpt lat="44.76618" lon="5.67759">
        <ele>816.3</ele>
        <time>2026-08-23T13:23:11Z</time>
      </trkpt>
      <trkpt lat="44.76609" lon="5.67778">
        <ele>818.22</ele>
        <time>2026-08-23T13:23:27Z</time>
      </trkpt>
      <trkpt lat="44.76599" lon="5.67797">
        <ele>820.62</ele>
        <time>2026-08-23T13:23:44Z</time>
      </trkpt>
      <trkpt lat="44.76587" lon="5.67817">
        <ele>823.51</ele>
        <time>2026-08-23T13:24:03Z</time>
      </trkpt>
      <trkpt lat="44.76575" lon="5.67826">
        <ele>825.91</ele>
        <time>2026-08-23T13:24:18Z</time>
      </trkpt>
      <trkpt lat="44.76571" lon="5.67828">
        <ele>826.39</ele>
        <time>2026-08-23T13:24:22Z</time>
      </trkpt>
      <trkpt lat="44.76564" lon="5.67826">
        <ele>827.35</ele>
        <time>2026-08-23T13:24:30Z</time>
      </trkpt>
      <trkpt lat="44.76553" lon="5.67816">
        <ele>828.79</ele>
        <time>2026-08-23T13:24:43Z</time>
      </trkpt>
      <trkpt lat="44.76543" lon="5.67819">
        <ele>830.24</ele>
        <time>2026-08-23T13:24:57Z</time>
      </trkpt>
      <trkpt lat="44.76531" lon="5.67835">
        <ele>833.6</ele>
        <time>2026-08-23T13:25:14Z</time>
      </trkpt>
      <trkpt lat="44.7653" lon="5.6784">
        <ele>834.08</ele>
        <time>2026-08-23T13:25:17Z</time>
      </trkpt>
      <trkpt lat="44.76529" lon="5.67864">
        <ele>836.48</ele>
        <time>2026-08-23T13:25:35Z</time>
      </trkpt>
      <trkpt lat="44.76531" lon="5.67884">
        <ele>838.89</ele>
        <time>2026-08-23T13:25:51Z</time>
      </trkpt>
      <trkpt lat="44.76529" lon="5.67902">
        <ele>840.81</ele>
        <time>2026-08-23T13:26:06Z</time>
      </trkpt>
      <trkpt lat="44.7653" lon="5.67906">
        <ele>841.29</ele>
        <time>2026-08-23T13:26:09Z</time>
      </trkpt>
      <trkpt lat="44.76533" lon="5.67915">
        <ele>841.77</ele>
        <time>2026-08-23T13:26:14Z</time>
      </trkpt>
      <trkpt lat="44.76529" lon="5.67918">
        <ele>843.21</ele>
        <time>2026-08-23T13:26:26Z</time>
      </trkpt>
      <trkpt lat="44.76522" lon="5.67897">
        <ele>844.66</ele>
        <time>2026-08-23T13:26:43Z</time>
      </trkpt>
      <trkpt lat="44.76516" lon="5.67888">
        <ele>845.14</ele>
        <time>2026-08-23T13:26:50Z</time>
      </trkpt>
      <trkpt lat="44.76506" lon="5.67867">
        <ele>847.06</ele>
        <time>2026-08-23T13:27:08Z</time>
      </trkpt>
      <trkpt lat="44.76503" lon="5.67858">
        <ele>847.54</ele>
        <time>2026-08-23T13:27:23Z</time>
      </trkpt>
      <trkpt lat="44.76491" lon="5.67851">
        <ele>848.5</ele>
        <time>2026-08-23T13:27:32Z</time>
      </trkpt>
      <trkpt lat="44.76475" lon="5.6784">
        <ele>848.98</ele>
        <time>2026-08-23T13:27:47Z</time>
      </trkpt>
      <trkpt lat="44.76468" lon="5.67835">
        <ele>848.5</ele>
        <time>2026-08-23T13:27:53Z</time>
      </trkpt>
      <trkpt lat="44.76448" lon="5.67818">
        <ele>847.06</ele>
        <time>2026-08-23T13:28:11Z</time>
      </trkpt>
      <trkpt lat="44.76429" lon="5.67806">
        <ele>845.62</ele>
        <time>2026-08-23T13:28:28Z</time>
      </trkpt>
      <trkpt lat="44.76412" lon="5.67793">
        <ele>844.18</ele>
        <time>2026-08-23T13:28:44Z</time>
      </trkpt>
      <trkpt lat="44.76405" lon="5.67784">
        <ele>843.21</ele>
        <time>2026-08-23T13:28:56Z</time>
      </trkpt>
      <trkpt lat="44.76402" lon="5.67772">
        <ele>842.73</ele>
        <time>2026-08-23T13:29:04Z</time>
      </trkpt>
      <trkpt lat="44.76393" lon="5.67749">
        <ele>841.29</ele>
        <time>2026-08-23T13:29:19Z</time>
      </trkpt>
      <trkpt lat="44.76391" lon="5.67744">
        <ele>841.29</ele>
        <time>2026-08-23T13:29:23Z</time>
      </trkpt>
      <trkpt lat="44.76387" lon="5.67741">
        <ele>841.29</ele>
        <time>2026-08-23T13:29:26Z</time>
      </trkpt>
      <trkpt lat="44.76371" lon="5.67726">
        <ele>840.33</ele>
        <time>2026-08-23T13:29:45Z</time>
      </trkpt>
      <trkpt lat="44.7636" lon="5.67713">
        <ele>839.37</ele>
        <time>2026-08-23T13:30:02Z</time>
      </trkpt>
      <trkpt lat="44.76348" lon="5.67695">
        <ele>837.93</ele>
        <time>2026-08-23T13:30:18Z</time>
      </trkpt>
      <trkpt lat="44.76344" lon="5.67687">
        <ele>837.45</ele>
        <time>2026-08-23T13:30:23Z</time>
      </trkpt>
      <trkpt lat="44.76334" lon="5.67668">
        <ele>836.96</ele>
        <time>2026-08-23T13:30:38Z</time>
      </trkpt>
      <trkpt lat="44.76321" lon="5.67643">
        <ele>835.04</ele>
        <time>2026-08-23T13:30:56Z</time>
      </trkpt>
      <trkpt lat="44.76318" lon="5.67625">
        <ele>834.56</ele>
        <time>2026-08-23T13:31:09Z</time>
      </trkpt>
      <trkpt lat="44.76311" lon="5.67606">
        <ele>834.08</ele>
        <time>2026-08-23T13:31:22Z</time>
      </trkpt>
      <trkpt lat="44.76311" lon="5.676">
        <ele>834.08</ele>
        <time>2026-08-23T13:31:26Z</time>
      </trkpt>
      <trkpt lat="44.76309" lon="5.6758">
        <ele>834.08</ele>
        <time>2026-08-23T13:31:38Z</time>
      </trkpt>
      <trkpt lat="44.76303" lon="5.67553">
        <ele>833.6</ele>
        <time>2026-08-23T13:31:54Z</time>
      </trkpt>
      <trkpt lat="44.76302" lon="5.6755">
        <ele>833.12</ele>
        <time>2026-08-23T13:31:56Z</time>
      </trkpt>
      <trkpt lat="44.76295" lon="5.67536">
        <ele>833.6</ele>
        <time>2026-08-23T13:32:05Z</time>
      </trkpt>
      <trkpt lat="44.76282" lon="5.67517">
        <ele>832.64</ele>
        <time>2026-08-23T13:32:20Z</time>
      </trkpt>
      <trkpt lat="44.76268" lon="5.67505">
        <ele>832.16</ele>
        <time>2026-08-23T13:32:33Z</time>
      </trkpt>
      <trkpt lat="44.7626" lon="5.67499">
        <ele>831.68</ele>
        <time>2026-08-23T13:32:39Z</time>
      </trkpt>
      <trkpt lat="44.76253" lon="5.67493">
        <ele>831.2</ele>
        <time>2026-08-23T13:32:45Z</time>
      </trkpt>
      <trkpt lat="44.76234" lon="5.67491">
        <ele>830.24</ele>
        <time>2026-08-23T13:33:01Z</time>
      </trkpt>
      <trkpt lat="44.76225" lon="5.67491">
        <ele>829.76</ele>
        <time>2026-08-23T13:33:12Z</time>
      </trkpt>
      <trkpt lat="44.76225" lon="5.67487">
        <ele>830.72</ele>
        <time>2026-08-23T13:33:27Z</time>
      </trkpt>
      <trkpt lat="44.76225" lon="5.67489">
        <ele>830.72</ele>
        <time>2026-08-23T13:33:37Z</time>
      </trkpt>
      <trkpt lat="44.76218" lon="5.67492">
        <ele>829.76</ele>
        <time>2026-08-23T13:33:45Z</time>
      </trkpt>
      <trkpt lat="44.76196" lon="5.67491">
        <ele>827.83</ele>
        <time>2026-08-23T13:34:03Z</time>
      </trkpt>
      <trkpt lat="44.76186" lon="5.67492">
        <ele>827.35</ele>
        <time>2026-08-23T13:34:12Z</time>
      </trkpt>
      <trkpt lat="44.76174" lon="5.6749">
        <ele>827.35</ele>
        <time>2026-08-23T13:34:20Z</time>
      </trkpt>
      <trkpt lat="44.76151" lon="5.67487">
        <ele>827.83</ele>
        <time>2026-08-23T13:34:39Z</time>
      </trkpt>
      <trkpt lat="44.76148" lon="5.67487">
        <ele>826.87</ele>
        <time>2026-08-23T13:34:41Z</time>
      </trkpt>
      <trkpt lat="44.7613" lon="5.67497">
        <ele>826.87</ele>
        <time>2026-08-23T13:34:57Z</time>
      </trkpt>
      <trkpt lat="44.76128" lon="5.67499">
        <ele>826.87</ele>
        <time>2026-08-23T13:35:00Z</time>
      </trkpt>
      <trkpt lat="44.76111" lon="5.67515">
        <ele>826.39</ele>
        <time>2026-08-23T13:35:15Z</time>
      </trkpt>
      <trkpt lat="44.761" lon="5.67528">
        <ele>826.87</ele>
        <time>2026-08-23T13:35:27Z</time>
      </trkpt>
      <trkpt lat="44.76093" lon="5.67539">
        <ele>826.87</ele>
        <time>2026-08-23T13:35:35Z</time>
      </trkpt>
      <trkpt lat="44.76077" lon="5.67553">
        <ele>827.35</ele>
        <time>2026-08-23T13:35:52Z</time>
      </trkpt>
      <trkpt lat="44.7606" lon="5.67564">
        <ele>827.83</ele>
        <time>2026-08-23T13:36:08Z</time>
      </trkpt>
      <trkpt lat="44.76042" lon="5.67577">
        <ele>829.27</ele>
        <time>2026-08-23T13:36:26Z</time>
      </trkpt>
      <trkpt lat="44.76023" lon="5.67588">
        <ele>830.72</ele>
        <time>2026-08-23T13:36:45Z</time>
      </trkpt>
      <trkpt lat="44.76006" lon="5.6759">
        <ele>832.16</ele>
        <time>2026-08-23T13:37:00Z</time>
      </trkpt>
      <trkpt lat="44.75992" lon="5.67591">
        <ele>833.6</ele>
        <time>2026-08-23T13:37:13Z</time>
      </trkpt>
      <trkpt lat="44.7599" lon="5.67592">
        <ele>833.6</ele>
        <time>2026-08-23T13:37:15Z</time>
      </trkpt>
      <trkpt lat="44.75985" lon="5.6759">
        <ele>834.56</ele>
        <time>2026-08-23T13:37:21Z</time>
      </trkpt>
      <trkpt lat="44.75967" lon="5.67592">
        <ele>836</ele>
        <time>2026-08-23T13:37:38Z</time>
      </trkpt>
      <trkpt lat="44.75954" lon="5.67594">
        <ele>837.93</ele>
        <time>2026-08-23T13:37:55Z</time>
      </trkpt>
      <trkpt lat="44.75932" lon="5.67593">
        <ele>840.33</ele>
        <time>2026-08-23T13:38:13Z</time>
      </trkpt>
      <trkpt lat="44.75915" lon="5.67596">
        <ele>841.77</ele>
        <time>2026-08-23T13:38:28Z</time>
      </trkpt>
      <trkpt lat="44.75899" lon="5.67601">
        <ele>841.77</ele>
        <time>2026-08-23T13:38:41Z</time>
      </trkpt>
      <trkpt lat="44.75882" lon="5.67606">
        <ele>842.25</ele>
        <time>2026-08-23T13:38:59Z</time>
      </trkpt>
      <trkpt lat="44.75877" lon="5.67605">
        <ele>842.73</ele>
        <time>2026-08-23T13:39:04Z</time>
      </trkpt>
      <trkpt lat="44.75869" lon="5.67609">
        <ele>842.73</ele>
        <time>2026-08-23T13:39:12Z</time>
      </trkpt>
      <trkpt lat="44.75859" lon="5.67616">
        <ele>843.21</ele>
        <time>2026-08-23T13:39:22Z</time>
      </trkpt>
      <trkpt lat="44.75846" lon="5.67622">
        <ele>843.69</ele>
        <time>2026-08-23T13:39:32Z</time>
      </trkpt>
      <trkpt lat="44.75829" lon="5.6762">
        <ele>844.18</ele>
        <time>2026-08-23T13:39:48Z</time>
      </trkpt>
      <trkpt lat="44.75818" lon="5.67619">
        <ele>844.18</ele>
        <time>2026-08-23T13:39:56Z</time>
      </trkpt>
      <trkpt lat="44.75804" lon="5.67614">
        <ele>844.66</ele>
        <time>2026-08-23T13:40:07Z</time>
      </trkpt>
      <trkpt lat="44.75796" lon="5.67618">
        <ele>844.66</ele>
        <time>2026-08-23T13:40:22Z</time>
      </trkpt>
      <trkpt lat="44.75796" lon="5.67619">
        <ele>844.66</ele>
        <time>2026-08-23T13:40:35Z</time>
      </trkpt>
      <trkpt lat="44.75798" lon="5.67629">
        <ele>844.18</ele>
        <time>2026-08-23T13:40:40Z</time>
      </trkpt>
      <trkpt lat="44.75797" lon="5.67662">
        <ele>843.21</ele>
        <time>2026-08-23T13:40:57Z</time>
      </trkpt>
      <trkpt lat="44.75791" lon="5.67686">
        <ele>842.25</ele>
        <time>2026-08-23T13:41:13Z</time>
      </trkpt>
      <trkpt lat="44.75787" lon="5.67716">
        <ele>840.81</ele>
        <time>2026-08-23T13:41:31Z</time>
      </trkpt>
      <trkpt lat="44.75786" lon="5.67717">
        <ele>840.81</ele>
        <time>2026-08-23T13:41:32Z</time>
      </trkpt>
      <trkpt lat="44.75785" lon="5.67726">
        <ele>840.33</ele>
        <time>2026-08-23T13:41:38Z</time>
      </trkpt>
      <trkpt lat="44.75785" lon="5.67741">
        <ele>839.85</ele>
        <time>2026-08-23T13:41:46Z</time>
      </trkpt>
      <trkpt lat="44.75787" lon="5.67773">
        <ele>838.41</ele>
        <time>2026-08-23T13:42:05Z</time>
      </trkpt>
      <trkpt lat="44.75786" lon="5.678">
        <ele>836.96</ele>
        <time>2026-08-23T13:42:21Z</time>
      </trkpt>
      <trkpt lat="44.75788" lon="5.67821">
        <ele>835.52</ele>
        <time>2026-08-23T13:42:35Z</time>
      </trkpt>
      <trkpt lat="44.75787" lon="5.67829">
        <ele>835.52</ele>
        <time>2026-08-23T13:42:40Z</time>
      </trkpt>
      <trkpt lat="44.75785" lon="5.67833">
        <ele>835.52</ele>
        <time>2026-08-23T13:42:44Z</time>
      </trkpt>
      <trkpt lat="44.75776" lon="5.67848">
        <ele>835.04</ele>
        <time>2026-08-23T13:42:58Z</time>
      </trkpt>
      <trkpt lat="44.75774" lon="5.67851">
        <ele>835.04</ele>
        <time>2026-08-23T13:43:10Z</time>
      </trkpt>
    </trkseg>
  </trk>
</gpx>